[[{"header":{"parameterUnit":"m.s-1","parameterCategory":1,"la1":30.6,"la2":28.766,"lo1":-90.7593,"lo2":-88.6598,"dy":0.0162,"dx":0.0183,"nx":116,"ny":114,"refTime":"2024-06-26T12:00:00:Z","depth":0,"parameterNumber":2,"parameterNumberName":"U-component_of_WINDS"},"data":[0.0,0.0,0.0,0.0,0.0,0.0,0.0,0.0,0.0,0.0,0.0,0.0,0.0,0.0,0.0,0.0,0.0,0.0,0.0,0.0,0.0,0.0,0.0,0.0,0.0,0.0,0.0,0.0,0.0,0.0,0.0,0.0,0.0,0.0,0.0,0.0,0.0,0.0,0.0,0.0,0.0,0.0,0.0,0.0,0.0,0.0,0.0,0.0,0.0,0.0,0.0,0.0,0.0,0.0,0.0,0.0,0.0,0.0,0.0,0.0,0.0,0.0,0.0,0.0,0.0,0.0,0.0,0.0,0.0,0.0,0.0,0.0,0.0,0.0,0.0,0.0,0.0,0.0,0.0,0.0,0.0,0.0,0.0,0.0,0.0,0.0,0.0,0.0,0.0,0.0,0.0,0.0,0.0,0.0,0.0,0.0,0.0,0.0,0.0,0.0,0.0,0.0,0.0,0.0,0.0,0.0,0.0,0.0,0.0,0.0,0.0,0.0,0.0,0.0,0.0,0.0,0.0,0.0,0.0,0.0,0.0,0.0,0.0,0.0,0.0,0.0,0.0,0.0,0.0,0.0,0.0,0.0,0.0,0.0,0.0,0.0,0.0,0.0,0.0,0.0,0.0,0.0,0.0,0.0,0.0,0.0,0.0,0.0,0.0,0.0,0.0,0.0,0.0,0.0,0.0,0.0,0.0,0.0,0.0,0.0,0.0,0.0,0.0,0.0,0.0,0.0,0.0,0.0,0.0,0.0,0.0,0.0,0.0,0.0,0.0,0.0,0.0,0.0,0.0,0.0,0.0,0.0,0.0,0.0,0.0,0.0,0.0,0.0,0.0,0.0,0.0,0.0,0.0,0.0,0.0,0.0,0.0,0.0,0.0,0.0,0.0,0.0,0.0,0.0,0.0,0.0,0.0,0.0,0.0,0.0,0.0,0.0,0.0,0.0,0.0,0.0,0.0,0.0,0.0,0.0,0.0,0.0,0.0,0.0,0.0,0.0,0.0,0.0,0.0,0.0,0.0,0.0,0.0,0.0,0.0,0.0,0.0,0.0,0.0,0.0,0.0,0.0,0.0,0.0,0.0,0.0,0.0,0.0,0.0,0.0,0.0,0.0,0.0,0.0,0.0,0.0,0.0,0.0,0.0,0.0,0.0,0.0,0.0,0.0,0.0,0.0,0.0,0.0,0.0,0.0,0.0,0.0,0.0,0.0,0.0,0.0,0.0,0.0,0.0,0.0,0.0,0.0,0.0,0.0,0.0,0.0,0.0,0.0,0.0,0.0,0.0,0.0,0.0,0.0,0.0,0.0,0.0,0.0,0.0,0.0,0.0,0.0,0.0,0.0,0.0,0.0,0.0,0.0,0.0,0.0,0.0,0.0,0.0,0.0,0.0,0.0,0.0,0.0,0.0,0.0,0.0,0.0,0.0,0.0,0.0,0.0,0.0,0.0,0.0,0.0,0.0,0.0,0.0,0.0,0.0,0.0,0.0,0.0,0.0,0.0,0.0,0.0,0.0,0.0,0.0,0.0,0.0,0.0,0.0,0.0,0.0,0.0,0.0,0.0,0.0,0.0,0.0,0.0,0.0,0.0,0.0,0.0,0.0,0.0,0.0,0.0,0.0,0.0,0.0,0.0,0.0,0.0,0.0,0.0,0.0,0.0,0.0,0.0,0.0,0.0,0.0,0.0,0.0,0.0,0.0,0.0,0.0,0.0,0.0,0.0,0.0,0.0,0.0,0.0,0.0,0.0,0.0,0.0,0.0,0.0,0.0,0.0,0.0,0.0,0.0,0.0,0.0,0.0,0.0,0.0,0.0,0.0,0.0,0.0,0.0,0.0,0.0,0.0,0.0,0.0,0.0,0.0,0.0,0.0,0.0,0.0,0.0,0.0,0.0,0.0,0.0,0.0,0.0,0.0,0.0,0.0,0.0,0.0,0.0,0.0,0.0,0.0,0.0,0.0,0.0,0.0,0.0,0.0,0.0,0.0,0.0,0.0,0.0,0.0,0.0,0.0,0.0,0.0,0.0,0.0,0.0,0.0,0.0,0.0,0.0,0.0,0.0,0.0,0.0,0.0,0.0,0.0,0.0,0.0,0.0,0.0,0.0,0.0,0.0,0.0,0.0,0.0,0.0,0.0,0.0,0.0,0.0,0.0,0.0,0.0,0.0,0.0,0.0,0.0,0.0,0.0,0.0,0.0,0.0,0.0,0.0,0.0,0.0,0.0,0.0,0.0,0.0,0.0,0.0,0.0,0.0,0.0,0.0,0.0,0.0,0.0,0.0,0.0,0.0,0.0,0.0,0.0,0.0,0.0,0.0,0.0,0.0,0.0,0.0,0.0,0.0,0.0,0.0,0.0,0.0,0.0,0.0,0.0,0.0,0.0,0.0,0.0,0.0,0.0,0.0,0.0,0.0,0.0,0.0,0.0,0.0,0.0,0.0,0.0,0.0,0.0,0.0,0.0,0.0,0.0,0.0,0.0,0.0,0.0,0.0,0.0,0.0,0.0,0.0,0.0,0.0,0.0,0.0,0.0,0.0,0.0,0.0,0.0,0.0,0.0,0.0,0.0,0.0,0.0,0.0,0.0,0.0,0.0,0.0,0.0,0.0,0.0,0.0,0.0,0.0,0.0,0.0,0.0,0.0,0.0,0.0,0.0,0.0,0.0,0.0,0.0,0.0,0.0,0.0,0.0,0.0,0.0,0.0,0.0,0.0,0.0,0.0,0.0,0.0,0.0,0.0,0.0,0.0,0.0,0.0,0.0,0.0,0.0,0.0,0.0,0.0,0.0,0.0,0.0,0.0,0.0,0.0,0.0,0.0,0.0,0.0,0.0,0.0,0.0,0.0,0.0,0.0,0.0,0.0,0.0,0.0,0.0,0.0,0.0,0.0,0.0,0.0,0.0,0.0,0.0,0.0,0.0,0.0,0.0,0.0,0.0,0.0,0.0,0.0,0.0,0.0,0.0,0.0,0.0,0.0,0.0,0.0,0.0,0.0,0.0,0.0,0.0,0.0,0.0,0.0,0.0,0.0,0.0,0.0,0.0,0.0,0.0,0.0,0.0,0.0,0.0,0.0,0.0,0.0,0.0,0.0,0.0,0.0,0.0,0.0,0.0,0.0,0.0,0.0,0.0,0.0,0.0,0.0,0.0,0.0,0.0,0.0,0.0,0.0,0.0,0.0,0.0,0.0,0.0,0.0,0.0,0.0,0.0,0.0,0.0,0.0,0.0,0.0,0.0,0.0,0.0,0.0,0.0,0.0,0.0,0.0,0.0,0.0,0.0,0.0,0.0,0.0,0.0,0.0,0.0,0.0,0.0,0.0,0.0,0.0,0.0,0.0,0.0,0.0,0.0,0.0,0.0,0.0,0.0,0.0,0.0,0.0,0.0,0.0,0.0,0.0,0.0,0.0,0.0,0.0,0.0,0.0,0.0,0.0,0.0,0.0,0.0,0.0,0.0,0.0,0.0,0.0,0.0,0.0,0.0,0.0,0.0,0.0,0.0,0.0,0.0,0.0,0.0,0.0,0.0,0.0,0.0,0.0,0.0,0.0,0.0,0.0,0.0,0.0,0.0,0.0,0.0,0.0,0.0,0.0,0.0,0.0,0.0,0.0,0.0,0.0,0.0,0.0,0.0,0.0,0.0,0.0,0.0,0.0,0.0,0.0,0.0,0.0,0.0,0.0,0.0,0.0,0.0,0.0,0.0,0.0,0.0,0.0,0.0,0.0,0.0,0.0,0.0,0.0,0.0,0.0,0.0,0.0,0.0,0.0,0.0,0.0,0.0,0.0,0.0,0.0,0.0,0.0,0.0,0.0,0.0,0.0,0.0,0.0,0.0,0.0,0.0,0.0,0.0,0.0,0.0,0.0,0.0,0.0,0.0,0.0,0.0,0.0,0.0,0.0,0.0,0.0,0.0,0.0,0.0,0.0,0.0,0.0,0.0,0.0,0.0,0.0,0.0,0.0,0.0,0.0,0.0,0.0,0.0,0.0,0.0,0.0,0.0,0.0,0.0,0.0,0.0,0.0,0.0,0.0,0.0,0.0,0.0,0.0,0.0,0.0,0.0,0.0,0.0,0.0,0.0,0.0,0.0,0.0,0.0,0.0,0.0,0.0,0.0,0.0,0.0,0.0,0.0,0.0,0.0,0.0,0.0,0.0,0.0,0.0,0.0,0.0,0.0,0.0,0.0,0.0,0.0,0.0,0.0,0.0,0.0,0.0,0.0,0.0,0.0,0.0,0.0,0.0,0.0,0.0,0.0,0.0,0.0,0.0,0.0,0.0,0.0,0.0,0.0,0.0,0.0,0.0,0.0,0.0,0.0,0.0,0.0,0.0,0.0,0.0,0.0,0.0,0.0,0.0,0.0,0.0,0.0,0.0,0.0,0.0,0.0,0.0,0.0,0.0,0.0,0.0,0.0,0.0,0.0,0.0,0.0,0.0,0.0,0.0,0.0,0.0,0.0,0.0,0.0,0.0,0.0,0.0,0.0,0.0,0.0,0.0,0.0,0.0,0.0,0.0,0.0,0.0,0.0,0.0,0.0,0.0,0.0,0.0,0.0,0.0,0.0,0.0,0.0,0.0,0.0,0.0,0.0,0.0,0.0,0.0,0.0,0.0,0.0,0.0,0.0,0.0,0.0,0.0,0.0,0.0,0.0,0.0,0.0,0.0,0.0,0.0,0.0,0.0,0.0,0.0,0.0,0.0,0.0,0.0,0.0,0.0,0.0,0.0,0.0,0.0,0.0,0.0,0.0,0.0,0.0,0.0,0.0,0.0,0.0,0.0,0.0,0.0,0.0,0.0,0.0,0.0,0.0,0.0,0.0,0.0,0.0,0.0,0.0,0.0,0.0,0.0,0.0,0.0,0.0,0.0,0.0,0.0,0.0,0.0,0.0,0.0,0.0,0.0,0.0,0.0,0.0,0.0,0.0,0.0,0.0,0.0,0.0,0.0,0.0,0.0,0.0,0.0,0.0,0.0,0.0,0.0,0.0,0.0,0.0,0.0,0.0,0.0,0.0,0.0,0.0,0.0,0.0,0.0,0.0,0.0,0.0,0.0,0.0,0.0,0.0,0.0,0.0,0.0,0.0,0.0,0.0,0.0,0.0,0.0,0.0,0.0,0.0,0.0,0.0,0.0,0.0,0.0,0.0,0.0,0.0,0.0,0.0,0.0,0.0,0.0,0.0,0.0,0.0,0.0,0.0,0.0,0.0,0.0,0.0,0.0,0.0,0.0,0.0,0.0,0.0,0.0,0.0,0.0,0.0,0.0,0.0,0.0,0.0,0.0,0.0,0.0,0.0,0.0,0.0,0.0,0.0,0.0,0.0,0.0,0.0,0.0,0.0,0.0,0.0,0.0,0.0,0.0,0.0,0.0,0.0,0.0,0.0,0.0,0.0,0.0,0.0,0.0,0.0,0.0,0.0,0.0,0.0,0.0,0.0,0.0,0.0,0.0,0.0,0.0,0.0,0.0,0.0,0.0,0.0,0.0,0.0,0.0,0.0,0.0,0.0,0.0,0.0,0.0,0.0,0.0,0.0,0.0,0.0,0.0,0.0,0.0,0.0,0.0,0.0,0.0,0.0,0.0,0.0,0.0,0.0,0.0,0.0,0.0,0.0,0.0,0.0,0.0,0.0,0.0,0.0,0.0,0.0,0.0,0.0,0.0,0.0,0.0,0.0,0.0,0.0,0.0,0.0,0.0,0.0,0.0,0.0,0.0,0.0,0.0,0.0,0.0,0.0,0.0,0.0,0.0,0.0,0.0,0.0,0.0,0.0,0.0,0.0,0.0,0.0,0.0,0.0,0.0,0.0,0.0,0.0,0.0,0.0,0.0,0.0,0.0,0.0,0.0,0.0,0.0,0.0,0.0,0.0,0.0,0.0,0.0,0.0,0.0,0.0,0.0,0.0,0.0,0.0,0.0,0.0,0.0,0.0,0.0,0.0,0.0,0.0,0.0,0.0,0.0,0.0,0.0,0.0,0.0,0.0,0.0,0.0,0.0,0.0,0.0,0.0,0.0,0.0,0.0,0.0,0.0,0.0,0.0,0.0,0.0,0.0,0.0,0.0,0.0,0.0,0.0,0.0,-0.0,0.0,0.0,0.0,0.0,0.0,0.0,0.0,0.0,0.0,0.0,0.0,0.0,0.0,0.0,0.0,0.0,0.0,0.0,0.0,0.0,0.0,0.0,0.0,0.0,-0.3177,-0.3019,-0.2742,-0.2464,-0.2352,-0.2352,0.0,0.0,0.0,0.0,0.0,-0.2968,-0.2958,-0.2809,-0.2577,-0.2344,-0.2043,-0.1697,-0.1507,-0.1411,-0.1294,0.0,0.0,0.0,0.0,0.0,0.0,0.0,0.0,0.0,0.0,0.0,0.0,0.0,0.0,0.0,0.0,0.0,0.0,0.0,0.0,0.0,0.0,0.0,0.0,0.0,0.0,0.0,0.0,0.0,0.0,0.0,0.0,0.0,0.0,0.0,0.0,0.0,0.0,0.0,0.0,0.0,0.0,0.0,0.0,0.0,0.0,0.0,0.0,0.0,0.0,0.0,0.0,0.0,0.0,0.0,0.0,0.0,0.0,0.0,0.0,0.0,0.0,0.0,0.0,0.0,0.0,0.0,0.0,0.0,0.0,0.0,-0.0,0.0,0.0,0.0,0.0,0.0,0.0,0.0,0.0,0.0,0.0,0.0,0.0,0.0,0.0,0.0,0.0,0.0,0.0,0.0,0.0,0.0,-0.3717,-0.3492,-0.3528,-0.3334,-0.2826,-0.2728,-0.256,-0.2315,-0.243,0.0,0.0,0.0,-0.2471,-0.243,-0.2322,-0.225,-0.2155,-0.1854,-0.1475,-0.0969,-0.0996,-0.1113,-0.1369,-0.1027,0.0,0.0,0.0,0.0,0.0,0.0,0.0,0.0,0.0,0.0,0.0,0.0,0.0,0.0,0.0,0.0,0.0,0.0,0.0,0.0,0.0,0.0,0.0,0.0,0.0,0.0,0.0,0.0,0.0,0.0,0.0,0.0,0.0,0.0,0.0,0.0,0.0,0.0,0.0,0.0,0.0,0.0,0.0,0.0,0.0,0.0,0.0,0.0,0.0,0.0,0.0,0.0,0.0,0.0,0.0,0.0,0.0,0.0,0.0,0.0,0.0,0.0,0.0,0.1136,0.0737,0.0869,0.0872,0.055,-0.0,-0.0,-0.0,-0.0,-0.0,0.0,0.0,0.0,0.0,0.0,0.0,0.0,0.0,0.0,0.0,0.0,0.0,0.0,0.0,0.0,0.0,0.0,0.0,0.0,-0.3771,-0.3752,-0.3543,-0.3329,-0.3152,-0.2819,-0.2649,-0.2689,-0.2454,0.0,0.0,-0.2465,-0.2327,-0.2161,-0.1999,-0.1635,-0.1085,-0.1245,-0.1251,-0.1234,-0.1422,-0.1511,-0.1572,-0.1104,-0.0917,-0.0826,0.0,0.0,0.0,0.0,0.0,0.0,0.0,0.0,0.0,0.0,0.0,0.0,0.0,0.0,0.0,0.0,0.0,0.0,0.0,0.0,0.0,0.0,0.0,0.0,0.0,0.0,0.0,0.0,0.0,0.0,0.0,0.0,0.0,0.0,0.0,0.0,0.0,0.0,0.0,0.0,0.0,0.6241,0.6939,0.0,0.0,0.0,0.0,0.0,0.0,0.0,0.0,0.0,0.0,0.0,0.0,0.0,0.6628,0.5829,0.4769,0.3569,0.2211,0.1235,0.0571,0.0116,0.0118,0.0119,-0.0,-0.0,0.0,-0.0,-0.0,0.0,0.0,0.0,0.0,0.0,0.0,0.0,0.0,0.0,0.0,0.0,0.0,0.0,0.0,0.0,0.0,0.0,0.0,0.0,0.0,0.0,-0.335,-0.3137,-0.3015,-0.2692,-0.2514,-0.2598,-0.2355,-0.2205,-0.2137,-0.2055,-0.1833,-0.1413,-0.1365,-0.1265,-0.1159,-0.1309,-0.1692,-0.2335,-0.2418,-0.2631,-0.2891,-0.2411,-0.1642,-0.0763,-0.0223,0.0,0.0,0.0,0.0,0.0,0.0,0.0,0.0,0.0,0.0,0.0,0.0,0.0,0.0,0.0,0.0,0.0,0.0,0.0,0.0,0.0,0.0,0.0,0.0,0.0,0.0,0.0,0.0,0.0,0.0,0.0,0.0,0.0,0.0,0.0,0.0,0.0,0.0,0.0,0.6409,0.695,0.7505,0.7312,0.703,0.0,0.0,0.0,0.0,0.0,0.0,0.0,0.0,0.0,0.8111,0.7913,0.7307,0.6505,0.5109,0.3778,0.252,0.1451,0.0612,-0.0,-0.0,-0.0,-0.0,-0.0,-0.0,-0.0,-0.0,-0.0,-0.0,0.0,0.0,0.0,0.0,-0.0,-0.0,0.0,0.0,0.0,0.0,0.0,0.0,0.0,0.0,0.0,0.0,0.0,0.0,-0.3329,-0.3002,-0.2768,-0.2647,-0.2432,-0.2245,0.0,0.0,-0.18,-0.1555,-0.16,-0.1365,-0.0917,-0.1014,-0.1336,-0.1856,-0.1941,-0.2442,0.0,-0.3421,-0.3759,-0.4043,-0.3642,-0.2577,-0.0925,-0.049,-0.0232,0.0,0.0,0.0,0.0,0.0,0.0,0.0,0.0,0.0,0.0,0.0,0.0,0.0,0.0,0.0,0.0,0.0,0.0,0.0,0.0,0.0,0.0,0.0,0.0,0.0,0.0,0.0,0.0,0.0,0.0,0.0,0.0,0.0,0.0,0.0,0.0,0.0,0.0,0.7382,0.7812,0.8333,0.8019,0.7786,0.0,0.0,0.0,0.0,0.0,0.0,0.8323,0.8825,0.903,0.8869,0.8713,0.8162,0.7213,0.5696,0.4271,0.3062,0.166,0.0644,-0.0,-0.0,-0.0,-0.0,-0.0,-0.0,-0.0,-0.0,-0.0,-0.0,-0.0,-0.0,-0.0,-0.0,-0.0,-0.0,0.0,0.0,0.0,0.0,0.0,0.0,0.0,0.0,0.0,0.0,0.0,-0.3166,-0.3042,-0.2607,-0.2275,-0.2144,-0.2039,-0.1843,0.0,0.0,-0.1111,-0.0927,-0.0952,-0.0914,-0.0871,-0.1369,-0.2066,0.0,0.0,0.0,0.0,0.0,0.0,-0.4403,-0.4382,-0.3306,-0.1559,-0.1408,-0.0832,-0.0,0.0,0.0,0.0,0.0,0.0,0.0,0.0,0.0,0.0,0.0,0.0,0.0,0.0,0.0,0.0,0.0,0.0,0.0,0.0,0.0,0.0,0.0,0.0,0.0,0.0,0.0,0.0,0.0,0.0,0.0,0.0,0.0,0.0,0.0,0.0,0.0,0.0,0.0,0.0,0.9901,0.9259,0.0,0.0,0.0,0.0,0.8214,0.8635,0.8954,0.9089,0.9401,0.9703,0.9861,0.9647,0.9093,0.8193,0.6794,0.5431,0.3945,0.1972,0.0663,-0.0,-0.0,-0.0,-0.0,-0.0,-0.0,-0.0,-0.0,-0.0,-0.0,-0.0,-0.0,-0.0,-0.0,-0.0,-0.0,0.0,0.0,0.0,-0.3581,-0.3701,-0.378,-0.3785,-0.3811,-0.3818,-0.3705,-0.3516,-0.324,0.0,-0.2548,-0.2185,-0.1838,-0.1587,-0.123,-0.0638,0.0,-0.0349,-0.0337,-0.0345,-0.0288,-0.0305,-0.1148,-0.2083,0.0,0.0,0.0,0.0,0.0,0.0,0.0,-0.492,-0.3985,-0.283,-0.1878,-0.107,-0.0419,-0.0081,-0.0,0.0,0.0,0.0,0.0,0.0,0.0,0.0,0.0,0.0,0.0,0.0,0.0,0.0,0.0,0.0,0.0,0.0,0.0,0.0,0.0,0.0,0.0,0.0,0.0,0.0,0.0,0.0,0.0,0.0,0.0,0.0,0.0,0.0,0.0,0.0,0.0,0.0,0.9722,0.9403,0.0,0.9291,0.9116,0.9028,0.9127,0.9456,0.9676,0.9727,1.0012,1.027,1.0473,1.0179,0.9627,0.8682,0.7332,0.5998,0.4937,0.2333,0.0688,-0.0,-0.0,-0.0,-0.0,-0.0,-0.0,-0.0,-0.0,-0.0,-0.0,-0.0,-0.0,-0.0,-0.0,-0.0,-0.0,-0.3581,-0.3581,0.0,-0.3581,-0.3746,-0.3906,-0.3911,-0.3929,-0.3906,-0.373,-0.3582,-0.3362,-0.2982,-0.2705,-0.2395,-0.1912,-0.1488,-0.0969,-0.0222,-0.0074,-0.0,-0.0,-0.0,-0.0,-0.0,-0.1054,-0.2192,0.0,0.0,0.0,0.0,0.0,0.0,0.0,0.0,-0.4575,-0.3759,-0.2579,-0.1614,-0.0718,-0.0176,-0.0,-0.0,0.0,0.0,0.0,0.0,0.0,0.0,0.0,0.0,0.0,0.0,0.0,0.0,0.0,0.0,0.0,0.0,0.0,0.0,0.0,0.0,0.0,0.0,0.0,0.0,0.0,0.0,0.0,0.0,0.0,0.0,0.0,0.0,0.0,0.0,0.0,0.97,0.9935,0.972,0.9752,0.9916,0.9669,0.969,0.9893,1.0137,1.0297,1.0348,1.0585,1.0765,1.0867,1.069,1.0098,0.8938,0.7687,0.6577,0.5467,0.2804,0.0982,-0.0,-0.0,-0.0,-0.0,-0.0,-0.0,-0.0,-0.0,-0.0,-0.0,-0.0,-0.0,-0.0,-0.0,-0.0,-0.0,-0.3581,-0.3581,-0.3581,-0.3588,-0.3753,-0.3948,-0.4158,-0.3997,-0.3866,-0.3958,-0.3685,-0.3407,-0.3471,-0.3176,-0.28,-0.2417,-0.1704,-0.1089,-0.0607,-0.0227,-0.0,-0.0,-0.0,-0.0,-0.009,-0.103,0.0,0.0,0.0,0.0,0.0,0.0,0.0,0.0,0.0,-0.487,-0.4255,-0.3427,-0.2214,-0.0764,-0.0187,-0.0,-0.0,0.0,0.0,0.0,0.0,0.0,0.0,0.0,0.0,0.0,0.0,0.0,0.0,0.0,0.0,0.0,0.0,0.0,0.0,0.0,0.0,0.0,0.0,0.0,0.0,0.0,0.0,0.0,0.0,0.0,0.0,0.0,0.0,0.0,0.9466,1.0059,1.0508,1.0624,1.0368,1.0386,1.055,1.0194,1.0192,1.049,1.0649,1.0799,1.0948,1.1087,1.1165,1.1168,1.1168,1.0474,0.8948,0.8112,0.7002,0.5614,0.3227,0.1403,-0.0,-0.0,-0.0,-0.0,-0.0,-0.0,-0.0,-0.0,-0.0,-0.0,-0.0,-0.0,-0.0,-0.0,-0.0,-0.0,-0.3581,-0.3581,-0.3615,-0.3582,-0.3624,-0.3813,-0.4165,-0.4151,-0.4086,-0.4027,-0.3814,-0.3639,-0.3573,-0.3481,-0.3249,-0.2713,-0.2032,-0.133,-0.0622,-0.0233,-0.0,-0.0,-0.0,0.0,-0.1125,0.0,0.0,0.0,0.0,0.0,0.0,0.0,0.0,0.0,0.0,-0.4541,-0.3912,-0.2643,-0.177,-0.1317,-0.0392,-0.0,-0.0,0.0,0.0,0.0,0.0,0.0,0.0,0.0,0.0,0.0,0.0,0.0,0.0,0.0,0.0,0.0,0.0,0.0,0.0,0.0,0.0,0.0,0.0,0.0,0.0,0.0,0.0,0.0,0.0,0.0,0.0,0.0,0.0,0.9618,0.9508,0.9858,1.0116,1.019,1.0284,1.038,1.064,1.0534,1.066,1.0955,1.1019,1.106,1.1101,1.1141,1.1212,1.1324,1.1047,1.0389,0.9204,0.7909,0.6767,0.5772,0.3317,0.1443,-0.0,-0.0,-0.0,-0.0,-0.0,-0.0,-0.0,-0.0,-0.0,-0.0,-0.0,-0.0,-0.0,-0.0,-0.0,-0.0,-0.3312,-0.3314,-0.3287,-0.3316,-0.3485,-0.3682,-0.3915,-0.4101,-0.4151,-0.4042,-0.395,-0.3908,-0.4159,-0.4019,-0.3774,-0.3361,-0.2666,-0.1811,-0.0955,-0.0328,-0.0,-0.0,0.0,0.0,0.0,0.0,0.0,0.0,0.0,0.0,0.0,0.0,0.0,0.0,-0.491,-0.4198,-0.3554,-0.2263,-0.1608,-0.1484,-0.0412,-0.0,-0.0,-0.0,-0.0,-0.0,-0.0,-0.0,-0.0,-0.0,0.0,0.0,0.0,0.0,0.0,0.0,0.0,0.0,0.0,0.0,0.0,0.0,0.0,0.0,0.0,0.0,0.0,0.0,0.0,0.0,0.0,0.0,0.0,0.0,0.9576,0.9898,0.9922,1.0179,1.0242,1.0293,1.0466,1.0653,1.0884,1.0907,1.1002,1.124,1.1318,1.1382,1.144,1.1504,1.1579,1.167,1.1237,1.0402,0.9158,0.783,0.6509,0.5334,0.3259,0.1478,-0.0,-0.0,-0.0,-0.0,-0.0,-0.0,-0.0,-0.0,-0.0,0.0,0.0,0.0,0.0,0.0,-0.0,-0.0,-0.275,-0.275,-0.2735,-0.2747,-0.3161,-0.3512,-0.357,-0.3944,-0.4178,-0.4137,-0.4003,-0.4193,-0.4873,-0.4576,-0.4304,-0.4192,-0.3435,-0.2529,-0.1378,-0.0519,0.0,-0.018,-0.0191,0.0,0.0,0.0,0.0,0.0,0.0,0.0,0.0,0.0,0.0,0.0,-0.4676,-0.3949,-0.3074,-0.2196,-0.1646,-0.1313,-0.0431,-0.0,-0.0,-0.0,-0.0,-0.0,-0.0,-0.0,-0.0,-0.0,0.0,0.0,0.0,0.0,0.0,0.0,0.0,0.0,0.0,0.0,0.0,0.0,0.0,0.0,0.0,0.0,0.0,0.0,0.0,0.0,0.0,0.0,0.0,0.0,0.9954,1.0159,1.0443,1.0694,1.0729,1.0717,1.088,1.1029,1.1175,1.1206,1.1277,1.143,1.1582,1.1725,1.185,0.0,0.0,0.0,0.0,1.0559,0.8905,0.7703,0.6351,0.4694,0.3029,0.1506,-0.0,-0.0,-0.0,-0.0,-0.0,-0.0,-0.0,-0.0,-0.0,-0.0,-0.0,-0.0,-0.0,-0.0,-0.0138,-0.0275,-0.1782,-0.1694,-0.1758,-0.1967,-0.2477,-0.306,-0.3523,-0.3843,-0.4068,-0.4077,-0.408,-0.4257,-0.4685,-0.4594,-0.4489,-0.4397,-0.3802,-0.2791,0.0,0.0,-0.0813,0.0,0.0,0.0,0.0,0.0,0.0,0.0,0.0,0.0,0.0,0.0,0.0,-0.4564,-0.3984,-0.3125,-0.2121,-0.1898,-0.1219,-0.0329,-0.0109,-0.0,-0.0,-0.0,-0.0,-0.0,-0.0,-0.0,-0.0,-0.0,-0.0,0.009,0.0522,0.0,0.0,0.0,0.0,0.0,0.0,0.0,0.0,0.0,0.0,0.0,0.0,0.0,0.0,0.0,0.0,0.0,0.0,0.0,0.0,0.9673,1.0168,1.0544,1.066,1.086,1.1104,1.0911,1.1033,1.1182,1.1335,1.1457,1.1592,1.1735,1.1887,1.1986,1.2016,1.2047,1.1911,1.1612,1.0865,0.9661,0.8002,0.7107,0.5904,0.4695,0.0,0.0,-0.0,-0.0,-0.0,-0.0,-0.0,-0.0,-0.0,-0.0,-0.0,-0.0,-0.0,-0.0,-0.0,-0.0,-0.0839,-0.1813,-0.1704,-0.1379,-0.1197,-0.1322,-0.1832,-0.2468,-0.3063,-0.3802,-0.4213,-0.405,-0.4189,-0.4435,-0.4827,-0.4839,-0.4828,-0.4876,-0.4065,0.0,0.0,0.0,0.0,0.0,0.0,0.0,0.0,0.0,0.0,0.0,0.0,0.0,0.0,0.0,0.0,-0.3984,-0.3688,-0.2805,-0.1346,-0.1009,-0.0558,-0.0,-0.0,-0.0,-0.0,-0.0,-0.0,-0.0,-0.0,-0.0,-0.0,-0.0,-0.0,0.0095,0.0559,0.1451,0.237,0.0,0.0,0.0,0.0,0.0,0.0,0.0,0.0,0.0,0.0,0.0,0.0,0.0,0.0,0.8806,0.8983,0.0,0.9555,0.9456,0.9923,1.0181,1.0119,1.0583,1.0971,1.1179,1.1233,1.1365,1.1589,1.1681,1.1786,1.1935,1.2091,1.2176,1.2176,1.2244,1.2129,1.1673,1.0606,0.9379,0.7689,0.6625,0.5243,0.3702,0.2777,0.1538,-0.0,-0.0,-0.0,-0.0,-0.0,-0.0,-0.0,-0.0,-0.0,-0.0,-0.0,-0.0,-0.0,-0.0,-0.0992,-0.2406,-0.2239,-0.1664,-0.1235,-0.1073,-0.1592,-0.2181,-0.2792,-0.3802,-0.4416,-0.4137,-0.4252,-0.4535,-0.4977,-0.4982,-0.4989,-0.5173,0.0,0.0,0.0,0.0,0.0,0.0,0.0,0.0,0.0,0.0,0.0,0.0,0.0,0.0,0.0,0.0,-0.4389,-0.3606,-0.3623,-0.2607,-0.1019,-0.0338,-0.0,-0.0,-0.0,-0.0,-0.0,-0.0,-0.0,-0.0,-0.0,-0.0,-0.0,-0.0,-0.0,0.0099,0.059,0.1442,0.2239,0.283,0.3494,0.0,0.0,0.0,0.0,0.0,0.0,0.0,0.0,0.0,0.9049,0.9137,0.9349,0.9559,0.9382,0.9478,0.932,0.8884,0.916,0.9417,0.9246,0.993,1.058,1.1008,1.1318,1.1429,1.166,1.159,1.1673,1.1798,1.1944,1.2026,1.2179,1.2286,1.2037,1.1727,1.0328,0.8925,0.7361,0.6276,0.4711,0.2515,0.22,0.125,-0.0,-0.0,-0.0,-0.0,-0.0,-0.0,-0.0,-0.0,-0.0,-0.0,-0.0,-0.0,-0.0,-0.0,-0.1005,-0.2582,-0.3429,-0.289,-0.2332,-0.1779,-0.2178,-0.28,-0.3405,-0.4089,-0.4485,-0.4436,-0.4296,-0.4305,-0.4636,-0.4667,-0.4772,-0.5023,-0.477,0.0,0.0,0.0,0.0,0.0,0.0,0.0,0.0,0.0,0.0,0.0,0.0,0.0,0.0,-0.4664,-0.4244,-0.3561,-0.3614,-0.2932,-0.164,-0.0462,-0.0,-0.0,-0.0,-0.0,-0.0,-0.0,-0.0,-0.0,-0.0,-0.0,-0.0,-0.0,-0.0,0.01,0.0592,0.1175,0.1846,0.2475,0.0,0.4065,0.519,0.6608,0.0,0.8247,0.8598,0.8872,0.0,0.0,0.9445,0.9846,0.9827,0.9688,0.967,0.9227,0.8614,0.8464,0.8298,0.8232,0.8535,0.8772,0.9275,1.0003,1.0686,1.1208,1.1241,1.0871,1.0717,1.1045,1.086,1.1086,1.186,1.1566,1.1262,1.0796,0.9236,0.7835,0.6744,0.5653,0.4242,0.2515,0.0943,0.0157,-0.0,-0.0,-0.0,-0.0,-0.0,-0.0,-0.0,-0.0,-0.0,-0.0,-0.0,-0.0,-0.0,-0.0,-0.1019,-0.2469,-0.3834,-0.3802,-0.3691,-0.3411,-0.3297,-0.3297,-0.3572,-0.4138,-0.4504,-0.4492,-0.4403,-0.4419,-0.4536,-0.4751,-0.4993,-0.5139,-0.5153,0.0,-0.5266,0.0,0.0,0.0,0.0,0.0,0.0,0.0,0.0,0.0,0.0,0.0,0.0,-0.2966,-0.276,-0.2533,-0.2575,-0.224,-0.1766,-0.0463,-0.0,-0.0,-0.0,-0.0,-0.0,-0.0,-0.0,-0.0,-0.0,-0.0,0.0,0.0,-0.0,0.0101,0.0601,0.1198,0.1691,0.2241,0.3025,0.0,0.5632,0.0,0.0,0.0,0.9164,0.949,0.9642,0.9927,1.0089,1.0144,0.9971,0.9639,0.8977,0.8369,0.7732,0.0,0.701,0.6634,0.6348,0.7098,0.7849,0.8138,0.8818,0.9506,1.0473,0.9974,0.9788,1.0084,0.9984,1.0011,1.0477,1.0483,1.0172,0.9547,0.8143,0.7055,0.6278,0.4397,0.3142,0.2515,0.0786,-0.0,-0.0,-0.0,-0.0,-0.0,-0.0,-0.0,-0.0,-0.0,-0.0,-0.0,-0.0,-0.0,-0.0,-0.0,-0.0729,-0.1895,-0.4113,-0.4359,-0.4473,-0.4473,-0.4132,-0.3849,-0.3852,-0.4193,-0.4477,-0.4519,-0.4498,-0.4525,-0.4564,-0.4857,-0.5145,-0.5349,-0.5516,-0.5686,0.0,-0.6125,0.0,0.0,0.0,0.0,0.0,0.0,0.0,0.0,0.0,0.0,-0.1795,-0.1483,-0.1268,-0.1275,-0.1295,-0.1305,-0.1303,-0.035,-0.0,-0.0,-0.0,-0.0,-0.0,-0.0,-0.0,-0.0,-0.0,-0.0,0.0,0.0,-0.0,0.0099,0.0796,0.1298,0.17,0.1971,0.2813,0.4136,0.6103,0.0,0.0,0.9195,0.9523,0.9861,1.0012,1.0164,1.0164,1.0012,0.9647,0.9104,0.8183,0.7409,0.6753,0.621,0.5385,0.4681,0.439,0.5265,0.6133,0.6402,0.6603,0.7414,0.8703,0.8619,0.8562,0.8555,0.8279,0.8462,0.8805,0.8966,0.8824,0.838,0.712,0.6178,0.5708,0.3491,0.2222,0.1745,0.0633,-0.0,-0.0,-0.0,-0.0,-0.0,-0.0,-0.0,-0.0,-0.0,-0.0,-0.0,-0.0,-0.0,-0.0,-0.0,-0.0439,-0.1459,-0.4463,-0.4519,-0.4519,-0.4519,-0.4463,-0.4463,-0.4477,-0.448,-0.4477,-0.4519,-0.4522,-0.4524,-0.4674,-0.483,-0.5104,-0.5552,-0.5649,-0.5902,-0.6452,-0.6579,0.0,0.0,0.0,0.0,0.0,0.0,0.0,0.0,0.0,0.0,-0.1795,-0.057,-0.0,-0.0,-0.0,-0.0,-0.0,-0.0,-0.0,-0.0,-0.0,-0.0,-0.0,-0.0,-0.0,-0.0,-0.0,0.0,0.0,0.0,-0.0,0.0191,0.1242,0.1549,0.0,0.1572,0.2788,0.0,0.0,0.0,0.8578,0.9556,0.9777,0.978,0.9929,0.9453,0.9048,0.9417,0.8663,0.7753,0.7083,0.6545,0.5849,0.4888,0.3415,0.2673,0.3413,0.3561,0.3839,0.4664,0.4808,0.4982,0.0,0.6683,0.7086,0.6316,0.5604,0.5825,0.7642,0.6852,0.6569,0.6971,0.5843,0.5037,0.5041,0.3415,0.1626,-0.0,-0.0,-0.0,-0.0,-0.0,-0.0,-0.0,-0.0,-0.0,-0.0,-0.0,-0.0,-0.0,-0.0,-0.0,-0.0,-0.0,-0.0442,-0.1312,-0.4519,-0.4519,-0.4519,-0.4519,-0.4519,-0.4519,-0.4522,-0.4522,-0.4522,-0.4519,-0.4664,0.0,0.0,0.0,0.0,0.0,-0.5731,-0.6007,-0.6381,-0.6685,0.0,0.0,0.0,0.0,0.0,0.0,0.0,0.0,0.0,0.0,-0.1234,-0.0342,-0.0,-0.0,-0.0,-0.0,-0.0,-0.0,-0.0,-0.0,-0.0,-0.0,-0.0,-0.0,-0.0,-0.0,0.0,0.0,0.0,0.0,-0.0,0.0,0.038,0.0,0.0,0.1232,0.0,0.3798,0.0,0.0,0.7536,0.8446,0.8739,0.8765,0.8755,0.8584,0.8272,0.7703,0.7226,0.6593,0.6092,0.5149,0.4615,0.464,0.2941,0.1486,0.1189,0.1634,0.2076,0.2362,0.3224,0.0,0.0,0.0,0.0,0.5394,0.4711,0.4452,0.5108,0.5953,0.6154,0.5691,0.5368,0.5046,0.5051,0.3257,0.1628,-0.0,-0.0,-0.0,-0.0,-0.0,-0.0,-0.0,-0.0,-0.0,-0.0,-0.0,-0.0,-0.0,-0.0,-0.0,-0.0,-0.0,-0.015,-0.059,-0.4519,-0.4519,-0.4519,-0.4519,-0.4519,0.0,0.0,0.0,0.0,0.0,0.0,0.0,0.0,0.0,0.0,0.0,0.0,-0.5983,-0.6244,0.0,0.0,0.0,0.0,0.0,0.0,0.0,0.0,0.0,0.0,0.0,-0.1432,-0.1114,-0.0674,-0.0339,-0.0343,-0.023,-0.0229,-0.034,-0.0338,-0.0335,-0.0547,-0.0538,-0.053,-0.0512,-0.0499,0.0,0.0,0.0,0.0,0.0,0.0,0.0,0.0,0.0,0.0,0.096,0.1889,0.3101,0.0,0.5768,0.671,0.7611,0.7729,0.7693,0.7495,0.7432,0.7213,0.6535,0.5897,0.552,0.5112,0.4614,0.4106,0.3862,0.2048,0.0596,-0.0,0.0451,0.0752,0.0748,0.2377,0.3254,0.0,0.0,0.0,0.3677,0.2832,0.2562,0.2894,0.4065,0.4593,0.4283,0.4284,0.4286,0.4124,0.2472,0.0987,-0.0,-0.0,-0.0,-0.0,-0.0,-0.0,-0.0,-0.0,-0.0,-0.0,-0.0,-0.0,-0.0,-0.0,-0.0,-0.0,-0.0,-0.0,-0.015,-0.4519,-0.4519,-0.4519,0.0,0.0,0.0,0.0,0.0,0.0,0.0,0.0,0.0,0.0,0.0,0.0,0.0,0.0,0.0,-0.62,0.0,0.0,0.0,0.0,-0.6836,-0.6614,-0.5854,-0.5164,0.0,0.0,0.0,-0.255,-0.255,-0.1929,-0.0871,-0.0871,-0.0871,-0.0871,-0.0871,-0.0863,-0.0957,-0.1486,-0.1664,-0.1513,-0.1508,0.0,0.0,0.0,0.0,0.0,0.0,0.0,0.0,0.0,0.0,0.0,0.0,0.0,0.2374,0.4285,0.5224,0.5919,0.697,0.6777,0.6307,0.6303,0.5908,0.5642,0.5637,0.4964,0.4293,0.0,0.0,0.4016,0.2416,0.1022,-0.0,-0.0,-0.0,-0.0,0.0,0.0,0.0,0.0,0.0,0.0,0.1368,0.0,0.0322,0.1138,0.1152,0.1665,0.2524,0.2526,0.2527,0.2527,0.0842,-0.0,-0.0,-0.0,-0.0,-0.0,-0.0,-0.0,-0.0,-0.0,-0.0,-0.0,-0.0,-0.0,-0.0,-0.0,-0.0,-0.0,-0.0,-0.0,-0.0,0.0,0.0,0.0,0.0,0.0,0.0,0.0,0.0,0.0,0.0,0.0,0.0,0.0,0.0,0.0,0.0,0.0,0.0,0.0,0.0,0.0,0.0,0.0,0.0,-0.6397,-0.5975,0.0,0.0,0.0,0.0,-0.378,-0.2966,-0.2359,0.0,-0.1856,-0.1857,-0.1857,-0.2268,-0.2468,-0.2454,0.0,-0.2891,-0.3154,0.0,0.0,0.0,0.0,0.0,0.0,0.0,0.0,0.0,0.0,0.0,-0.0,0.0,0.0,0.2088,0.2657,0.3627,0.4754,0.5606,0.5772,0.5503,0.491,0.4767,0.4345,0.3351,0.2951,0.2814,0.2786,0.0,0.0,0.0817,0.0285,0.0,-0.0,-0.0,0.0,0.0,0.0,0.0921,0.1228,0.1878,0.0,0.0,0.0802,0.0163,0.0329,0.0333,0.0504,0.0673,0.0674,0.0674,0.0674,0.0168,-0.0,-0.0,-0.0,-0.0,-0.0,-0.0,-0.0,-0.0,-0.0,-0.0,-0.0,-0.0,-0.0,-0.0,-0.0,-0.0,-0.0,-0.0,-0.0,-0.0,0.0,0.0,0.0,0.0,0.0,0.0,0.0,0.0,0.0,0.0,0.0,0.0,0.0,0.0,0.0,0.0,0.0,0.0,0.0,0.0,0.0,0.0,0.0,0.0,0.0,0.0,0.0,0.0,0.0,0.0,0.0,-0.3564,-0.2879,-0.2305,-0.2326,-0.2337,-0.224,0.0,0.0,0.0,0.0,0.0,0.0,0.0,0.0,0.0,0.0,0.0,0.0,0.0,0.0,-0.0,-0.0,-0.0,-0.0,-0.0,0.0,0.1139,0.1424,0.2105,0.2931,0.3763,0.4021,0.3855,0.3537,0.3378,0.3202,0.2346,0.1715,0.0,0.0,0.0,0.0,0.0,0.0,0.0,-0.0,-0.0,-0.0,0.0,-0.0,0.0,0.0631,0.1119,0.1292,0.0,0.049,-0.0,-0.0,-0.0,-0.0,-0.0,-0.0,-0.0,-0.0,-0.0,-0.0,-0.0,-0.0,-0.0,-0.0,-0.0,-0.0,-0.0,0.0,-0.0,-0.0,-0.0,-0.0,-0.0,-0.0,-0.0,-0.0,-0.0,-0.0,-0.0,0.0,0.0,0.0,0.0,0.0,0.0,0.0,0.0,0.0,0.0,0.0,0.0,0.0,0.0,0.0,0.0,0.0,0.0,0.0,0.0,0.0,0.0,0.0,0.0,0.0,0.0,0.0,0.0,0.0,0.0,0.0,0.0,0.0,0.0,0.0,0.0,0.0,0.0,0.0,0.0,0.0,0.0,0.0,0.0,0.0,0.0,0.0,0.0,0.0,0.0,-0.1058,-0.0,-0.0,-0.0,-0.0,-0.0,-0.0,0.013,0.0658,0.0934,0.1077,0.175,0.1865,0.1969,0.1937,0.1906,0.186,0.1892,0.0,0.0,-0.0,0.0,-0.0,-0.0,0.0,-0.0,-0.0,-0.0,-0.0,-0.0,-0.0,-0.0,-0.0,-0.0,-0.0,-0.0,-0.0,-0.0,-0.0,-0.0,-0.0,-0.0,-0.0,-0.0,-0.0,-0.0,-0.0,-0.0,-0.0,-0.0,-0.0,-0.0,-0.0,-0.0,-0.0,0.0,-0.0,-0.0,-0.0,-0.0,-0.0,-0.0,-0.0,-0.0,-0.0,-0.0,0.0,0.0,0.0,0.0,0.0,0.0,0.0,-0.4503,-0.4255,-0.367,-0.4141,0.0,0.0,0.0,0.0,0.0,0.0,0.0,0.0,0.0,0.0,0.0,0.0,0.0,0.0,0.0,0.0,0.0,0.0,0.0,0.0,0.0,0.0,0.0,0.0,0.0,0.0,0.0,0.0,0.0,0.0,0.0,0.0,0.0,0.0,0.0,0.0,0.0,0.0,0.0,-0.1733,-0.0,-0.0,-0.0,-0.0,-0.0,-0.0,-0.0,0.0134,0.0134,0.0269,0.0404,0.0399,0.0393,0.0383,0.0372,0.0,0.0,0.0,-0.0,-0.0,-0.0,0.0,-0.0,0.0,0.0,0.0,0.0,-0.0,0.0,0.0,0.0,0.0,0.0,0.0,0.0,0.0,-0.0,-0.0,-0.0,-0.0,-0.0,-0.0,-0.0,-0.0,-0.0,-0.0,-0.0,-0.0,-0.0,-0.0,-0.0,-0.0,-0.0,-0.0,0.0,-0.0,-0.0,-0.0,-0.0,-0.0,-0.0,-0.0,-0.0,-0.0,-0.0,0.0,0.0,0.0,0.0,0.0,0.0,0.0,-0.4466,-0.3951,-0.281,-0.2963,-0.3479,-0.4167,-0.4292,-0.4359,0.0,0.0,0.0,0.0,0.0,0.0,0.0,0.0,0.0,0.0,0.0,0.0,0.0,0.0,0.0,0.0,0.0,0.0,0.0,0.0,0.0,0.0,0.0,0.0,0.0,0.0,0.0,0.0,0.0,0.0,0.0,0.0,0.0,0.0,0.0,-0.3347,-0.2037,-0.0839,-0.0493,-0.0503,-0.013,-0.0,-0.0,-0.0,-0.0,-0.0,-0.0,-0.0,-0.0,-0.0,0.0,0.0,0.0,0.0,-0.0,-0.0,0.0,0.0,0.0,0.0,0.0,0.0,0.0,0.0,0.0,0.0,0.0,0.0,0.0,0.0,0.0,0.0,-0.0,-0.0,-0.0,-0.0,-0.0,-0.0,-0.0,-0.0,-0.0,-0.0,-0.0,-0.0,-0.0,-0.0,-0.0,-0.0,-0.0,-0.0,0.0,-0.0,-0.0,-0.0,-0.0,-0.0,-0.0,-0.0,-0.0,-0.0,-0.0,0.0,0.0,0.0,0.0,0.0,0.0,0.0,-0.4466,-0.3832,-0.2429,-0.2118,-0.2293,-0.3158,-0.3466,-0.3648,0.0,0.0,0.0,0.0,0.0,0.0,0.0,0.0,0.0,0.0,0.0,0.0,0.0,0.0,0.0,0.0,0.0,0.0,0.0,0.0,0.0,0.0,0.0,0.0,0.0,0.0,0.0,0.0,0.0,0.0,0.0,0.0,0.0,0.0,0.0,-0.497,-0.4218,-0.2436,-0.1697,-0.1262,-0.0648,-0.0262,-0.0,-0.0,-0.0,-0.0,-0.0,-0.0,-0.0,-0.0,-0.0,0.0,0.0,0.0,-0.0,-0.0,0.0,0.0,0.0,0.0,0.0,0.0,0.0,0.0,0.0,0.0,0.0,0.0,0.0,0.0,0.0,0.0,0.0,-0.0,-0.0,-0.0,-0.0,-0.0,-0.0,-0.0,-0.0,-0.0,-0.0,-0.0,-0.0,-0.0,-0.0,-0.0,-0.0,-0.0,0.0,0.0,-0.0,-0.0,-0.0,-0.0,-0.0,-0.0,-0.0,-0.0,-0.0,0.0,0.0,0.0,0.0,0.0,0.0,0.0,-0.4727,-0.3864,-0.264,-0.186,-0.1382,-0.1375,-0.198,-0.2622,0.0,0.0,0.0,0.0,0.0,0.0,0.0,0.0,0.0,0.0,0.0,0.0,0.0,0.0,0.0,0.0,0.0,0.0,0.0,0.0,0.0,0.0,0.0,0.0,0.0,0.0,0.0,0.0,0.0,0.0,0.0,0.0,0.0,0.0,0.0,0.0,-0.5654,-0.4706,-0.368,-0.2729,-0.2017,0.0,0.0,-0.0,-0.0,-0.0,-0.0,-0.0,-0.0,-0.0,0.0,0.0,0.0,-0.0,-0.0,-0.0,-0.0,0.0,0.0,0.0,0.0,0.0,0.0,0.0,0.0,0.0,0.0,0.0,0.0,0.0,0.0,0.0,0.0,-0.0,-0.0,-0.0,-0.0,-0.0,-0.0,-0.0,-0.0,-0.0,-0.0,-0.0,-0.0,-0.0,-0.0,-0.0,-0.0,-0.0,0.0,0.0,-0.0,-0.0,-0.0,-0.0,-0.0,-0.0,-0.0,-0.0,-0.0,0.0,0.0,0.0,0.0,0.0,0.0,-0.529,-0.4078,-0.2911,-0.2578,-0.1816,-0.118,-0.0857,-0.143,-0.1916,-0.2211,0.0,0.0,0.0,0.0,0.0,0.0,0.0,0.0,0.0,0.0,0.0,0.0,0.0,0.0,0.0,0.0,0.0,0.0,0.0,0.0,0.0,0.0,0.0,0.0,0.0,0.0,0.0,0.0,0.0,0.0,0.0,0.0,0.0,0.0,0.0,0.0,-0.5954,-0.5224,0.0,0.0,-0.1993,-0.102,-0.0262,-0.0,-0.0,-0.0,-0.0,-0.0,-0.0,0.0,0.0,-0.0,-0.0,-0.0,-0.0,-0.0,-0.0,-0.0,-0.0,0.0,0.0,0.0,0.0,0.0,0.0,0.0,0.0,0.0,0.0,0.0,0.0,0.0,-0.0,-0.0,-0.0,-0.0,-0.0,-0.0,-0.0,-0.0,-0.0,-0.0,-0.0,-0.0,-0.0,-0.0,-0.0,-0.0,-0.0,0.0,0.0,-0.0,-0.0,-0.0,-0.0,-0.0,-0.0,-0.0,-0.0,-0.0,0.0,0.0,0.0,0.0,0.0,-0.4549,-0.4603,-0.3211,-0.2225,-0.2414,-0.1522,-0.0813,-0.064,-0.0931,-0.1145,-0.1264,-0.1779,0.0,0.0,0.0,0.0,0.0,0.0,0.0,0.0,0.0,0.0,0.0,0.0,0.0,0.0,0.0,0.0,0.0,0.0,0.0,0.0,0.0,0.0,0.0,0.0,0.0,0.0,0.0,0.0,0.0,0.0,0.0,0.0,0.0,0.0,0.0,0.0,0.0,0.0,0.0,-0.3218,-0.2332,-0.1151,-0.0648,-0.0519,-0.0384,-0.025,-0.0241,0.0,0.0,-0.0211,-0.0204,-0.0202,-0.0202,-0.0202,-0.0204,-0.0209,-0.0,-0.0,-0.0,-0.0,0.0,0.0,0.0,0.0,0.0,0.0,0.0,0.0,0.0,0.0,0.0,0.0,-0.0,-0.0,-0.0,-0.0,-0.0,-0.0,-0.0,-0.0,-0.0,-0.0,-0.0,-0.0,-0.0,-0.0,-0.0,-0.0,0.0,0.0,-0.0,-0.0,-0.0,-0.0,-0.0,-0.0,-0.0,-0.0,-0.0,0.0,0.0,0.0,0.0,0.0,0.0,-0.2924,-0.2403,-0.221,-0.222,-0.0917,-0.0146,-0.0583,-0.0285,-0.0141,-0.0492,-0.0548,0.0,0.0,0.0,0.0,0.0,0.0,0.0,0.0,0.0,0.0,0.0,0.0,0.0,0.0,0.0,0.0,0.0,0.0,0.0,0.0,0.0,0.0,0.0,0.0,0.0,-0.7139,0.0,0.0,0.0,0.0,0.0,0.0,0.0,0.0,0.0,0.0,0.0,0.0,0.0,-0.4417,-0.3554,-0.2814,-0.2246,-0.1761,-0.1114,-0.0854,-0.0831,0.0,-0.0756,-0.0739,-0.0814,-0.0808,-0.0808,-0.0808,-0.0808,-0.0614,-0.0106,-0.0,-0.0,0.0,0.0,0.0,0.0,0.0,0.0,0.0,0.0,0.0,0.0,0.0,0.0,0.0,-0.0,-0.0,-0.0,-0.0,-0.0,-0.0,-0.0,-0.0,-0.0,-0.0,-0.0,-0.0,-0.0,-0.0,0.0,0.0,0.0,0.0,-0.0,-0.0,-0.0,-0.0,-0.0,-0.0,-0.0,-0.0,-0.0,0.0,0.0,0.0,0.0,0.0,0.0,0.0,-0.2885,-0.2347,-0.1769,-0.1133,-0.0617,-0.0202,-0.0069,-0.007,-0.0137,-0.0136,0.0,0.0,0.0,0.0,0.0,0.0,0.0,0.0,0.0,-0.0401,-0.0417,-0.0167,0.0,0.0,0.0,0.0,0.0,0.0,0.0,0.0,0.0,0.0,0.0,0.0,-0.6881,-0.7129,0.0,0.0,0.0,0.0,0.0,0.0,0.0,0.0,0.0,0.0,0.0,0.0,-0.6198,-0.5375,0.0,-0.383,-0.3447,-0.3236,-0.3305,-0.2694,-0.184,-0.1523,-0.1379,-0.1353,-0.132,-0.1314,-0.1314,-0.1314,-0.1314,-0.133,-0.1167,-0.0439,0.0,0.0,0.0,0.0,0.0,0.0,0.0,0.0,0.0,0.0,0.0,0.0,0.0,0.0,-0.0,-0.0,-0.0,-0.0,-0.0,-0.0,-0.0,-0.0,-0.0,-0.0,-0.0,-0.0,-0.0,-0.0,0.0,0.0,0.0,0.0,-0.0,-0.0,-0.0,-0.0,-0.0,-0.0,-0.0,-0.0,-0.0,0.0,0.0,0.0,0.0,0.0,0.0,0.0,-0.3374,-0.2777,-0.2054,-0.158,-0.1039,-0.0452,-0.02,-0.0,-0.0,-0.027,0.0,0.0,0.0,0.0,0.0,0.0,0.0,0.0,-0.0156,-0.0,-0.0,-0.0,-0.0,-0.0,-0.0352,0.0,0.0,0.0,0.0,0.0,0.0,0.0,0.0,-0.6763,-0.6936,-0.7051,0.0,0.0,0.0,0.0,0.0,0.0,0.0,0.0,0.0,0.0,0.0,0.0,0.0,-0.6153,-0.5576,0.0,-0.4698,-0.4523,-0.4592,-0.3815,-0.3003,-0.2324,-0.1968,-0.1739,-0.1606,-0.16,-0.1603,-0.1615,-0.1626,-0.165,-0.1593,-0.0883,0.0,0.0,0.0,0.0,0.0,0.0,0.0,0.0,0.0,0.0,0.0,0.0,0.0,0.0,-0.0,-0.0,-0.0,-0.0,-0.0,-0.0,-0.0,-0.0,-0.0,-0.0,-0.0,-0.0,-0.0,-0.0,0.0,0.0,0.0,0.0,-0.0,-0.0,-0.0,-0.0,-0.0,-0.0,-0.0,-0.0,-0.0,0.0,0.0,0.0,0.0,0.0,0.0,0.0,-0.3783,-0.3392,-0.2815,-0.2108,-0.1551,-0.1149,-0.0515,-0.0065,-0.0,0.0,0.0,0.0,0.0,0.0,0.0,0.0,0.0,0.0,-0.0543,-0.008,-0.0084,-0.0084,-0.0086,-0.009,-0.0899,-0.1334,0.0,0.0,0.0,0.0,0.0,0.0,0.0,-0.6907,-0.7031,0.0,0.0,0.0,0.0,0.0,0.0,0.0,0.0,0.0,0.0,0.0,0.0,0.0,0.0,0.0,0.0,0.0,-0.5827,-0.5611,-0.4972,-0.4609,-0.4072,-0.3058,-0.2416,0.0,-0.1672,-0.157,-0.158,-0.1609,-0.164,-0.1673,-0.1599,0.0,0.0,0.0,0.0,0.0,0.0,0.0,0.0,0.0,0.0,0.0,0.0,0.0,0.0,0.0,-0.0,-0.0,-0.0,-0.0,-0.0,-0.0,-0.0,-0.0,-0.0,-0.0,-0.0,-0.0,-0.0,-0.0,0.0,0.0,0.0,0.0,-0.0,-0.0,-0.0,-0.0,-0.0,-0.0,-0.0,-0.0,-0.0,0.0,0.0,0.0,0.0,0.0,0.0,0.0,0.0,0.0,0.0,-0.2677,-0.2203,-0.15,-0.1065,-0.0646,0.0,0.0,0.0,0.0,0.0,0.0,0.0,0.0,0.0,0.0,-0.1241,-0.1045,-0.1093,-0.0673,-0.0517,-0.0538,-0.0718,-0.1074,-0.1423,-0.2055,0.0,0.0,0.0,0.0,0.0,-0.6729,-0.6783,0.0,0.0,0.0,0.0,-0.6403,-0.6434,0.0,0.0,0.0,0.0,0.0,0.0,0.0,0.0,-0.6516,-0.6436,-0.6183,0.0,-0.5994,-0.5214,-0.4764,-0.4187,0.0,-0.2736,0.0,0.0,0.0,-0.1574,-0.1581,-0.1626,-0.1575,0.0,0.0,0.0,0.0,0.0,0.0,0.0,0.0,0.0,0.0,0.0,0.0,0.0,0.0,0.0,0.0,-0.0,-0.0,-0.0,-0.0,-0.0,-0.0,-0.0,-0.0,-0.0,-0.0,-0.0,-0.0,-0.0,-0.0,0.0,0.0,0.0,-0.0,-0.0,-0.0,-0.0,-0.0,-0.0,-0.0,-0.0,-0.0,-0.0,0.0,0.0,0.0,0.0,0.0,0.0,0.0,0.0,0.0,0.0,0.0,-0.2772,-0.211,-0.1717,0.0,0.0,0.0,0.0,0.0,0.0,0.0,0.0,0.0,0.0,-0.2232,-0.1982,-0.1987,-0.2355,-0.2104,-0.1893,-0.1703,-0.1703,-0.1972,-0.2506,-0.3172,-0.4012,0.0,0.0,0.0,-0.6485,-0.6637,0.0,0.0,0.0,0.0,0.0,-0.6288,-0.6312,0.0,-0.6376,-0.643,-0.6485,0.0,0.0,0.0,0.0,-0.6401,-0.6217,-0.6027,-0.6051,-0.5929,-0.5207,-0.461,-0.4062,-0.3403,0.0,0.0,0.0,0.0,0.0,-0.1204,0.0,0.0,0.0,0.0,0.0,0.0,0.0,0.0,0.0,0.0,0.0,0.0,0.0,0.0,0.0,0.0,0.0,0.0,-0.0,-0.0,-0.0,-0.0,-0.0,-0.0,-0.0,-0.0,-0.0,-0.0,-0.0,-0.0,-0.0,-0.0,0.0,0.0,0.0,-0.0,-0.0,-0.0,-0.0,-0.0,-0.0,-0.0,-0.0,-0.0,-0.0,0.0,0.0,0.0,0.0,0.0,0.0,0.0,0.0,0.0,0.0,0.0,0.0,0.0,0.0,0.0,0.0,0.0,0.0,0.0,0.0,0.0,0.0,0.0,-0.2905,-0.3054,-0.2835,-0.3057,-0.3617,-0.3619,-0.3442,-0.3135,-0.3045,-0.3304,-0.3901,-0.444,-0.4826,0.0,0.0,0.0,-0.6451,-0.658,0.0,0.0,0.0,0.0,0.0,0.0,0.0,0.0,-0.6227,-0.624,-0.6338,-0.6338,0.0,0.0,0.0,0.0,0.0,-0.5664,-0.5529,-0.5399,-0.4987,-0.4346,-0.371,0.0,0.0,0.0,0.0,0.0,0.0,0.0,0.0,0.0,0.0,0.0,0.0,0.0,0.0,0.0,0.0,0.0,0.0,0.0,0.0,0.0,0.0,0.0,0.0,-0.0,-0.0,-0.0,-0.0,-0.0,-0.0,-0.0,-0.0,-0.0,-0.0,-0.0,-0.0,-0.0,-0.0,-0.0,-0.0,0.0,0.0,-0.0,-0.0,-0.0,-0.0,-0.0,-0.0,-0.0,-0.0,-0.0,-0.0,0.0,0.0,0.0,0.0,0.0,0.0,0.0,0.0,0.0,0.0,0.0,0.0,0.0,0.0,0.0,0.0,0.0,0.0,0.0,0.0,0.0,0.0,-0.3792,-0.3752,-0.4065,-0.3948,-0.4144,-0.4527,-0.411,-0.3949,-0.4119,-0.3671,-0.3776,-0.4238,-0.488,-0.5317,-0.5559,-0.5808,-0.6132,-0.6295,0.0,0.0,0.0,0.0,0.0,0.0,0.0,0.0,0.0,-0.6064,-0.6152,-0.6338,-0.6338,0.0,0.0,0.0,0.0,0.0,-0.5391,-0.4784,-0.4421,-0.4884,-0.4351,-0.3531,0.0,0.0,0.0,0.0,0.0,0.0,0.0,0.0,0.0,0.0,0.0,0.0,0.0,0.0,0.0,0.0,0.0,0.0,0.0,0.0,0.0,0.0,0.0,0.0,-0.0,-0.0,-0.0,-0.0,-0.0,-0.0,-0.0,-0.0,-0.0,-0.0,-0.0,-0.0,-0.0,-0.0,-0.0,-0.0,0.0,-0.0,-0.0,-0.0,-0.0,-0.0,-0.0,-0.0,-0.0,-0.0,-0.0,-0.0,0.0,0.0,0.0,0.0,0.0,0.0,0.0,0.0,0.0,0.0,0.0,0.0,0.0,0.0,0.0,0.0,0.0,0.0,0.0,0.0,0.0,-0.4659,-0.4648,-0.4596,-0.4648,-0.4678,-0.4831,-0.5113,-0.4922,-0.4947,-0.5097,-0.4949,-0.4925,-0.5111,-0.5544,-0.5737,-0.5789,-0.6022,-0.618,-0.6338,0.0,0.0,0.0,0.0,0.0,0.0,0.0,0.0,0.0,0.0,-0.6078,-0.6149,-0.6234,0.0,0.0,0.0,0.0,0.0,-0.5553,-0.4818,-0.42,-0.3951,-0.3509,-0.289,0.0,0.0,0.0,0.0,0.0,0.0,0.0,0.0,0.0,0.0,0.0,0.0,0.0,0.0,0.0,0.0,0.0,0.0,0.0,0.0,0.0,0.0,0.0,0.0,-0.1257,-0.1414,-0.11,-0.0786,-0.0628,-0.0471,-0.0,-0.0,-0.0,-0.0,-0.0,-0.0,-0.0,-0.0,-0.0,-0.0,0.0,-0.0,-0.0,-0.0,-0.0,-0.0,-0.0,-0.0,-0.0,-0.0,-0.0,-0.0,0.0,0.0,0.0,0.0,0.0,0.0,0.0,0.0,0.0,0.0,0.0,0.0,0.0,0.0,0.0,0.0,0.0,0.0,0.0,0.0,-0.4678,-0.5086,-0.5265,-0.5367,-0.5252,-0.5299,-0.5539,-0.5748,-0.5846,-0.5768,-0.5764,-0.5935,-0.589,-0.5647,-0.5959,-0.5997,-0.5941,-0.6099,-0.6257,-0.6338,0.0,0.0,0.0,0.0,0.0,0.0,0.0,0.0,0.0,0.0,0.0,0.0,0.0,0.0,0.0,-0.6338,-0.6099,-0.5846,-0.5635,-0.5114,-0.4342,-0.3394,0.0,0.0,0.0,0.0,0.0,0.0,0.0,0.0,0.0,0.0,0.0,0.0,0.0,0.0,0.0,0.0,0.0,0.0,0.0,0.0,0.0,0.0,0.0,0.0,0.0,0.0,-0.2987,-0.3143,-0.2828,-0.2199,-0.2042,-0.1412,-0.0626,-0.0156,-0.0,-0.0,-0.0,-0.0,-0.0,-0.0,-0.0,-0.0,-0.0,-0.0,-0.0,-0.0,-0.0,-0.0,-0.0,-0.0,-0.0,-0.0,-0.0,-0.0,0.0,0.0,0.0,0.0,0.0,0.0,0.0,0.0,0.0,0.0,0.0,0.0,0.0,0.0,0.0,0.0,0.0,0.0,0.0,0.0,-0.5084,-0.5296,-0.557,-0.5925,-0.622,-0.6173,-0.6394,-0.6826,-0.6573,-0.6325,-0.5901,-0.6156,-0.6017,-0.5526,-0.5755,-0.5915,-0.5941,-0.5941,-0.6099,-0.6338,-0.6338,0.0,0.0,0.0,0.0,0.0,0.0,0.0,0.0,0.0,0.0,0.0,0.0,0.0,-0.6338,-0.6338,-0.6099,-0.5846,-0.5635,-0.5373,-0.4881,-0.3863,0.0,0.0,0.0,0.0,0.0,0.0,0.0,0.0,0.0,0.0,0.0,0.0,0.0,0.0,0.0,0.0,0.0,0.0,0.0,0.0,0.0,0.0,0.0,0.0,0.0,0.0,-0.4719,-0.4873,-0.487,-0.4714,-0.4084,-0.3122,-0.216,-0.0772,-0.0,-0.0,-0.0,-0.0,-0.0,-0.0,-0.0,-0.0,-0.0,-0.0,-0.0,-0.0,-0.0,-0.0,-0.0,-0.0,-0.0,-0.0,-0.0,-0.0,0.0,0.0,0.0,0.0,0.0,0.0,0.0,0.0,0.0,0.0,0.0,0.0,0.0,0.0,0.0,0.0,0.0,0.0,0.0,0.0,-0.5193,-0.5507,-0.5654,-0.5945,-0.6331,-0.6441,-0.6617,-0.6787,-0.6619,-0.6319,-0.5886,-0.5728,-0.544,-0.51,-0.511,-0.5129,-0.5165,-0.5318,-0.5395,-0.5473,-0.5473,-0.5473,0.0,0.0,0.0,0.0,0.0,0.0,0.0,0.0,-0.5361,-0.5689,-0.5925,-0.6056,-0.6022,-0.6022,-0.5867,-0.5695,-0.5638,-0.5548,0.0,0.0,0.0,0.0,0.0,0.0,0.0,0.0,0.0,0.0,0.0,0.0,0.0,0.0,0.0,0.0,0.0,0.0,0.0,0.0,0.0,0.0,0.0,0.0,0.0,0.0,0.0,0.0,0.0,-0.4609,-0.476,-0.4757,-0.4602,-0.398,-0.2894,-0.1982,-0.0917,-0.0,-0.0,-0.0,-0.0,-0.0,-0.0,-0.0,-0.0,-0.0,-0.0,-0.0,-0.0,-0.0,-0.0,-0.0,-0.0,-0.0,-0.0,-0.0,0.0,0.0,0.0,0.0,0.0,0.0,0.0,0.0,0.0,0.0,0.0,0.0,0.0,0.0,0.0,0.0,0.0,0.0,0.0,-0.5081,-0.5247,-0.5508,-0.5657,-0.5854,-0.6112,-0.6407,-0.6607,-0.6702,-0.6548,-0.615,-0.5513,-0.5099,-0.4683,-0.4323,-0.4258,-0.4307,0.0,-0.454,-0.4693,-0.4849,-0.4849,-0.4849,0.0,0.0,0.0,0.0,0.0,0.0,0.0,0.0,-0.4981,-0.5334,-0.5695,-0.5761,-0.5736,-0.5668,-0.5535,-0.5365,-0.5407,-0.5455,-0.523,0.0,0.0,0.0,0.0,0.0,0.0,0.0,0.0,0.0,0.0,0.0,0.0,0.0,0.0,0.0,0.0,0.0,0.0,0.0,0.0,0.0,0.0,0.0,0.0,0.0,0.0,0.0,0.0,-0.424,-0.4842,-0.5143,-0.5143,-0.468,-0.3761,-0.3161,-0.1953,-0.0449,-0.015,-0.0,-0.0,-0.0,-0.0,-0.0,-0.0,-0.0,-0.0,-0.0,-0.0,-0.0,-0.0,-0.0,-0.0,-0.0,-0.0,-0.0,0.0,0.0,0.0,0.0,0.0,0.0,0.0,0.0,0.0,0.0,0.0,0.0,0.0,0.0,0.0,0.0,0.0,0.0,-0.4691,-0.4962,-0.5196,-0.5418,-0.5504,-0.5654,-0.5796,-0.6101,-0.64,-0.6698,-0.6284,-0.555,-0.4622,-0.4378,-0.3842,-0.3132,-0.3054,0.0,0.0,-0.3763,-0.3995,-0.4384,-0.4384,-0.4384,-0.4361,0.0,0.0,0.0,0.0,0.0,0.0,0.0,-0.4507,-0.4914,-0.5334,-0.5472,-0.5333,-0.5116,-0.4942,-0.4769,-0.4835,-0.4999,0.0,0.0,0.0,0.0,0.0,0.0,0.0,0.0,0.0,0.0,0.0,0.0,0.0,0.0,0.0,0.0,0.0,0.0,0.0,0.0,0.0,0.0,0.0,0.0,0.0,0.0,0.0,0.0,0.0,-0.4386,-0.5141,-0.6053,-0.6053,-0.5716,-0.4755,-0.4013,-0.2808,-0.1168,-0.0438,-0.0,-0.0,-0.0,-0.0,-0.0,-0.0,-0.0,-0.0,-0.0,-0.0,-0.0,-0.0,-0.0,-0.0,-0.0,-0.0,-0.0,0.0,0.0,0.0,0.0,0.0,0.0,0.0,0.0,0.0,0.0,0.0,0.0,0.0,0.0,0.0,0.0,0.0,0.0,-0.4861,-0.4897,-0.4999,-0.5186,-0.5345,-0.5498,-0.565,-0.584,-0.5983,-0.6134,-0.5636,-0.4938,-0.4038,-0.3661,-0.3186,-0.2666,-0.2352,0.0,0.0,0.0,-0.3374,-0.3452,-0.3452,-0.3452,-0.3433,0.0,0.0,0.0,0.0,0.0,0.0,0.0,0.0,0.0,-0.5402,-0.5322,-0.5101,-0.4716,-0.4431,-0.4204,-0.4152,0.0,0.0,0.0,0.0,0.0,0.0,0.0,0.0,0.0,0.0,0.0,0.0,0.0,0.0,0.0,0.0,0.0,0.0,0.0,0.0,0.0,0.0,0.0,0.0,0.0,0.0,0.0,0.0,0.0,0.0,-0.3242,-0.4124,-0.5012,-0.516,-0.5004,-0.4692,-0.396,-0.3076,-0.1898,-0.0584,-0.0,-0.0,-0.0,-0.0,-0.0,-0.0,-0.0,-0.0,-0.0,-0.0,-0.0,-0.0,-0.0,-0.0,-0.0,-0.0,-0.0,0.0,0.0,0.0,0.0,0.0,0.0,0.0,0.0,0.0,0.0,0.0,0.0,0.0,0.0,0.0,0.0,0.0,0.0,0.0,0.0,-0.4921,-0.5036,-0.5189,-0.5369,-0.5586,-0.5674,-0.5706,-0.5664,-0.5179,-0.4412,-0.3427,-0.3109,-0.2668,-0.1935,0.0,-0.1405,0.0,0.0,-0.2231,-0.2367,-0.2389,-0.24,-0.2389,0.0,0.0,0.0,0.0,0.0,0.0,0.0,0.0,0.0,-0.5312,-0.5137,-0.4822,-0.4357,-0.393,-0.371,-0.3753,0.0,0.0,0.0,0.0,0.0,0.0,0.0,0.0,0.0,0.0,0.0,0.0,0.0,0.0,0.0,0.0,0.0,0.0,0.0,0.0,0.0,0.0,0.0,0.0,0.0,0.0,0.0,0.0,0.0,0.0,-0.2331,-0.3206,-0.4226,-0.4518,-0.4665,-0.4668,-0.4231,-0.3356,-0.2336,-0.073,-0.0,-0.0,-0.0,-0.0,-0.0,-0.0,-0.0,-0.0,-0.0,-0.0,-0.0,-0.0,-0.0,-0.0146,-0.073,-0.0876,-0.0876,0.0,0.0,-0.4519,-0.4519,0.0,0.0,0.0,0.0,0.0,0.0,0.0,-0.4967,0.0,0.0,0.0,-0.5673,-0.5504,-0.5277,0.0,0.0,-0.4924,-0.4911,-0.507,-0.5284,-0.5562,-0.5569,-0.5497,-0.5283,-0.4862,-0.4063,-0.2914,-0.2685,-0.2116,-0.1141,0.0,-0.0541,0.0,0.0,-0.0819,-0.1169,-0.1196,-0.1208,-0.1204,-0.1174,0.0,0.0,0.0,0.0,0.0,0.0,0.0,0.0,-0.5056,-0.4928,-0.4522,-0.407,-0.3665,-0.3457,0.0,0.0,0.0,0.0,0.0,0.0,0.0,0.0,0.0,0.0,0.0,0.0,0.0,0.0,0.0,0.0,0.0,0.0,0.0,0.0,0.0,0.0,0.0,0.0,0.0,0.0,0.0,0.0,0.0,0.0,0.0,-0.1312,-0.2478,-0.3205,-0.3935,-0.4375,-0.4525,-0.4525,-0.3649,-0.2044,-0.073,-0.0,-0.0,-0.0,-0.0,-0.0,-0.0,-0.0,-0.0,-0.0,-0.0,-0.0,-0.0146,-0.0146,-0.0438,-0.1752,-0.2336,-0.2482,0.0,0.0,-0.4519,-0.4519,0.0,0.0,0.0,0.0,-0.4581,-0.486,-0.5187,-0.5508,-0.5614,-0.6105,0.0,-0.6218,-0.61,-0.5769,-0.5222,0.0,-0.4919,-0.4908,-0.5172,-0.5345,-0.541,-0.541,-0.5339,-0.5135,-0.4585,-0.3987,0.0,0.0,0.0,-0.0701,0.0,-0.0152,0.0,0.0,-0.022,-0.0292,-0.0293,-0.0294,-0.0366,-0.0928,-0.1556,0.0,0.0,0.0,0.0,0.0,0.0,0.0,-0.5224,-0.5074,-0.4711,-0.4297,-0.3946,-0.3687,0.0,0.0,0.0,0.0,0.0,0.0,0.0,0.0,0.0,0.0,0.0,0.0,0.0,0.0,0.0,0.0,0.0,0.0,0.0,0.0,0.0,0.0,0.0,0.0,0.0,0.0,0.0,0.0,0.0,0.0,-0.0,-0.0292,-0.0875,-0.1605,-0.1897,-0.2189,-0.2774,-0.2774,-0.2043,0.0,-0.0146,-0.0,-0.0,-0.0,-0.0,-0.0,-0.0,-0.0,-0.0,-0.0,-0.0,-0.0146,-0.1314,-0.1752,-0.1898,-0.2188,-0.3064,-0.4232,0.0,0.0,0.0,0.0,0.0,0.0,0.0,0.0,-0.4629,-0.5026,-0.5572,-0.595,-0.6213,-0.6598,0.0,0.0,-0.6376,-0.5937,-0.5332,-0.5062,-0.488,-0.4904,-0.5203,-0.5428,-0.5428,-0.5428,-0.5359,-0.5223,-0.4685,0.0,0.0,0.0,0.0,-0.054,0.0,-0.0,0.0,0.0,-0.0,-0.0,-0.0,-0.0,-0.007,-0.0553,-0.1445,-0.2467,-0.2727,0.0,0.0,0.0,0.0,0.0,0.0,0.0,-0.4916,-0.4612,-0.4442,-0.4312,0.0,0.0,0.0,0.0,0.0,0.0,0.0,0.0,0.0,0.0,0.0,0.0,0.0,0.0,0.0,0.0,0.0,0.0,0.0,0.0,0.0,0.0,0.0,0.0,0.0,0.0,0.0,0.0,0.0,-0.0,-0.0,-0.0,-0.0143,-0.0573,-0.0573,-0.086,-0.1146,-0.1146,-0.086,-0.0,-0.0,-0.0,-0.0,-0.0,-0.0,-0.0,-0.0,-0.0,-0.0,-0.0,-0.0438,-0.1314,-0.2773,-0.3503,-0.3503,-0.3646,-0.4519,-0.5396,0.0,0.0,0.0,0.0,0.0,0.0,0.0,0.0,0.0,-0.5356,-0.5959,-0.6391,-0.6707,-0.682,-0.6879,0.0,0.0,0.0,-0.5332,-0.5033,-0.4851,-0.4908,-0.5155,-0.5298,-0.5321,-0.5298,-0.5298,-0.5321,0.0,0.0,0.0,0.0,0.0,-0.0613,0.0,0.0,0.0,-0.0,-0.0,-0.0,-0.0,-0.0,-0.0,-0.0336,-0.1276,-0.2466,-0.2676,-0.3213,-0.3934,-0.4619,0.0,0.0,0.0,0.0,-0.5029,-0.4975,-0.4949,-0.492,0.0,0.0,0.0,0.0,0.0,0.0,0.0,0.0,0.0,0.0,0.0,0.0,0.0,0.0,0.0,0.0,0.0,0.0,0.0,0.0,0.0,0.0,0.0,0.0,0.0,0.0,0.0,0.0,0.0,-0.0,-0.0,-0.0,-0.0,-0.0,-0.0,-0.0,-0.0,-0.0,-0.0,-0.0,-0.0,-0.0,-0.0,-0.0,-0.0,-0.0,-0.0,-0.0,-0.0,-0.0292,-0.1313,-0.2774,-0.4087,-0.467,-0.4816,-0.5396,-0.5974,-0.6555,0.0,0.0,0.0,0.0,0.0,0.0,0.0,0.0,0.0,0.0,-0.6405,-0.6668,-0.6879,-0.6879,-0.6879,-0.6879,-0.6268,-0.5719,-0.5336,0.0,0.0,-0.4911,-0.4955,-0.5036,-0.5159,-0.504,-0.504,-0.5162,0.0,0.0,0.0,0.0,0.0,-0.1128,0.0,0.0,0.0,0.0,-0.0,-0.0,-0.0,-0.0,-0.0065,-0.0333,-0.0927,-0.1624,-0.272,-0.3427,-0.4024,-0.4785,-0.5226,0.0,0.0,0.0,0.0,-0.523,0.0,0.0,0.0,0.0,0.0,0.0,0.0,0.0,0.0,0.0,0.0,0.0,0.0,0.0,0.0,0.0,0.0,0.0,0.0,0.0,0.0,0.0,0.0,0.0,0.0,0.0,0.0,0.0,0.0,0.0,-0.0,-0.0,-0.0,-0.0,-0.0,-0.0,-0.0,-0.0,-0.0,-0.0,-0.0,-0.0,-0.0,-0.0,-0.0,-0.0,-0.0,-0.0,-0.0,-0.0,-0.0146,-0.146,-0.292,-0.4379,-0.4086,-0.4522,-0.5396,-0.597,-0.6694,-0.7566,0.0,0.0,0.0,0.0,0.0,0.0,0.0,0.0,0.0,0.0,0.0,-0.6944,-0.6879,-0.6712,-0.6549,-0.6386,-0.5887,-0.5336,-0.5014,-0.4777,0.0,0.0,-0.4874,-0.4948,-0.5009,-0.4952,-0.4948,0.0,0.0,0.0,0.0,-0.3848,-0.2821,0.0,0.0,0.0,0.0,0.0,0.0,-0.0,-0.0,-0.0,-0.0,-0.0134,-0.0601,-0.1255,-0.2008,-0.28,-0.3633,-0.4276,-0.4691,-0.496,-0.5156,0.0,0.0,0.0,0.0,0.0,0.0,0.0,0.0,0.0,0.0,0.0,0.0,0.0,0.0,0.0,0.0,0.0,0.0,0.0,0.0,0.0,0.0,0.0,0.0,0.0,0.0,0.0,0.0,0.0,0.0,0.0,0.0,0.0,-0.0,-0.0,-0.0,-0.0,-0.0,-0.0,-0.0,-0.0,-0.0,-0.0,-0.0,-0.0,-0.0,-0.0,-0.0,-0.0,-0.0,-0.0,-0.0,-0.0428,-0.1285,-0.2857,-0.3714,-0.4143,-0.4892,-0.5625,-0.6339,-0.7198,-0.8055,-0.8902,0.0,0.0,0.0,0.0,0.0,0.0,0.0,0.0,0.0,0.0,0.0,-0.7106,-0.6933,0.0,0.0,0.0,-0.5449,-0.5011,-0.4688,0.0,0.0,0.0,0.0,-0.4819,-0.486,-0.4823,0.0,0.0,0.0,0.0,-0.4659,-0.4556,-0.3659,0.0,-0.0906,0.0,0.0,0.0,0.0,-0.0,-0.0,-0.0,-0.0,-0.0,-0.0417,-0.1031,-0.1384,-0.213,0.0,0.0,0.0,0.0,0.0,0.0,0.0,0.0,0.0,0.0,0.0,0.0,0.0,0.0,0.0,0.0,0.0,0.0,0.0,0.0,0.0,0.0,0.0,0.0,0.0,0.0,0.0,0.0,0.0,0.0,0.0,0.0,0.0,0.0,0.0,0.0,0.0,0.0,-0.0,-0.0,-0.0,-0.0,-0.0,-0.0,-0.0,-0.0,-0.0,-0.0,-0.0,-0.0,-0.0,-0.0135,-0.0539,-0.0544,-0.055,-0.0556,-0.056,-0.1122,-0.2245,-0.365,-0.421,-0.435,-0.567,-0.6681,-0.7383,-0.8512,-0.9358,-1.0046,0.0,0.0,0.0,0.0,0.0,0.0,0.0,0.0,0.0,0.0,0.0,-0.7268,-0.6933,-0.6273,-0.5778,-0.5622,-0.5073,-0.4688,-0.4519,0.0,0.0,0.0,0.0,0.0,0.0,0.0,0.0,0.0,0.0,0.0,-0.509,-0.4797,-0.4329,-0.355,-0.2032,-0.0862,-0.0,0.0,0.0,-0.0,-0.0,-0.0,-0.0,-0.0,-0.0227,-0.0655,-0.1043,0.0,0.0,0.0,0.0,0.0,0.0,-0.4957,0.0,0.0,0.0,0.0,0.0,0.0,0.0,0.0,0.0,0.0,0.0,0.0,0.0,0.0,0.0,0.0,0.0,0.0,0.0,0.0,0.0,0.0,0.0,0.0,0.0,0.0,0.0,0.0,0.0,0.0,0.0,0.0,-0.0,-0.0,-0.0,-0.0,-0.0,-0.0,-0.0,-0.0,-0.0,-0.0,-0.0,-0.0,-0.0,-0.0673,-0.202,-0.2021,-0.2023,-0.2028,-0.2081,-0.2105,-0.2245,-0.3226,-0.4488,-0.5889,-0.6304,-0.7281,-0.8392,-0.9509,-1.0203,-1.0618,0.0,0.0,0.0,0.0,0.0,0.0,0.0,0.0,0.0,0.0,0.0,0.0,0.0,-0.5832,-0.534,-0.5073,-0.4739,0.0,0.0,0.0,0.0,0.0,0.0,0.0,0.0,0.0,0.0,0.0,0.0,-0.4549,-0.4574,-0.4563,-0.4256,-0.358,-0.2506,-0.1647,-0.0846,-0.0239,0.0,0.0,-0.0,-0.0,0.0,-0.0,-0.0082,-0.0328,0.0,0.0,0.0,0.0,0.0,0.0,-0.4399,-0.4751,-0.5077,-0.5186,0.0,0.0,0.0,0.0,0.0,0.0,0.0,0.0,0.0,0.0,0.0,0.0,0.0,0.0,0.0,0.0,0.0,0.0,0.0,0.0,0.0,0.0,0.0,0.0,0.0,0.0,0.0,0.0,0.0,0.0,0.0,-0.1346,-0.1346,-0.0942,-0.0673,-0.0673,-0.0269,-0.0,-0.0,-0.0,-0.0538,-0.1346,-0.1346,-0.175,-0.2289,-0.3097,-0.3768,-0.4038,-0.4622,-0.4504,-0.4095,-0.5731,-0.6681,-0.7355,-0.8239,-0.9365,-1.0327,-1.0477,-1.089,-1.1145,0.0,0.0,0.0,-0.5096,0.0,-0.5516,-0.6119,-0.6657,-0.7019,-0.7263,0.0,0.0,0.0,0.0,-0.5075,-0.4584,-0.4467,-0.4408,-0.4408,0.0,0.0,0.0,0.0,0.0,0.0,0.0,0.0,0.0,0.0,0.0,0.0,-0.4118,-0.3885,-0.3379,-0.2737,-0.2209,0.0,0.0,0.0,-0.0,0.0,0.0,-0.0,0.0,-0.0,0.0,0.0,0.0,0.0,0.0,0.0,0.0,-0.4315,-0.4821,-0.5083,-0.4987,-0.478,0.0,0.0,0.0,0.0,0.0,0.0,0.0,0.0,0.0,0.0,0.0,0.0,0.0,0.0,0.0,0.0,0.0,0.0,0.0,0.0,0.0,0.0,0.0,0.0,0.0,0.0,0.0,0.0,0.0,0.0,0.0,-0.3232,-0.2828,-0.2289,-0.1884,-0.1077,-0.0673,-0.0673,-0.0673,-0.1212,-0.2155,-0.2693,-0.2961,-0.323,-0.4307,-0.4977,-0.551,-0.6449,-0.6447,-0.5908,-0.765,-0.8576,-0.9232,-1.0394,-1.1245,-1.1929,-1.1669,-1.1538,-1.1531,-0.541,-0.5378,-0.5216,-0.4617,-0.497,-0.5494,-0.6055,-0.6455,-0.6689,-0.6734,0.0,0.0,0.0,0.0,0.0,-0.4274,-0.4203,-0.42,-0.42,-0.4196,0.0,0.0,0.0,0.0,0.0,0.0,0.0,0.0,0.0,0.0,0.0,0.0,-0.3254,-0.2987,-0.2746,-0.2512,-0.2113,0.0,-0.0416,-0.0,0.0,-0.0,-0.0,0.0,0.0,0.0,-0.065,-0.1192,0.0,-0.2401,0.0,0.0,0.0,-0.5041,-0.5177,-0.4758,-0.4488,0.0,0.0,0.0,0.0,0.0,0.0,0.0,0.0,0.0,0.0,0.0,0.0,0.0,0.0,0.0,0.0,0.0,0.0,0.0,0.0,0.0,0.0,0.0,0.0,0.0,0.0,0.0,0.0,0.0,-0.4308,-0.4711,-0.5388,-0.5389,-0.4713,-0.3228,-0.2558,-0.2289,-0.2289,-0.2289,-0.2289,-0.2289,-0.3635,-0.4575,-0.5109,-0.5515,-0.6049,-0.6443,-0.7245,-0.7643,-0.7769,-0.8825,-1.0016,-1.1347,-1.2401,-1.2804,-1.2816,-1.2816,-1.2429,-1.178,-0.537,-0.5403,-0.536,-0.5209,-0.4908,-0.4939,-0.549,-0.5655,-0.5843,0.0,0.0,0.0,-0.5385,-0.4813,-0.4354,-0.4142,-0.4051,-0.3995,-0.4053,-0.3848,-0.3685,-0.3522,-0.3465,-0.3404,-0.3346,0.0,0.0,0.0,0.0,0.0,0.0,0.0,0.0,0.0,-0.1852,-0.1977,-0.2361,-0.1541,0.0,0.0,-0.0,-0.0,0.0,0.0,0.0,0.0,0.0,-0.2711,-0.2681,0.0,-0.4105,-0.4443,0.0,0.0,-0.4564,-0.4123,-0.3689,-0.3372,-0.2953,0.0,0.0,0.0,0.0,0.0,0.0,0.0,0.0,0.0,0.0,0.0,0.0,0.0,0.0,0.0,0.0,0.0,0.0,0.0,0.0,0.0,0.0,0.0,0.0,0.0,0.0,0.0,-0.5243,-0.5646,-0.6048,-0.618,-0.551,-0.4033,-0.3764,-0.4035,-0.4445,-0.458,-0.4578,-0.471,-0.5114,-0.5513,-0.6044,-0.6449,-0.7118,-0.8051,-0.8978,-0.9908,-1.0707,-1.1226,-1.2146,-1.321,-1.4002,-1.4268,-1.4272,-1.3477,-1.2824,-1.2045,-0.5425,-0.5422,-0.5427,-0.5427,-0.5088,-0.4961,-0.528,-0.5461,-0.5609,0.0,0.0,0.0,-0.5215,-0.4563,-0.4113,-0.3963,-0.3886,-0.3803,-0.3587,-0.3457,-0.3232,-0.2968,-0.2986,-0.2938,-0.2879,0.0,0.0,0.0,0.0,0.0,0.0,0.0,0.0,0.0,-0.0859,-0.116,-0.1668,-0.147,0.0,0.0,-0.0,0.0,0.0,-0.0607,-0.1457,0.0,0.0,0.0,-0.3761,-0.4158,-0.451,0.0,0.0,-0.4344,-0.4086,-0.3613,-0.3206,0.0,-0.2675,0.0,0.0,0.0,0.0,0.0,0.0,0.0,0.0,0.0,0.0,0.0,0.0,0.0,0.0,0.0,0.0,0.0,0.0,0.0,0.0,0.0,0.0,0.0,0.0,-0.4308,-0.4841,-0.5508,-0.6178,-0.6846,-0.7247,-0.7111,-0.6708,-0.5906,-0.5772,-0.5776,-0.6321,-0.6321,-0.6319,-0.6449,-0.6583,-0.6849,-0.7381,-0.765,-0.832,-0.9256,-1.0047,-1.0979,-1.178,-1.2297,-1.3214,-1.4403,-1.5062,-1.5192,-1.48,-1.4137,-1.3223,-1.2177,0.0,-0.541,-0.541,-0.541,-0.5423,-0.5497,-0.548,-0.5706,-0.5909,0.0,-0.6204,-0.6089,-0.5346,-0.4708,-0.4222,-0.3896,-0.3843,-0.3614,-0.3115,-0.2964,-0.2741,-0.2326,-0.2404,-0.2355,-0.2168,-0.2362,-0.2265,0.0,0.0,0.0,0.0,0.0,0.0,0.0118,0.0063,-0.013,-0.0403,-0.0948,0.0,-0.0163,-0.0,-0.0,0.0,0.0,-0.2539,-0.355,-0.3225,-0.3767,-0.4621,-0.4423,-0.4547,0.0,0.0,-0.3784,-0.3643,-0.3232,-0.2879,0.0,-0.2361,-0.238,0.0,0.0,-0.0535,0.0,-0.0,-0.0097,0.0,0.0,0.0,0.0,0.0,0.0,0.0,0.0,0.0,0.0,0.0,0.0,0.0,0.0,0.0,0.0,-0.3759,-0.4973,-0.6049,-0.6577,-0.7379,-0.8051,-0.8853,-0.8448,-0.831,-0.8446,-0.8046,-0.7912,-0.7912,-0.7779,-0.7779,-0.7912,-0.8046,-0.8446,-0.8853,-0.9117,-0.9652,-1.0326,-1.0588,-1.1118,-1.178,-1.2429,-1.3481,-1.4796,-1.5448,-1.5318,-1.467,-1.4403,-1.3354,-1.2177,-0.5711,-0.5496,-0.5422,-0.5422,-0.5817,-0.6158,-0.61,-0.6375,-0.6432,-0.6257,-0.6023,-0.5827,-0.541,-0.5029,-0.4595,-0.4206,-0.3883,-0.3666,-0.3484,-0.2951,-0.2377,-0.1937,-0.1504,-0.1022,-0.0638,-0.0788,-0.0725,-0.0451,0.0,0.0,0.0,0.0,0.0,0.0966,0.0849,0.075,0.057,-0.0352,0.0,-0.104,-0.0272,0.0,-0.0103,-0.1391,-0.2652,-0.3855,-0.4081,-0.4344,-0.4829,-0.4797,-0.4889,-0.4948,0.0,-0.3507,-0.3049,-0.2763,-0.2202,-0.1587,-0.1507,-0.1527,-0.1365,-0.0457,0.0,0.0,-0.0,-0.0678,0.0,0.0,0.0,0.0,0.0,0.0,0.0,0.0,0.0,0.0,0.0,0.0,0.0,0.0,0.0,0.0,-0.4634,-0.5608,-0.6715,-0.7655,-0.8989,-0.9788,-1.0319,-1.0187,-1.018,-1.017,-1.017,-1.0035,-1.0025,-0.9769,-0.9775,-1.0038,-0.9643,-0.9649,-1.0319,-1.0057,-1.019,-1.0588,-1.0986,-1.1115,-1.138,-1.2041,-1.2828,-1.3608,-1.4137,-1.4006,-1.3608,-1.3214,-1.2565,-1.178,-0.6369,-0.5936,-0.5741,-0.5818,-0.6193,-0.6536,-0.6684,-0.6738,-0.6701,-0.6537,-0.6378,-0.6217,-0.6051,-0.5852,-0.5341,-0.4651,-0.4243,-0.3771,-0.3233,-0.2662,-0.205,-0.1389,-0.1088,-0.0451,0.0451,0.0729,0.0935,0.1119,0.0,0.0,0.0,0.1864,0.1665,0.1382,0.1105,0.0699,0.0324,0.0,-0.1241,-0.2084,-0.1169,0.0,-0.1029,-0.224,-0.3438,-0.4481,-0.4709,-0.4874,-0.5039,-0.492,-0.4601,0.0,-0.3225,-0.2625,-0.2174,0.0,-0.1692,-0.1218,-0.0743,-0.0653,-0.0563,-0.0094,0.0,0.0,0.0,-0.0871,-0.1567,0.0,0.0,0.0,0.0,0.0,0.0,0.0,0.0,0.0,0.0,0.0,0.0,0.0,0.0,0.0,-0.4431,-0.5635,-0.6965,-0.8799,-0.9776,-1.0605,-1.1261,-1.1593,-1.1765,-1.2022,-1.2157,-1.2285,-1.2277,-1.2153,-1.2025,-1.2022,-1.1494,-1.124,-1.1251,-1.0853,-1.0721,-1.0721,-1.085,-1.0986,-1.0982,-1.1383,-1.1644,-1.1901,-1.2688,-1.2684,-1.2022,-1.1762,-1.1237,-1.0445,-0.7118,-0.6535,-0.6211,-0.6268,-0.6531,-0.6781,-0.7038,-0.7015,-0.6925,-0.6956,-0.6959,-0.6901,-0.6799,-0.6665,-0.6079,-0.4937,-0.4538,-0.3945,-0.2938,-0.2278,-0.1639,-0.0735,-0.073,-0.0198,0.0985,0.1677,0.2097,0.2154,0.0,0.0,0.0,0.2224,0.1839,0.1427,0.0,0.0,0.0,0.0,0.0,-0.3398,0.0,-0.2373,-0.2564,-0.3521,-0.4561,-0.543,-0.5342,-0.5278,-0.5204,-0.4877,-0.4005,-0.3037,-0.2059,-0.1592,0.0,0.0,0.0,0.0,0.0,0.0,-0.0195,0.0,0.0,-0.0,0.0,0.0,0.0,-0.1445,0.0,0.0,0.0,0.0,0.0,0.0,0.0,0.0,0.0,0.0,0.0,0.0,0.0,0.0,0.0,-0.5623,-0.7424,-0.9586,-1.0358,-1.1231,-1.2298,-1.2946,-1.3561,-1.4245,-1.4516,-1.4907,-1.5038,-1.4782,-1.439,-1.3993,-1.3341,-1.2692,-1.1909,-1.138,-1.0986,-1.0721,-1.0721,-1.0721,-1.0721,-1.0721,-1.0455,-1.019,-1.1369,-1.1233,-1.0306,-1.0174,-0.9643,-0.8851,-0.7871,-0.7267,-0.6816,-0.6371,-0.6537,-0.6781,-0.7071,-0.7207,-0.7346,0.0,-0.7468,0.0,0.0,0.0,0.0,0.0,0.0,0.0,-0.3076,-0.1944,-0.0896,-0.0149,-0.0073,0.0142,0.0556,0.1323,0.1724,0.1951,0.2151,0.0,0.0,0.2705,0.2084,0.0799,0.0201,0.0,0.0,0.0,-0.3647,0.0,-0.5243,-0.5068,0.0,-0.5262,-0.6003,-0.672,-0.6058,-0.5632,-0.5247,0.0,-0.3168,-0.2093,0.0,-0.1091,-0.0434,-0.1489,0.0,0.0,0.0,0.0,0.0,0.0,-0.0416,0.0,0.0,0.0,-0.1002,-0.1474,0.0,0.0,0.0,0.0,0.0,0.0,0.0,0.0,0.0,0.0,0.0,0.0,0.0,0.0,0.0,-0.6456,-0.8563,-0.9938,-1.0955,-1.2254,-1.3828,-1.4738,-1.5972,-1.7457,-1.7859,-1.825,-1.889,-1.7625,-1.6985,-1.6586,-1.4651,-1.335,-1.2688,-1.1641,-1.0986,-1.0721,-1.0721,-1.0721,-1.0721,-1.0721,-1.0323,-0.9794,-0.9915,-0.9513,-0.8851,-0.8443,-0.8046,-0.7648,-0.8246,-0.7638,-0.7026,-0.671,-0.6659,-0.6764,-0.7037,-0.7135,-0.7306,0.0,0.0,0.0,0.0,0.0,0.0,0.0,0.0,-0.3825,0.0,0.0,-0.0817,-0.0,-0.0,0.0148,0.0514,0.1068,0.1533,0.1929,0.1912,0.2114,0.0,0.0,0.1404,0.0391,-0.0789,0.0,-0.3269,0.0,0.0,0.0,0.0,0.0,0.0,-0.7526,-0.7556,-0.7878,-0.7079,-0.6156,-0.5158,0.0,-0.2848,0.0,0.0,0.0,0.0,-0.1632,0.0,0.0,0.0,0.0,0.0,0.0,0.0,0.0,-0.0208,0.0,-0.0603,0.0,0.0,0.0,0.0,0.0,0.0,0.0,0.0,0.0,0.0,0.0,0.0,0.0,0.0,0.0,0.0,0.0,0.0,0.0,-1.1797,-1.3455,-1.539,-1.6993,-1.8393,-1.9387,-2.0061,-2.029,-2.0436,-1.9291,-1.8402,-1.7507,-1.5694,-1.4132,-1.3079,-1.2037,-1.1251,-1.0721,-1.0721,-1.0721,-1.0721,-1.0721,-1.0323,-0.9661,-0.9253,-0.8315,-0.7247,-0.7121,-0.6721,-0.6051,-0.8097,0.0,-0.7103,-0.6945,-0.6739,-0.6759,-0.7097,-0.7171,-0.7171,-0.7553,0.0,0.0,-0.6768,-0.6374,0.0,0.0,-0.4245,-0.3631,0.0,0.0,-0.0897,-0.0,-0.0,0.0158,0.039,0.0892,0.1299,0.1648,0.1778,0.1862,0.0,0.0,0.0539,-0.0345,0.0,-0.3804,-0.4926,0.0,0.0,-0.9303,-1.0309,-1.123,-1.1903,-0.9945,-0.9111,-0.8944,-0.7953,-0.6766,-0.5531,-0.4118,-0.3109,0.0,-0.2559,0.0,-0.261,0.0,0.0,0.0,-0.4179,0.0,0.0,0.0,0.0,0.0,0.0,0.0,0.0,0.0,0.0,0.0,0.0,0.0,0.0,0.0,0.0,0.0,0.0,0.0,0.0,0.0,0.0,0.0,0.0,0.0,0.0,0.0,0.0,-1.481,-1.7067,-1.907,-2.0624,-2.1334,-2.1894,-2.2069,-2.1713,-2.0436,-1.9297,-1.8156,-1.6213,-1.4651,-1.3214,-1.2305,-1.1383,-1.0721,-1.0721,-1.0721,-1.0721,-1.0721,-1.0323,-0.9794,-0.8989,-0.7784,-0.6579,-0.6187,-0.5518,-0.4849,-0.7257,-0.7022,0.0,0.0,-0.6743,-0.681,-0.729,-0.7413,-0.7419,0.0,0.0,0.0,0.0,0.0,0.0,0.0,0.0,-0.3417,-0.3195,0.0,-0.0989,-0.0,-0.0,-0.0,-0.0,0.0883,0.1239,0.1133,0.1841,0.1793,0.0,0.0,0.0,0.0,-0.4583,-0.6254,-0.6949,-0.8699,-1.0299,-1.1788,-1.2822,-1.4104,-1.4977,0.0,-1.0729,-1.0054,-0.848,0.0,0.0,-0.5084,-0.4213,0.0,0.0,0.0,0.0,0.0,0.0,0.0,0.0,0.0,0.0,-0.4576,0.0,0.0,0.0,0.0,-0.0202,0.0,0.0,0.0,0.0,-0.2782,-0.3159,-0.3116,0.0,0.0,0.0,0.0,0.0,0.0,0.0,0.0,0.0,0.0,0.0,0.0,0.0,0.0,-1.9021,-2.1053,-2.2519,-2.3331,-2.3802,-2.3728,-2.2981,-2.1335,-1.9814,-1.8407,-1.6338,-1.4651,-1.3214,-1.2305,-1.1383,-1.0721,-1.0721,-1.0721,-1.0721,-1.0721,-1.0455,-1.006,-0.8989,-0.792,-0.6851,-0.5376,-0.4574,-0.4307,0.0,0.0,0.0,0.0,0.0,-0.6506,-0.678,-0.6597,-0.6318,0.0,0.0,0.0,0.0,-0.4598,-0.4167,0.0,0.0,-0.2477,-0.2286,-0.186,0.0,-0.0,-0.0,-0.0,-0.0,0.026,0.0578,0.0795,0.0687,0.0516,0.0,0.0,0.0,0.0,0.0,-0.7429,0.0,0.0,0.0,0.0,0.0,-1.6504,-1.6269,0.0,-1.2885,-1.174,-1.0532,-0.9198,0.0,-0.7094,-0.6306,-0.5885,-0.6098,-0.6044,-0.6109,-0.6109,-0.6345,-0.6579,0.0,0.0,-0.5478,-0.5127,0.0,0.0,0.0,0.0,0.0,0.0,0.0,-0.2672,-0.3595,-0.4004,-0.4319,-0.464,-0.5028,0.0,0.0,0.0,0.0,0.0,0.0,0.0,0.0,0.0,0.0,0.0,-1.537,0.0,0.0,-2.1489,-2.2572,-2.2871,-2.2845,-2.21,-2.0763,-1.8982,-1.7451,-1.6043,-1.4232,-1.2804,-1.189,-1.1376,-1.0853,-1.0323,-1.0588,-1.0721,-1.0721,-1.0721,-1.0455,-1.019,-0.9519,-0.872,-0.7522,-0.524,-0.4034,-0.3363,-0.5529,0.0,0.0,0.0,0.0,0.0,0.0,0.0,0.0,0.0,-0.5096,0.0,-0.4276,0.0,-0.3042,0.0,-0.2384,-0.1733,-0.1201,-0.1165,0.0,-0.0,-0.0,-0.0,-0.0,-0.0,0.0089,0.0427,-0.0245,-0.063,0.0,0.0,0.0,0.0,0.0,0.0,0.0,0.0,-1.5315,0.0,0.0,-1.8287,0.0,0.0,-1.4847,-1.3062,0.0,-1.0568,-0.9038,-0.8547,-0.791,-0.7513,-0.7388,-0.7337,-0.7278,-0.7402,-0.7645,-0.7769,-0.8007,-0.7493,0.0,-0.6217,-0.4902,0.0,-0.2023,0.0,-0.2472,0.0,0.0,-0.4073,-0.4872,-0.5275,-0.5773,-0.6418,-0.6792,-0.7146,0.0,-0.7629,0.0,0.0,0.0,0.0,0.0,0.0,-1.1576,-1.3797,0.0,0.0,0.0,0.0,-2.1271,-2.0935,-2.0598,-1.9431,-1.7652,-1.6116,-1.4702,-1.3413,-1.1987,-1.1083,-1.0432,-1.018,-1.0054,-1.0054,-1.0323,-1.0588,-1.0721,-1.0721,-1.0588,-1.0323,-1.005,-0.9386,-0.8454,-0.6044,-0.4435,-0.3361,0.0,0.0,0.0,0.0,-0.5686,0.0,0.0,0.0,-0.5102,0.0,-0.4558,-0.41,-0.3283,-0.2435,-0.1939,-0.1942,-0.1941,-0.1406,-0.0124,-0.0,0.0,0.0,-0.0,-0.0,-0.0,-0.0,-0.0,-0.0,-0.0891,-0.1641,-0.2109,0.0,0.0,0.0,-0.7587,0.0,-1.2625,-1.4826,-1.666,-1.8123,-1.904,-1.9098,-1.8758,-1.8415,-1.6649,-1.4162,-1.2831,-1.1622,-1.0418,-0.9551,-0.9145,-0.8872,-0.8481,-0.835,-0.8481,-0.8742,-0.8872,-0.9,-0.9631,-0.9031,-0.8032,-0.7664,-0.6028,0.0,0.0,0.0,-0.3832,0.0,0.0,-0.5948,-0.6342,-0.6827,-0.7601,-0.8453,-0.868,-0.8843,0.0,0.0,0.0,0.0,0.0,0.0,0.0,0.0,-1.2612,-1.4231,-1.584,0.0,0.0,0.0,-1.8752,-1.7976,-1.7245,-1.5975,-1.4159,-1.2992,-1.1822,-1.0524,-0.9741,-0.9224,-0.8969,-0.8978,-0.9247,-0.9649,-1.0054,-1.0455,-1.0721,-1.0721,-1.0721,-1.0721,-1.0323,-1.0054,-0.9513,-0.765,-0.591,-0.457,-0.3416,-0.4504,-0.5463,0.0,-0.4803,-0.4468,0.0,0.0,0.0,0.0,-0.3834,-0.3422,-0.247,-0.1188,-0.0533,-0.0533,-0.0528,0.0,0.0,0.0,0.0,-0.0,-0.0,-0.0,-0.0,-0.0,-0.0,-0.0,-0.0558,0.0,-0.2154,0.0,0.0,0.0,0.0,0.0,-1.2825,-1.4826,-1.6555,-1.8023,-1.8512,-1.8229,-1.7467,0.0,-1.6521,-1.5361,-1.4746,-1.3563,-1.2283,-1.142,-1.0742,-1.0276,-0.9895,-0.9764,-0.9764,-0.9895,-0.9895,-0.9895,-1.0149,-0.9357,-0.856,-0.8138,-0.6902,-0.5548,0.0,0.0,0.0,0.0,0.0,-0.7365,-0.8432,-0.9188,-0.9907,-1.0637,-1.1099,-1.1397,0.0,0.0,0.0,0.0,0.0,0.0,0.0,-1.1326,-1.2495,-1.3601,-1.4383,0.0,0.0,0.0,0.0,-1.3825,-1.2995,-1.2171,-1.108,-1.0157,-0.9235,-0.8312,-0.6836,-0.6301,-0.6575,-0.7512,-0.8315,-0.8987,-0.9788,-1.0455,-1.0721,-1.0721,-1.0721,-1.0721,-1.0588,-1.0323,-0.9921,-0.8315,-0.7245,-0.6711,-0.2508,0.0,0.0,-0.4325,0.0,0.0,-0.3474,0.0,0.0,-0.2969,-0.2906,0.0,-0.2123,-0.0804,-0.0,-0.0,-0.0,0.0,-0.0,0.0,0.0,-0.0,-0.0,-0.0,-0.0,-0.0,0.0,-0.0,-0.0292,0.0,-0.1849,0.0,0.0,0.0,0.0,-1.0139,0.0,-1.4486,-1.5829,-1.6603,-1.6985,-1.6663,0.0,-1.6068,-1.583,-1.5227,-1.4834,-1.4126,-1.3152,-1.2246,-1.1437,-1.0858,-1.0603,-1.0344,-1.0214,-1.0214,-1.0081,-0.9821,-0.9954,-0.9432,-0.8635,-0.8579,-0.7747,-0.6898,-0.6623,-0.6757,-0.7012,0.0,-0.8286,-0.9264,-1.0374,-1.1254,-1.1945,-1.247,-1.2694,-1.2802,0.0,0.0,0.0,0.0,-1.106,0.0,-0.9987,-1.1022,-1.1859,-1.2215,-1.2517,0.0,0.0,0.0,0.0,-1.074,-0.9692,-0.8808,-0.7982,-0.6825,-0.591,-0.5109,-0.4167,-0.4167,-0.4838,-0.591,-0.7114,-0.8448,-0.9253,-1.0054,-1.0721,-1.0721,-1.0721,-1.0721,-1.0721,-1.0588,-1.0323,-0.9516,-0.8715,-0.8182,0.0,0.0,0.0,0.0,0.0,0.0,0.0,-0.2442,0.0,-0.164,0.0,-0.1832,-0.188,-0.0808,-0.0,-0.0,0.0,-0.0134,-0.0265,-0.0264,-0.0263,-0.026,-0.0259,-0.0255,-0.0248,-0.024,-0.0229,-0.0214,-0.0304,-0.067,-0.1446,0.0,0.0,0.0,0.0,0.0,0.0,-1.3583,-1.4256,-1.4149,-1.4471,-1.4304,-1.3986,-1.417,-1.401,-1.3811,-1.3493,-1.3319,-1.3341,-1.2326,-1.1657,-1.1115,-1.0853,-1.0455,-1.019,-1.019,-0.9652,-0.9117,-0.9525,-0.9123,-0.8698,-0.899,-0.8568,-0.8109,-0.7872,-0.811,-0.8358,-0.8932,-1.0208,-1.1392,-1.2059,-1.2915,0.0,0.0,0.0,0.0,0.0,0.0,0.0,0.0,0.0,0.0,0.0,-1.0362,-1.0891,-1.0421,-1.0387,0.0,0.0,0.0,0.0,-0.7895,-0.6645,-0.544,-0.4746,-0.3474,-0.2422,-0.1885,-0.1885,-0.2423,-0.3498,-0.4438,-0.6044,-0.8043,-0.8715,-0.9649,-1.0721,-1.0721,-1.0721,-1.0721,-1.0721,-1.0721,-1.0721,-1.0721,-1.005,-0.925,0.0,0.0,0.0,0.0,0.0,-0.2306,-0.3643,-0.2808,-0.1618,-0.052,-0.0393,-0.0397,-0.0403,-0.0135,-0.0,-0.0,-0.0,0.0,0.0,0.0,0.0,-0.1872,-0.1851,-0.1814,-0.1635,-0.1585,-0.1396,-0.1306,-0.1653,-0.1969,-0.2263,0.0,0.0,0.0,0.0,0.0,-1.085,-1.1779,0.0,-1.0262,-1.0583,-1.0415,-0.99,-0.9926,-1.0015,-1.0131,-1.0038,-1.1353,-1.2955,-1.2076,-1.149,-1.1115,-1.0853,-1.0455,-1.019,-0.9918,-0.9516,-0.9117,-0.925,-0.8853,-0.8717,-0.9365,-0.9091,-0.8626,-0.8893,-0.9194,-0.9603,-1.0318,-1.1439,-1.2662,-1.336,0.0,0.0,0.0,0.0,0.0,0.0,0.0,0.0,0.0,0.0,-0.9681,0.0,-0.9125,-0.9216,-0.8943,0.0,0.0,0.0,0.0,0.0,0.0,-0.2221,0.0,0.0,0.0,-0.0538,-0.0404,-0.0404,-0.1077,-0.2424,-0.3765,-0.564,-0.7648,-0.8715,-0.9649,-1.0721,-1.0721,-1.0721,-1.0721,-1.0721,-1.0721,-1.0721,-1.0721,-1.0585,-1.0452,0.0,0.0,0.0,0.0,0.0,0.0,0.0,-0.3833,0.0,-0.1446,-0.1186,-0.1193,-0.1075,-0.1077,-0.1077,-0.1077,-0.1077,-0.1481,-0.2155,-0.2828,-0.3231,-0.3231,-0.3613,-0.3828,-0.3745,-0.351,-0.3233,-0.2919,-0.2748,-0.2589,-0.2534,-0.2763,-0.3161,0.0,0.0,-0.4851,0.0,0.0,0.0,-0.5322,-0.5784,-0.577,-0.5555,-0.586,-0.6033,-0.6203,-0.7139,-0.8062,-0.9127,-1.028,-1.0711,-1.0711,-1.0452,-1.0193,-0.9924,-0.9516,-0.8851,-0.8323,-0.8587,-0.8323,-0.8325,-0.9395,-0.9392,-0.9338,-0.979,-1.0196,-1.0584,-1.1091,-1.2306,-1.3347,-1.3958,-1.4013,0.0,0.0,0.0,0.0,0.0,0.0,-1.1189,0.0,0.0,0.0,0.0,0.0,0.0,0.0,0.0,0.0,0.0,0.0,0.0,0.0,0.0,0.0,0.0,0.0,0.0,0.1077,-0.0,-0.1077,-0.2289,-0.417,-0.5912,-0.7514,-0.8581,-0.9649,-1.0721,-1.0721,-1.0721,-1.0721,-1.0721,-1.0721,-1.0721,-1.0721,-1.0721,-1.0721,0.0,-0.2201,0.0,0.0,-0.2875,0.0,-0.3154,-0.532,-0.6137,-0.3446,-0.2914,-0.2926,-0.2824,-0.2828,-0.2828,-0.2828,-0.2828,-0.2962,-0.2962,-0.4038,-0.4575,-0.4708,-0.525,-0.5617,-0.5799,-0.5507,-0.5151,-0.462,-0.3888,-0.3229,-0.2734,-0.2714,-0.2697,-0.2493,0.0,0.0,0.0,0.0,-0.0243,-0.0124,-0.0515,-0.0917,-0.1316,-0.173,-0.2005,-0.2273,-0.3882,-0.442,-0.4956,-0.7367,-0.8972,-0.9779,-0.9921,-0.9791,-0.9392,-0.912,-0.832,-0.7658,-0.8058,-0.7925,-0.8058,-0.9395,-0.9794,-0.9883,-1.036,-1.0742,-1.1106,-1.1275,-1.2465,-1.3447,-1.3879,-1.3374,0.0,0.0,0.0,0.0,0.0,0.0,0.0,0.0,0.0,0.0,-0.7614,0.0,0.0,0.0,0.0,0.0,-0.39,0.0,0.0,0.0,0.0,0.2849,0.4041,0.0,0.2257,0.1885,-0.0135,-0.1616,-0.2693,-0.4844,-0.6451,-0.7646,-0.8715,-0.9649,-1.0721,-1.0721,-1.0721,-1.0721,-1.0721,-1.0721,-1.0721,-1.0721,-1.0721,-1.0721,0.0,0.0,0.0,0.0,0.0,0.0,-0.616,-0.7674,-0.8153,-0.6345,-0.5515,-0.5112,-0.5119,-0.5119,-0.5119,-0.5119,-0.5119,-0.5117,-0.5383,-0.5517,-0.5783,-0.6176,-0.6309,-0.6535,-0.7229,-0.7028,-0.6644,0.0,-0.516,-0.4266,-0.3297,-0.3079,-0.1927,-0.01,0.0635,0.0,0.0,0.4083,0.4613,0.5001,0.4957,0.3969,0.2675,0.2279,0.1878,0.1476,0.0269,-0.094,-0.2149,-0.3356,-0.5767,-0.8446,-0.8984,-0.8987,-0.872,-0.872,-0.8323,-0.8056,-0.8456,-0.8587,-0.8723,-0.9924,-1.0193,-1.0122,-1.0236,-1.0545,-1.0825,-1.0878,-1.1647,-1.2414,-1.2551,-1.2343,-1.2077,0.0,0.0,0.0,0.0,0.0,-0.9593,-0.8939,0.0,0.0,0.0,-0.7089,0.0,0.0,0.0,0.0,0.0,0.0,0.0,0.1095,0.0,0.3309,0.3155,0.3377,0.2521,0.0808,-0.0269,-0.1884,-0.4174,-0.5655,-0.6991,-0.8046,-0.8715,-0.9649,-1.0721,-1.0721,-1.0721,-1.0721,-1.0721,-1.0721,-1.0721,-1.0721,-1.0721,-1.0721,0.0,0.0,0.0,0.0,0.0,0.0,0.0,-0.9593,-1.0335,-0.9677,-0.7996,-0.6866,-0.6811,-0.6804,-0.6783,-0.6725,-0.6719,-0.6719,-0.6717,-0.6982,-0.7114,-0.7376,-0.7646,-0.7895,-0.8117,-0.7959,-0.7584,0.0,-0.6009,-0.4949,-0.375,-0.3185,-0.1551,0.0955,0.0,0.3704,0.4501,0.5335,0.6016,0.6402,0.6229,0.588,0.5367,0.4833,0.4433,0.3897,0.2823,0.1479,-0.0134,-0.2016,-0.4431,-0.6846,-0.765,-0.8053,-0.8323,-0.8587,-0.8454,-0.8456,-0.8853,-0.8851,-0.912,-1.0187,-1.0455,-1.0511,-1.0859,-1.1169,-1.1324,-1.086,-1.1152,-1.1339,-1.1524,-1.1225,-1.1028,-1.0891,0.0,0.0,0.0,0.0,0.0,-0.8787,0.0,-0.799,0.0,0.0,0.0,0.0,0.0,-0.3616,-0.2381,-0.1433,0.0,0.1291,0.0,0.2775,0.3112,0.2821,0.1842,0.0269,-0.0942,-0.2824,-0.5114,-0.6321,-0.7789,-0.9386,-0.9785,-1.0319,-1.0721,-1.0721,-1.0721,-1.0721,-1.0721,-1.0721,-1.0721,-1.0721,-1.0721,-1.0721,-0.694,0.0,-0.8969,0.0,-0.9543,-0.9593,-0.9965,-1.0878,-1.1625,-1.1622,-1.0187,-0.8847,-0.8146,-0.8103,-0.8053,-0.7838,-0.7801,-0.7915,-0.7915,-0.8179,-0.8446,-0.8579,-0.8984,0.0,-0.9253,-0.9124,-0.8779,-0.7981,-0.7012,-0.5792,-0.4388,-0.3075,-0.1108,0.1468,0.3185,0.4242,0.4803,0.5743,0.6534,0.6894,0.6827,0.6851,0.6985,0.6315,0.5781,0.5247,0.3767,0.2421,0.0807,-0.1345,-0.3495,-0.551,-0.6449,-0.7118,-0.7922,-0.8456,-0.872,-0.8853,-0.9253,-0.9519,-0.9785,-1.0717,-1.1115,-1.1425,-1.149,-1.1795,-1.1693,-1.0856,-1.0547,-1.0514,-1.0644,-1.0329,-1.0037,-1.0155,0.0,0.0,0.0,-0.901,0.0,-0.8579,-0.8234,-0.798,-0.7824,0.0,0.0,0.0,0.0,-0.416,-0.2615,-0.1955,0.0,0.0,0.0,0.0,0.2109,0.1528,0.0523,-0.0941,-0.2151,-0.3899,-0.6185,-0.7252,-0.872,-1.0193,-1.0588,-1.0721,-1.0721,-1.0721,-1.0721,-1.0721,-1.0721,-1.0721,-1.0721,-1.0721,-1.0721,-1.0721,-0.8655,-0.9221,-0.9784,-1.1337,-1.1608,-1.1564,-1.1554,-1.1538,-1.1626,-1.1616,-1.1613,-1.0925,-0.9104,-0.8837,-0.8769,-0.8769,-0.8658,-0.872,-0.9117,-0.9117,-0.9386,0.0,0.0,-1.0323,-1.0721,-1.0571,-1.0029,-0.9246,0.0,-0.702,-0.5282,-0.2704,-0.0593,0.1207,0.2113,0.3424,0.5274,0.6005,0.6623,0.6982,0.7381,0.725,0.6985,0.6585,0.6051,0.5111,0.3362,0.1749,0.0269,-0.1077,-0.2557,-0.4035,-0.551,-0.6447,-0.7252,-0.832,-0.8851,-0.925,-0.9924,-1.0455,-1.0853,-1.1648,-1.2297,-1.2722,-1.2369,-1.2288,-1.1936,-1.0612,-1.0061,-0.9819,-0.9819,-0.9578,-0.9381,-0.9378,0.0,0.0,0.0,-0.8577,0.0,-0.8286,-0.8133,-0.798,-0.7824,0.0,0.0,0.0,0.0,-0.5732,-0.3828,0.0,0.0,-0.19,-0.0578,0.0,-0.0503,-0.0511,-0.1436,-0.3223,-0.3896,-0.524,-0.6985,-0.8848,-0.9918,-1.0193,-1.0588,-1.0721,-1.0721,-1.0721,-1.0721,-1.0721,-1.0721,-1.0721,-1.0721,-1.0721,-1.0721,-1.0721,-1.0636,-1.0854,-1.1057,-1.1477,-1.166,-1.1538,-1.1653,-1.2434,-1.3205,-1.319,-1.29,-1.2573,-1.2037,-1.1051,-1.0512,0.0,-1.0362,-1.0299,0.0,-1.0335,-1.0424,-1.0591,-1.0588,-1.0588,-1.0721,-1.0673,-1.0179,-0.9392,0.0,0.0,0.0,-0.3098,-0.1865,-0.1137,0.0129,0.117,0.1961,0.2516,0.3072,0.3623,0.3756,0.4024,0.4427,0.4028,0.3491,0.2685,0.1613,0.0403,-0.0941,-0.2285,-0.4434,-0.6719,-0.724,-0.7507,-0.7912,-0.9247,-0.9915,-1.0319,-1.1118,-1.1383,-1.1644,-1.2696,-1.3346,-1.3926,-1.3934,-1.3035,-1.1913,-1.1194,-1.0304,-0.9822,-0.9822,-0.9666,-0.9503,-0.9398,-0.9215,0.0,-0.8747,0.0,-0.8428,-0.8289,-0.8133,-0.8062,-0.8119,-0.8126,0.0,0.0,0.0,0.0,0.0,0.0,0.0,0.0,-0.2831,0.0,-0.2641,-0.3221,-0.4477,-0.6449,-0.6445,-0.7245,-0.8848,-0.9652,-1.019,-1.0588,-1.0588,-1.0721,-1.0721,-1.0721,-1.0721,-1.0721,-1.0721,-1.0721,-1.0721,-1.0721,-1.0721,-1.0721,-1.1643,-1.1572,-1.1623,-1.1606,-1.204,-1.2911,-1.3924,-1.4798,-1.5088,-1.4776,-1.4328,-1.3892,-1.3749,-1.2948,0.0,-1.1542,-1.1334,-1.1124,-1.1033,-1.1029,-1.0962,-1.0812,-1.0806,-1.0778,-1.0721,-1.0721,0.0,-0.9795,-0.8955,-0.7476,-0.5624,-0.451,-0.3613,-0.288,-0.1849,-0.106,-0.0398,-0.0,0.0268,0.067,0.0805,0.1072,0.1339,0.1206,0.0804,0.0268,-0.0805,-0.1745,-0.2685,-0.4293,-0.6437,-0.8446,-0.9356,-0.9883,-1.029,-1.07,-1.1104,-1.1376,-1.2037,-1.2433,-1.2828,-1.3739,-1.4651,-1.5355,-1.5194,-1.3724,-1.2086,-1.1429,-1.0547,-0.9822,-0.9822,-0.9703,-0.9557,-0.9405,-0.9252,-0.9049,-0.8754,-0.8577,-0.8448,-0.836,0.0,0.0,0.0,-0.835,-0.8387,0.0,0.0,0.0,0.0,0.0,-0.5624,-0.4667,-0.5033,-0.5218,-0.5197,-0.571,-0.6878,-0.8328,-0.8454,-0.8984,-0.9918,-1.0187,-1.0455,-1.0721,-1.0721,-1.0721,-1.0721,-1.0721,-1.0721,-1.0721,-1.0721,-1.0721,-1.0721,-1.0721,-1.0721,-1.0721,-1.1613,-1.1616,-1.1613,0.0,-1.2911,-1.4975,-1.8127,-1.7943,-1.7298,-1.6519,-1.5763,-1.5168,-1.4738,-1.4324,-1.3547,-1.2407,0.0,0.0,-1.1317,-1.1179,-1.1114,-1.0968,-1.0955,-1.088,-1.0741,-1.0724,-1.0588,-1.0193,-0.9133,-0.8081,-0.7116,-0.6753,-0.5699,-0.4029,-0.4029,-0.3356,-0.2012,-0.2146,-0.2145,-0.2009,-0.174,-0.1873,-0.2139,-0.2139,-0.214,-0.2276,-0.3618,-0.4426,-0.4961,-0.7098,-0.8427,-0.9748,-1.1852,-1.3181,-1.3722,-1.2417,-1.2285,-1.2553,-1.2947,-1.3477,-1.4137,-1.4912,-1.6084,-1.6883,-1.6164,-1.427,-1.2352,-1.1566,-1.0554,-0.9822,-0.9822,-0.9713,-0.9571,-0.9408,-0.9262,-0.9062,-0.8754,-0.8587,-0.8492,0.0,0.0,0.0,-0.8499,-0.8523,-0.8533,0.0,0.0,0.0,0.0,0.0,-0.7304,-0.7059,-0.7163,-0.7383,-0.7724,-0.7972,-0.8475,-0.925,-0.9921,-1.019,-1.019,-1.0588,-1.0721,-1.0721,-1.0721,-1.0721,-1.0721,-1.0721,-1.0721,-1.0721,-1.0721,-1.0721,-1.0721,-1.0721,-1.0721,-1.0721,0.0,0.0,-1.1596,-1.1569,-1.2881,-1.5381,-1.9555,-1.9951,-1.9724,-1.9066,-1.8158,-1.7564,-1.7424,-1.6437,-1.5434,-1.4814,-1.3086,-1.1889,-1.1766,-1.1478,-1.127,-1.1118,-1.1006,-1.0931,-1.0897,-1.0778,-1.0588,-1.0193,-0.9356,-0.8823,-0.8584,-0.7885,-0.7353,-0.6971,-0.6971,-0.6836,-0.6566,-0.7096,-0.7222,-0.6951,-0.7472,-0.7467,-0.7337,-0.7337,-0.7467,-0.7735,-0.7749,-0.8289,-0.8958,-1.0019,-1.1208,-1.2525,-1.4227,-1.5414,-1.6084,-1.4912,-1.4385,-1.4385,-1.5038,-1.5173,-1.5303,-1.6597,-1.7383,-1.7569,-1.7009,-1.4987,-1.2914,-1.2123,-1.0756,-0.9822,-0.9822,-0.9791,-0.9686,-0.9422,-0.9351,-0.9181,-0.8767,-0.8679,-0.8615,0.0,-0.8557,-0.8665,-0.8815,-0.893,-0.9042,0.0,0.0,-0.9239,-0.9158,-0.9134,-0.8803,-0.8145,-0.8513,-0.8727,-0.8629,-0.941,-0.9889,-1.0319,-1.0455,-1.0588,-1.0588,-1.0721,-1.0721,-1.0721,-1.0721,-1.0721,-1.0721,-1.0721,-1.0721,-1.0721,-1.0721,-1.0721,-1.0721,-1.0721,-1.0721,-1.0721,-1.2851,-1.2719,-1.2434,-1.1684,-1.403,-1.6979,-1.9781,-2.0315,-2.0239,-2.0023,-1.9698,-1.9396,-1.9251,-1.8121,-1.7278,-1.6856,-1.46,-1.3147,-1.2917,-1.2481,-1.2266,-1.2102,-1.1604,-1.1361,-1.1222,-1.0867,-1.0658,-1.0455,-1.0054,-0.9785,-0.9655,-0.925,-0.8981,-0.8845,-0.8978,-0.9105,-0.9232,-0.976,-1.0283,-1.0534,-1.0927,-1.1187,-1.1315,-1.1315,-1.1183,-1.1055,-1.1066,-1.134,-1.1739,-1.2664,-1.3844,-1.5149,-1.6457,-1.7501,-1.8162,-1.7641,-1.699,-1.6343,-1.6861,-1.6861,-1.7114,-1.8407,-1.8542,-1.8355,-1.7587,-1.5645,-1.3613,-1.2432,-1.1144,-1.005,-0.9927,-0.9869,-0.9724,-0.9429,-0.9381,-0.9225,-0.8774,-0.871,-0.8706,-0.8693,-0.8764,-0.8899,-0.912,-0.9211,-0.9293,-0.9374,-0.9381,0.0,-0.9483,-0.97,-0.9576,-0.9089,-0.9548,-0.9767,-0.9717,-0.9987,-1.0323,-1.0455,-1.0326,-1.0326,-1.0455,-1.0455,-1.0588,-1.0721,-1.0721,-1.0721,-1.0721,-1.0721,-1.0721,-1.0721,-1.0721,-1.0721,-1.0721,-1.0721,-1.0721,-1.0721,-1.4867,-1.4432,-1.3847,-1.2521,-1.5914,-1.8894,-1.9554,-1.993,-2.0302,-2.0394,-2.0665,-2.0798,-2.0503,-1.9802,-1.9105,-1.8826,-1.671,-1.5022,-1.4324,-1.3753,-1.3539,-1.3388,-1.2666,-1.2249,-1.1836,-1.1375,-1.1142,-1.0982,-1.0982,-1.0721,-1.0455,-1.0455,-1.0319,-1.0047,-1.0575,-1.0962,-1.1347,-1.1739,-1.2525,-1.3434,-1.3561,-1.3957,-1.4479,-1.4479,-1.4214,-1.3692,-1.397,-1.3975,-1.4106,-1.5163,-1.6333,-1.7501,-1.8542,-1.9188,-1.9839,-2.01,-1.945,-1.8419,-1.8291,-1.8542,-1.9054,-1.9954,-1.9705,-1.8884,-1.8007,-1.6144,-1.4289,-1.2733,-1.1439,-1.0454,-1.0053,-0.9944,-0.9758,-0.9462,-0.9398,-0.9239,-0.8835,0.0,-0.8825,-0.8954,-0.9011,-0.9137,-0.9391,-0.9435,-0.9449,-0.9449,-0.9449,-0.9513,-0.9666,-0.9812,-0.99,-0.992,-1.0293,-1.0504,-1.0524,-1.0261,-1.0193,-1.0193,-0.9794,-0.9927,-1.0193,-1.0193,-1.0323,-1.0721,-1.0721,-1.0721,-1.0721,-1.0721,-1.0721,-1.0721,-1.0721,-1.0721,-1.0721,-1.0721,-1.0721,-1.0721,-1.77,-1.6715,-1.5712,-1.552,-1.8216,-2.0327,-2.0501,-2.1174,-2.1836,-2.1904,-2.2035,-2.2035,-2.2029,-2.1339,-2.0647,-2.0352,-1.9657,-1.8261,-1.6018,-1.5168,-1.4587,-1.4273,-1.3986,-1.3743,-1.3412,-1.2978,-1.2476,-1.2045,-1.2045,-1.1912,-1.1516,-1.1516,-1.1648,-1.1909,-1.2561,-1.321,-1.3853,-1.5163,-1.5944,-1.6467,-1.7232,-1.7619,-1.7748,-1.7748,-1.7748,-1.7619,-1.7372,-1.7249,-1.7378,-1.7759,-1.8285,-1.8938,-1.9699,-2.0087,-2.0475,-2.0856,-2.0729,-2.0469,-1.9973,-1.9973,-2.0348,-2.0475,-1.996,-1.931,-1.8617,-1.6514,-1.4326,-1.3153,-1.1737,-1.058,-1.0073,-1.0029,-0.9917,-0.9622,-0.9466,-0.931,-0.9113,0.0,-0.9093,-0.9117,-0.9347,-0.9523,-0.9568,-0.9683,-0.9751,-0.9751,-0.9751,-0.9819,-0.9975,-1.0127,-1.0263,-1.0385,-1.0456,-1.0555,-1.0683,-1.0313,-1.0193,-1.0193,-0.9794,-0.9927,-1.0193,-1.0193,-1.0323,-1.0721,-1.0721,-1.0721,-1.0721,-1.0721,-1.0721,-1.0721,-1.0721,-1.0721,-1.0721,-1.0721,-1.0721,-1.0721,-2.0308,-1.929,-1.8406,-1.7498,-1.9598,-2.1254,-2.1319,-2.1691,-2.2074,-2.2317,-2.2448,-2.2585,-2.2585,-2.2173,-2.176,-2.1471,-2.1063,-2.0225,-1.8966,-1.7559,-1.672,-1.6574,-1.5784,-1.4937,-1.4039,-1.3764,-1.3536,-1.3223,-1.296,-1.2824,-1.2561,-1.2561,-1.2955,-1.3477,-1.4128,-1.5038,-1.6073,-1.699,-1.777,-1.8419,-1.8932,-1.9188,-1.9322,-1.9322,-1.9194,-1.906,-1.8932,-1.8804,-1.8932,-1.906,-1.9322,-1.9717,-1.9966,-2.0094,-2.0094,-2.0214,-2.0722,-2.0982,-2.0736,-2.0736,-2.0862,-2.0609,-2.0227,-1.9584,-1.8419,-1.6904,-1.5148,-1.36,-1.2302,-1.1268,-1.0428,-1.0158,-0.9978,-0.9758,-0.9602,-0.9452,-0.9296,-0.9276,-0.9306,-0.9388,-0.9523,-0.9639,-0.9717,-0.9781,-0.9852,-0.9937,-0.9944,-1.0012,-1.0164,-1.0314,-1.0426,-1.049,-1.0571,-1.0649,-1.0721,-1.019,-0.9927,-0.9927,-0.9392,-0.9392,-0.9927,-0.9927,-1.0193,-1.0721,-1.0721,-1.0721,-1.0721,-1.0721,-1.0721,-1.0721,-1.0721,-1.0721,-1.0721,-1.0721,-1.0721,-1.0721,-2.217,-2.159,-2.0835,-1.9634,-2.0847,-2.2045,-2.1993,-2.1936,-2.2042,-2.2448,-2.2722,-2.2859,-2.2859,-2.2585,-2.2448,-2.2448,-2.1897,-2.1628,-2.1628,-2.0225,-1.9105,-1.8826,-1.7564,-1.6544,-1.5475,-1.5394,-1.5058,-1.4725,-1.4286,-1.4128,-1.3866,-1.3866,-1.4254,-1.5038,-1.5564,-1.6602,-1.7899,-1.8291,-1.906,-1.9833,-1.996,-2.0094,-2.0361,-2.0361,-2.0221,-1.996,-1.996,-1.996,-1.9833,-1.9833,-1.9839,-1.9979,-1.9851,-1.9584,-1.9316,-1.9194,-1.9826,-2.0469,-2.0602,-2.0602,-2.0602,-2.0354,-1.9979,-1.9462,-1.8162,-1.699,-1.5694,-1.3735,-1.2584,-1.1705,-1.0627,-1.0307,-1.009,-0.9903,0.0,-0.9605,-0.9456,-0.9435,-0.9479,-0.9595,-0.9669,-0.9754,-0.9863,-0.9907,-0.9975,-1.0093,-1.0103,-1.0171,-1.0321,-1.0432,-1.0507,-1.0544,-1.066,-1.0721,-1.0721,-1.006,-0.9661,-0.9661,-0.8989,-0.8989,-0.9661,-0.9661,-1.006,-1.0721,-1.0721,-1.0721,-1.0721,-1.0721,-1.0721,-1.0721,-1.0721,-1.0721,-1.0721,-1.0721,-1.0721,-1.0721,-2.2886,-2.2717,-2.275,-2.2566,-2.2743,-2.2888,-2.2808,-2.2474,-2.2448,-2.2859,-2.2866,-2.2859,-2.2859,-2.2859,-2.2859,-2.2859,-2.2859,-2.2722,-2.2722,-2.231,-2.1333,-2.0086,-1.9529,-1.9121,-1.8845,-1.8603,-1.8089,-1.7192,-1.6848,-1.6348,-1.5814,-1.5814,-1.6213,-1.6872,-1.712,-1.7899,-1.9072,-1.9699,-2.0214,-2.0609,-2.0856,-2.0982,-2.0982,-2.0982,-2.0982,-2.0982,-2.0982,-2.0729,-2.0482,-2.0482,-2.0094,-1.9577,-1.9328,-1.8932,-1.8536,-1.8162,-1.8162,-1.8425,-1.9072,-1.92,-1.92,-1.92,-1.895,-1.8437,-1.777,-1.6473,-1.5043,-1.3604,-1.2553,-1.1582,-1.0647,-1.0473,-1.0365,-1.008,0.0,0.0,-0.9612,-0.9591,-0.9598,-0.9608,-0.9849,-1.0022,-1.0032,-1.0161,-1.0253,-1.0263,-1.0263,-1.0327,-1.047,-1.0487,-1.0558,-1.07,-1.0714,-1.0721,-1.0721,-1.006,-0.9661,-0.9661,-0.8989,-0.8989,-0.9661,-0.9661,-1.006,-1.0721,-1.0721,-1.0721,-1.0721,-1.0721,-1.0721,-1.0721,-1.0721,-1.0721,-1.0721,-1.0721,-1.0721,-1.0721,-2.2559,-2.2795,-2.2875,-2.2886,-2.2926,-2.2926,-2.2893,-2.2735,-2.2722,-2.2866,-2.2859,-2.2859,-2.2859,-2.2859,-2.2859,-2.2859,-2.2859,-2.2859,-2.2859,-2.2722,-2.2173,-2.0792,-2.0653,-2.0383,-1.9841,-1.958,-1.9193,-1.8673,-1.8153,-1.7765,-1.7501,-1.7501,-1.777,-1.8296,-1.8676,-1.9316,-2.0094,-2.0348,-2.0602,-2.0856,-2.1109,-2.1109,-2.1109,-2.1109,-2.1109,-2.1109,-2.1109,-2.0862,-2.0609,-2.0342,-1.9571,-1.8547,-1.8156,-1.7249,-1.6203,-1.5564,-1.5434,-1.5569,-1.5824,-1.7125,-1.8296,-1.791,-1.7653,-1.7394,-1.6473,-1.5564,-1.4651,-1.3341,-1.2565,-1.1762,-1.0774,-1.0555,-1.0456,-1.0341,0.0,-1.0086,-1.0032,-1.0025,-1.0025,-1.0025,-1.0124,-1.0195,-1.0195,-1.0246,-1.0317,-1.0405,-1.0412,-1.0477,-1.0626,-1.0633,-1.066,-1.0717,-1.0721,-1.0721,-1.0721,-1.019,-1.006,-1.006,-0.9525,-0.9525,-1.006,-1.006,-1.0326,-1.0721,-1.0721,-1.0721,-1.0721,-1.0721,-1.0721,-1.0721,-1.0721,-1.0721,-1.0721,-1.0721,-1.0721,-1.0721,-2.2225,-2.2653,-2.2937,-2.2848,-2.2942,-2.2859,-2.2859,-2.2859,-2.2859,-2.2859,-2.2859,-2.2859,-2.2859,-2.2859,-2.2859,-2.2859,-2.2859,-2.2859,-2.2859,-2.2859,-2.2585,-2.176,-2.176,-2.1527,-2.1195,-2.0703,-2.0435,-2.0117,-1.9493,-1.9054,-1.9054,-1.9054,-1.9194,-1.9584,-1.9839,-2.0221,-2.0736,-2.0736,-2.0856,-2.1109,-2.1109,-2.1109,-2.1109,-2.1109,-2.1109,-2.1109,-2.1109,-2.0729,-2.0221,-1.996,-1.867,-1.7254,-1.6861,-1.5554,-1.4124,-1.3739,-1.3608,-1.3608,-1.3608,-1.4907,-1.6338,-1.6089,-1.6089,-1.5829,-1.4912,-1.452,-1.3862,-1.2688,-1.2169,-1.1648,-1.0853,-1.0633,-1.0548,-1.05,-1.0412,-1.0331,-1.0287,-1.028,-1.028,-1.028,-1.0321,-1.0348,-1.0348,-1.0388,-1.046,-1.0558,-1.0565,-1.0609,-1.0714,-1.0721,-1.0721,-1.0721,-1.0721,-1.0721,-1.0721,-1.0323,-1.0193,-1.0193,-0.9794,-0.9927,-1.0193,-1.0193,-1.0323,-1.0721,-1.0721,-1.0721,-1.0721,-1.0721,-1.0721,-1.0721,-1.0721,-1.0721,-1.0721,-1.0721,-1.0721,-1.0721,-2.1924,-2.2511,-2.2875,-2.2875,-2.2957,-2.2859,-2.2859,-2.2859,-2.2859,-2.2859,-2.2859,-2.2859,-2.2859,-2.2859,-2.2859,-2.2859,-2.2859,-2.2859,-2.2859,-2.2859,-2.2859,-2.2859,-2.2859,-2.2859,-2.2859,-2.2285,-2.1852,-2.1463,-2.0889,-2.0482,-2.0106,-2.0106,-2.0234,-2.0609,-2.0609,-2.0729,-2.1109,-2.1109,-2.1109,-2.1109,-2.1109,-2.1109,-2.1109,-2.1109,-2.1109,-2.1109,-2.1109,-2.0469,-1.9577,-1.92,-1.777,-1.5819,-1.5168,-1.3862,-1.2816,-1.2816,-1.2816,-1.2816,-1.2816,-1.2816,-1.2947,-1.3744,-1.3875,-1.3744,-1.3346,-1.3079,-1.2557,-1.1909,-1.1512,-1.1115,-1.0721,-1.0721,-1.067,-1.0517,-1.0493,-1.0446,-1.0304,-1.0283,-1.0283,-1.0283,-1.0409,-1.0493,-1.0493,-1.0629,-1.0721,-1.0721,-1.0721,-1.0721,-1.0721,-1.0721,-1.0721,-1.0721,-1.0721,-1.0721,-1.0721,-1.0323,-1.0193,-1.0193,-0.9927,-0.9927,-1.0193,-1.0193,-1.0455,-1.0721,-1.0721,-1.0721,-1.0721,-1.0721,-1.0721,-1.0721,-1.0721,-1.0721,-1.0721,-1.0721,-1.0721,-1.0721,-2.1623,-2.1607,-2.1877,-2.2688,-2.2937,-2.2921,-2.2836,-2.2863,-2.293,-2.2839,-2.2859,-2.2859,-2.2859,-2.2859,-2.2859,-2.2859,-2.2859,-2.2859,-2.2859,-2.2859,-2.2859,-2.2859,-2.2859,-2.2766,-2.2552,-2.2178,-2.1884,-2.1553,-2.1168,-2.0856,-2.0862,-2.0862,-2.0862,-2.0982,-2.0982,-2.0982,-2.1109,-2.1109,-2.1109,-2.1109,-2.1109,-2.1109,-2.1109,-2.1109,-2.1109,-2.1109,-2.0862,-2.0221,-1.945,-1.8285,-1.6726,-1.4907,-1.2947,-1.2033,-1.1641,-1.1376,-1.1376,-1.1376,-1.1376,-1.1376,-1.1508,-1.2568,-1.2832,-1.27,-1.2305,-1.2173,-1.1909,-1.1512,-1.1516,-1.1516,-1.1118,-1.1251,-1.1497,-1.145,-1.1176,-1.103,-1.0988,-1.0719,-1.0588,-1.0588,-1.0626,-1.0653,-1.0653,-1.0694,-1.0721,-1.0721,-1.0721,-1.0721,-1.0721,-1.0721,-1.0721,-1.0721,-1.0721,-1.0721,-1.0721,-1.0588,-1.0588,-1.0588,-1.0455,-1.0455,-1.0588,-1.0588,-1.0588,-1.0721,-1.0721,-1.0721,-1.0721,-1.0721,-1.0721,-1.0721,-1.0721,-1.0721,-1.0721,-1.0721,-1.0721,-1.0721,-2.1343,-2.1186,-2.1311,-2.2072,-2.22,-2.219,-2.2218,-2.2558,-2.2914,-2.2943,-2.2667,-2.2512,-2.2512,-2.2619,-2.2686,-2.2686,-2.2686,-2.2639,-2.2525,-2.2512,-2.2512,-2.2512,-2.2512,-2.2485,-2.2418,-2.2024,-2.173,-2.155,-2.1256,-2.1109,-2.1109,-2.1109,-2.1109,-2.1109,-2.1109,-2.1109,-2.1109,-2.1109,-2.1109,-2.1109,-2.1109,-2.1109,-2.1109,-2.1109,-2.0982,-2.0856,-2.0475,-1.9833,-1.8804,-1.7507,-1.5689,-1.3477,-1.1641,-1.0982,-1.0986,-1.0721,-1.0721,-1.0721,-1.0721,-1.0721,-1.085,-1.1648,-1.178,-1.1648,-1.1516,-1.1516,-1.1516,-1.1644,-1.178,-1.2041,-1.2037,-1.2169,-1.2433,-1.2433,-1.2037,-1.1773,-1.1512,-1.1118,-1.0853,-1.0721,-1.0721,-1.0721,-1.0721,-1.0721,-1.0721,-1.0721,-1.0721,-1.0721,-1.0721,-1.0721,-1.0721,-1.0721,-1.0721,-1.0721,-1.0721,-1.0721,-1.0721,-1.0721,-1.0721,-1.0721,-1.0721,-1.0721,-1.0721,-1.0721,-1.0721,-1.0721,-1.0721,-1.0721,-1.0721,-1.0721,-1.0721,-1.0721,-1.0721,-1.0721,-1.0721,-1.0721,-2.1109,-2.1041,-2.1077,-2.1077,-2.1137,-2.1037,-2.1056,-2.2082,-2.271,-2.2731,-2.2281,-2.1977,-2.1977,-2.2218,-2.2378,-2.2378,-2.2378,-2.2265,-2.2004,-2.1984,-2.1984,-2.1984,-2.1964,-2.2071,-2.2338,-2.1824,-2.1537,-2.1516,-2.1243,-2.1109,-2.1109,-2.1109,-2.1109,-2.1109,-2.1109,-2.1109,-2.1109,-2.1109,-2.1109,-2.1109,-2.1109,-2.1109,-2.1109,-2.1109,-2.0856,-2.0609,-2.0208,-1.9188,-1.7776,-1.6602,-1.439,-1.2045,-1.0986,-1.0721,-1.0721,-1.0721,-1.0721,-1.0721,-1.0721,-1.0721,-1.085,-1.1118,-1.1115,-1.0982,-1.1247,-1.138,-1.1512,-1.2173,-1.2437,-1.2696,-1.3346,-1.3473,-1.3473,-1.3473,-1.3214,-1.2688,-1.2041,-1.1516,-1.1115,-1.0721,-1.0721,-1.0721,-1.0721,-1.0721,-1.0721,-1.0721,-1.0721,-1.0721,-1.0721,-1.0721,-1.0721,-1.0721,-1.0721,-1.0721,-1.0721,-1.0721,-1.0721,-1.0721,-1.0721,-1.0721,-1.0721,-1.0721,-1.0721,-1.0721,-1.0721,-1.0721,-1.0721,-1.0721,-1.0721,-1.0721,-1.0721,-1.0721,-1.0721,-1.0721,-1.0721,-1.0721,-2.1109,-2.1156,-2.1069,-2.1069,-2.1109,-2.1087,-2.1162,-2.1344,-2.1437,-2.151,-2.1391,-2.1246,-2.1246,-2.1747,-2.2078,-2.2078,-2.2078,-2.2051,-2.1991,-2.1984,-2.1984,-2.1984,-2.177,-2.1677,-2.1737,-2.1617,-2.1436,-2.1203,-2.1142,-2.1109,-2.1109,-2.1109,-2.1109,-2.1109,-2.1109,-2.1109,-2.1109,-2.1109,-2.1109,-2.1109,-2.1109,-2.1109,-2.1109,-2.1109,-2.0856,-2.0482,-1.9584,-1.8547,-1.7243,-1.4511,-1.2688,-1.138,-1.0853,-1.0721,-1.0721,-1.0721,-1.0721,-1.0721,-1.0721,-1.085,-1.1118,-1.1516,-1.2037,-1.2293,-1.2041,-1.2301,-1.2557,-1.2951,-1.3739,-1.439,-1.4516,-1.5038,-1.5298,-1.5043,-1.4263,-1.335,-1.2688,-1.1773,-1.1115,-1.0721,-1.0721,-1.0721,-1.0721,-1.0721,-1.0721,-1.0721,-1.0721,-1.0721,-1.0721,-1.0721,-1.0721,-1.0721,-1.0721,-1.0721,-1.0721,-1.0721,-1.0721,-1.0721,-1.0721,-1.0721,-1.0721,-1.0721,-1.0721,-1.0721,-1.0721,-1.0721,-1.0721,-1.0721,-1.0721,-1.0721,-1.0721,-1.0721,-1.0721,-1.0721,-1.0721,-1.0721,-2.1109,-2.1109,-2.1109,-2.1109,-2.1109,-2.1156,-2.1162,-2.1054,-2.1107,-2.1109,-2.1129,-2.1129,-2.1129,-2.154,-2.1777,-2.1777,-2.1777,-2.1717,-2.1577,-2.157,-2.157,-2.157,-2.1423,-2.1343,-2.1343,-2.1343,-2.1263,-2.1109,-2.1109,-2.1109,-2.1109,-2.1109,-2.1109,-2.1109,-2.1109,-2.1109,-2.1109,-2.1109,-2.1109,-2.1109,-2.1109,-2.1109,-2.1109,-2.0856,-2.0602,-1.9966,-1.8804,-1.712,-1.5168,-1.3083,-1.1773,-1.1115,-1.0853,-1.0721,-1.0721,-1.0721,-1.0853,-1.0982,-1.0982,-1.138,-1.1909,-1.2433,-1.3083,-1.3473,-1.3346,-1.3604,-1.3993,-1.4912,-1.5564,-1.6084,-1.6592,-1.6985,-1.6985,-1.6473,-1.5694,-1.4651,-1.321,-1.2301,-1.1512,-1.0721,-1.0721,-1.0721,-1.0721,-1.0721,-1.0721,-1.0721,-1.0721,-1.0721,-1.0721,-1.0721,-1.0721,-1.0721,-1.0721,-1.0721,-1.0721,-1.0721,-1.0721,-1.0721,-1.0721,-1.0721,-1.0721,-1.0721,-1.0721,-1.0721,-1.0721,-1.0721,-1.0721,-1.0721,-1.0721,-1.0721,-1.0721,-1.0721,-1.0721,-1.0721,-1.0721,-1.0721,-2.1109,-2.1109,-2.1109,-2.1109,-2.1109,-2.1109,-2.1109,-2.1109,-2.1109,-2.1109,-2.1109,-2.1109,-2.1109,-2.1329,-2.1476,-2.1476,-2.1476,-2.137,-2.1122,-2.1109,-2.1109,-2.1109,-2.1109,-2.1109,-2.1109,-2.1109,-2.1109,-2.1109,-2.1109,-2.1109,-2.1109,-2.1109,-2.1109,-2.1109,-2.1109,-2.1109,-2.1109,-2.1109,-2.1109,-2.1109,-2.1109,-2.1109,-2.1109,-2.0736,-2.0094,-1.9322,-1.7899,-1.5559,-1.3087,-1.2041,-1.1383,-1.1118,-1.0853,-1.0721,-1.0853,-1.0853,-1.1118,-1.138,-1.1512,-1.2037,-1.2828,-1.3608,-1.439,-1.4903,-1.5033,-1.5298,-1.5689,-1.6996,-1.7389,-1.7647,-1.8542,-1.867,-1.8542,-1.777,-1.712,-1.5824,-1.3739,-1.2828,-1.1909,-1.0853,-1.0721,-1.0721,-1.0721,-1.0721,-1.0721,-1.0721,-1.0721,-1.0721,-1.0721,-1.0721,-1.0721,-1.0721,-1.0721,-1.0721,-1.0721,-1.0721,-1.0721,-1.0721,-1.0721,-1.0721,-1.0721,-1.0721,-1.0721,-1.0721,-1.0721,-1.0721,-1.0721,-1.0721,-1.0721,-1.0721,-1.0721,-1.0721,-1.0721,-1.0721,-1.0721,-1.0721,-2.1109,-2.1109,-2.1109,-2.1109,-2.1109,-2.1109,-2.1109,-2.1109,-2.1109,-2.1109,-2.1109,-2.1109,-2.1109,-2.1149,-2.1169,-2.1169,-2.1169,-2.1156,-2.1109,-2.1109,-2.1109,-2.1109,-2.1109,-2.1109,-2.1109,-2.1109,-2.1109,-2.1109,-2.1109,-2.1109,-2.1109,-2.1109,-2.1109,-2.1109,-2.1109,-2.1109,-2.1109,-2.1109,-2.1109,-2.1109,-2.1109,-2.1109,-2.1109,-2.0736,-1.9973,-1.8944,-1.7518,-1.5047,-1.2305,-1.1516,-1.0982,-1.0721,-1.0721,-1.0853,-1.1115,-1.1115,-1.1644,-1.2173,-1.2561,-1.3337,-1.4254,-1.4912,-1.6084,-1.7243,-1.7893,-1.7507,-1.7372,-1.815,-1.8798,-1.9316,-1.945,-1.9711,-1.959,-1.8571,-1.7653,-1.6219,-1.4137,-1.2964,-1.1909,-1.0853,-1.0721,-1.0721,-1.0721,-1.0721,-1.0721,-1.0721,-1.0721,-1.0721,-1.0721,-1.0721,-1.0721,-1.0721,-1.0721,-1.0721,-1.0721,-1.0721,-1.0721,-1.0721,-1.0721,-1.0721,-1.0721,-1.0721,-1.0721,-1.0721,-1.0721,-1.0721,-1.0721,-1.0721,-1.0721,-1.0721,-1.0721,-1.0721,-1.0721,-1.0721,-1.0721,-1.0721,-2.1109,-2.1109,-2.1109,-2.1109,-2.1109,-2.1109,-2.1109,-2.1109,-2.1109,-2.1109,-2.1109,-2.1109,-2.1109,-2.1109,-2.1109,-2.1109,-2.1109,-2.1109,-2.1109,-2.1109,-2.1109,-2.1109,-2.1109,-2.1109,-2.1109,-2.1109,-2.1109,-2.1109,-2.1109,-2.1109,-2.1109,-2.1109,-2.1109,-2.1109,-2.1109,-2.1109,-2.1109,-2.1109,-2.1109,-2.1109,-2.1109,-2.0982,-2.0729,-2.0221,-1.9322,-1.7899,-1.5559,-1.3341,-1.1644,-1.1247,-1.1115,-1.0982,-1.1516,-1.1648,-1.1909,-1.2297,-1.2951,-1.3604,-1.3866,-1.4907,-1.5954,-1.6473,-1.7512,-1.8547,-1.9316,-1.9188,-1.906,-1.9571,-1.9833,-1.9973,-2.0094,-1.9966,-1.9456,-1.8431,-1.7389,-1.5954,-1.387,-1.2828,-1.1909,-1.0853,-1.0721,-1.0721,-1.0721,-1.0721,-1.0721,-1.0721,-1.0721,-1.0721,-1.0721,-1.0721,-1.0721,-1.0721,-1.0721,-1.0721,-1.0721,-1.0721,-1.0721,-1.0721,-1.0721,-1.0721,-1.0721,-1.0721,-1.0721,-1.0721,-1.0721,-1.0721,-1.0721,-1.0721,-1.0721,-1.0721,-1.0721,-1.0721,-1.0721,-1.0721,-1.0721,-1.0721]},{"header":{"parameterUnit":"m.s-1","parameterCategory":1,"la1":30.6,"la2":28.766,"lo1":-90.7593,"lo2":-88.6598,"dy":0.0162,"dx":0.0183,"nx":116,"ny":114,"refTime":"2024-06-26T12:00:00:Z","depth":0,"parameterNumber":3,"parameterNumberName":"V-component_of_WINDS"},"data":[0.0,0.0,0.0,0.0,0.0,0.0,0.0,0.0,0.0,0.0,0.0,0.0,0.0,0.0,0.0,0.0,0.0,0.0,0.0,0.0,0.0,0.0,0.0,0.0,0.0,0.0,0.0,0.0,0.0,0.0,0.0,0.0,0.0,0.0,0.0,0.0,0.0,0.0,0.0,0.0,0.0,0.0,0.0,0.0,0.0,0.0,0.0,0.0,0.0,0.0,0.0,0.0,0.0,0.0,0.0,0.0,0.0,0.0,0.0,0.0,0.0,0.0,0.0,0.0,0.0,0.0,0.0,0.0,0.0,0.0,0.0,0.0,0.0,0.0,0.0,0.0,0.0,0.0,0.0,0.0,0.0,0.0,0.0,0.0,0.0,0.0,0.0,0.0,0.0,0.0,0.0,0.0,0.0,0.0,0.0,0.0,0.0,0.0,0.0,0.0,0.0,0.0,0.0,0.0,0.0,0.0,0.0,0.0,0.0,0.0,0.0,0.0,0.0,0.0,0.0,0.0,0.0,0.0,0.0,0.0,0.0,0.0,0.0,0.0,0.0,0.0,0.0,0.0,0.0,0.0,0.0,0.0,0.0,0.0,0.0,0.0,0.0,0.0,0.0,0.0,0.0,0.0,0.0,0.0,0.0,0.0,0.0,0.0,0.0,0.0,0.0,0.0,0.0,0.0,0.0,0.0,0.0,0.0,0.0,0.0,0.0,0.0,0.0,0.0,0.0,0.0,0.0,0.0,0.0,0.0,0.0,0.0,0.0,0.0,0.0,0.0,0.0,0.0,0.0,0.0,0.0,0.0,0.0,0.0,0.0,0.0,0.0,0.0,0.0,0.0,0.0,0.0,0.0,0.0,0.0,0.0,0.0,0.0,0.0,0.0,0.0,0.0,0.0,0.0,0.0,0.0,0.0,0.0,0.0,0.0,0.0,0.0,0.0,0.0,0.0,0.0,0.0,0.0,0.0,0.0,0.0,0.0,0.0,0.0,0.0,0.0,0.0,0.0,0.0,0.0,0.0,0.0,0.0,0.0,0.0,0.0,0.0,0.0,0.0,0.0,0.0,0.0,0.0,0.0,0.0,0.0,0.0,0.0,0.0,0.0,0.0,0.0,0.0,0.0,0.0,0.0,0.0,0.0,0.0,0.0,0.0,0.0,0.0,0.0,0.0,0.0,0.0,0.0,0.0,0.0,0.0,0.0,0.0,0.0,0.0,0.0,0.0,0.0,0.0,0.0,0.0,0.0,0.0,0.0,0.0,0.0,0.0,0.0,0.0,0.0,0.0,0.0,0.0,0.0,0.0,0.0,0.0,0.0,0.0,0.0,0.0,0.0,0.0,0.0,0.0,0.0,0.0,0.0,0.0,0.0,0.0,0.0,0.0,0.0,0.0,0.0,0.0,0.0,0.0,0.0,0.0,0.0,0.0,0.0,0.0,0.0,0.0,0.0,0.0,0.0,0.0,0.0,0.0,0.0,0.0,0.0,0.0,0.0,0.0,0.0,0.0,0.0,0.0,0.0,0.0,0.0,0.0,0.0,0.0,0.0,0.0,0.0,0.0,0.0,0.0,0.0,0.0,0.0,0.0,0.0,0.0,0.0,0.0,0.0,0.0,0.0,0.0,0.0,0.0,0.0,0.0,0.0,0.0,0.0,0.0,0.0,0.0,0.0,0.0,0.0,0.0,0.0,0.0,0.0,0.0,0.0,0.0,0.0,0.0,0.0,0.0,0.0,0.0,0.0,0.0,0.0,0.0,0.0,0.0,0.0,0.0,0.0,0.0,0.0,0.0,0.0,0.0,0.0,0.0,0.0,0.0,0.0,0.0,0.0,0.0,0.0,0.0,0.0,0.0,0.0,0.0,0.0,0.0,0.0,0.0,0.0,0.0,0.0,0.0,0.0,0.0,0.0,0.0,0.0,0.0,0.0,0.0,0.0,0.0,0.0,0.0,0.0,0.0,0.0,0.0,0.0,0.0,0.0,0.0,0.0,0.0,0.0,0.0,0.0,0.0,0.0,0.0,0.0,0.0,0.0,0.0,0.0,0.0,0.0,0.0,0.0,0.0,0.0,0.0,0.0,0.0,0.0,0.0,0.0,0.0,0.0,0.0,0.0,0.0,0.0,0.0,0.0,0.0,0.0,0.0,0.0,0.0,0.0,0.0,0.0,0.0,0.0,0.0,0.0,0.0,0.0,0.0,0.0,0.0,0.0,0.0,0.0,0.0,0.0,0.0,0.0,0.0,0.0,0.0,0.0,0.0,0.0,0.0,0.0,0.0,0.0,0.0,0.0,0.0,0.0,0.0,0.0,0.0,0.0,0.0,0.0,0.0,0.0,0.0,0.0,0.0,0.0,0.0,0.0,0.0,0.0,0.0,0.0,0.0,0.0,0.0,0.0,0.0,0.0,0.0,0.0,0.0,0.0,0.0,0.0,0.0,0.0,0.0,0.0,0.0,0.0,0.0,0.0,0.0,0.0,0.0,0.0,0.0,0.0,0.0,0.0,0.0,0.0,0.0,0.0,0.0,0.0,0.0,0.0,0.0,0.0,0.0,0.0,0.0,0.0,0.0,0.0,0.0,0.0,0.0,0.0,0.0,0.0,0.0,0.0,0.0,0.0,0.0,0.0,0.0,0.0,0.0,0.0,0.0,0.0,0.0,0.0,0.0,0.0,0.0,0.0,0.0,0.0,0.0,0.0,0.0,0.0,0.0,0.0,0.0,0.0,0.0,0.0,0.0,0.0,0.0,0.0,0.0,0.0,0.0,0.0,0.0,0.0,0.0,0.0,0.0,0.0,0.0,0.0,0.0,0.0,0.0,0.0,0.0,0.0,0.0,0.0,0.0,0.0,0.0,0.0,0.0,0.0,0.0,0.0,0.0,0.0,0.0,0.0,0.0,0.0,0.0,0.0,0.0,0.0,0.0,0.0,0.0,0.0,0.0,0.0,0.0,0.0,0.0,0.0,0.0,0.0,0.0,0.0,0.0,0.0,0.0,0.0,0.0,0.0,0.0,0.0,0.0,0.0,0.0,0.0,0.0,0.0,0.0,0.0,0.0,0.0,0.0,0.0,0.0,0.0,0.0,0.0,0.0,0.0,0.0,0.0,0.0,0.0,0.0,0.0,0.0,0.0,0.0,0.0,0.0,0.0,0.0,0.0,0.0,0.0,0.0,0.0,0.0,0.0,0.0,0.0,0.0,0.0,0.0,0.0,0.0,0.0,0.0,0.0,0.0,0.0,0.0,0.0,0.0,0.0,0.0,0.0,0.0,0.0,0.0,0.0,0.0,0.0,0.0,0.0,0.0,0.0,0.0,0.0,0.0,0.0,0.0,0.0,0.0,0.0,0.0,0.0,0.0,0.0,0.0,0.0,0.0,0.0,0.0,0.0,0.0,0.0,0.0,0.0,0.0,0.0,0.0,0.0,0.0,0.0,0.0,0.0,0.0,0.0,0.0,0.0,0.0,0.0,0.0,0.0,0.0,0.0,0.0,0.0,0.0,0.0,0.0,0.0,0.0,0.0,0.0,0.0,0.0,0.0,0.0,0.0,0.0,0.0,0.0,0.0,0.0,0.0,0.0,0.0,0.0,0.0,0.0,0.0,0.0,0.0,0.0,0.0,0.0,0.0,0.0,0.0,0.0,0.0,0.0,0.0,0.0,0.0,0.0,0.0,0.0,0.0,0.0,0.0,0.0,0.0,0.0,0.0,0.0,0.0,0.0,0.0,0.0,0.0,0.0,0.0,0.0,0.0,0.0,0.0,0.0,0.0,0.0,0.0,0.0,0.0,0.0,0.0,0.0,0.0,0.0,0.0,0.0,0.0,0.0,0.0,0.0,0.0,0.0,0.0,0.0,0.0,0.0,0.0,0.0,0.0,0.0,0.0,0.0,0.0,0.0,0.0,0.0,0.0,0.0,0.0,0.0,0.0,0.0,0.0,0.0,0.0,0.0,0.0,0.0,0.0,0.0,0.0,0.0,0.0,0.0,0.0,0.0,0.0,0.0,0.0,0.0,0.0,0.0,0.0,0.0,0.0,0.0,0.0,0.0,0.0,0.0,0.0,0.0,0.0,0.0,0.0,0.0,0.0,0.0,0.0,0.0,0.0,0.0,0.0,0.0,0.0,0.0,0.0,0.0,0.0,0.0,0.0,0.0,0.0,0.0,0.0,0.0,0.0,0.0,0.0,0.0,0.0,0.0,0.0,0.0,0.0,0.0,0.0,0.0,0.0,0.0,0.0,0.0,0.0,0.0,0.0,0.0,0.0,0.0,0.0,0.0,0.0,0.0,0.0,0.0,0.0,0.0,0.0,0.0,0.0,0.0,0.0,0.0,0.0,0.0,0.0,0.0,0.0,0.0,0.0,0.0,0.0,0.0,0.0,0.0,0.0,0.0,0.0,0.0,0.0,0.0,0.0,0.0,0.0,0.0,0.0,0.0,0.0,0.0,0.0,0.0,0.0,0.0,0.0,0.0,0.0,0.0,0.0,0.0,0.0,0.0,0.0,0.0,0.0,0.0,0.0,0.0,0.0,0.0,0.0,0.0,0.0,0.0,0.0,0.0,0.0,0.0,0.0,0.0,0.0,0.0,0.0,0.0,0.0,0.0,0.0,0.0,0.0,0.0,0.0,0.0,0.0,0.0,0.0,0.0,0.0,0.0,0.0,0.0,0.0,0.0,0.0,0.0,0.0,0.0,0.0,0.0,0.0,0.0,0.0,0.0,0.0,0.0,0.0,0.0,0.0,0.0,0.0,0.0,0.0,0.0,0.0,0.0,0.0,0.0,0.0,0.0,0.0,0.0,0.0,0.0,0.0,0.0,0.0,0.0,0.0,0.0,0.0,0.0,0.0,0.0,0.0,0.0,0.0,0.0,0.0,0.0,0.0,0.0,0.0,0.0,0.0,0.0,0.0,0.0,0.0,0.0,0.0,0.0,0.0,0.0,0.0,0.0,0.0,0.0,0.0,0.0,0.0,0.0,0.0,0.0,0.0,0.0,0.0,0.0,0.0,0.0,0.0,0.0,0.0,0.0,0.0,0.0,0.0,0.0,0.0,0.0,0.0,0.0,0.0,0.0,0.0,0.0,0.0,0.0,0.0,0.0,0.0,0.0,0.0,0.0,0.0,0.0,0.0,0.0,0.0,0.0,0.0,0.0,0.0,0.0,0.0,0.0,0.0,0.0,0.0,0.0,0.0,0.0,0.0,0.0,0.0,0.0,0.0,0.0,0.0,0.0,0.0,0.0,0.0,0.0,0.0,0.0,0.0,0.0,0.0,0.0,0.0,0.0,0.0,0.0,0.0,0.0,0.0,0.0,0.0,0.0,0.0,0.0,0.0,0.0,0.0,0.0,0.0,0.0,0.0,0.0,0.0,0.0,0.0,0.0,0.0,0.0,0.0,0.0,0.0,0.0,0.0,0.0,0.0,0.0,0.0,0.0,0.0,0.0,0.0,0.0,0.0,0.0,0.0,0.0,0.0,0.0,0.0,0.0,0.0,0.0,0.0,0.0,0.0,0.0,0.0,0.0,0.0,0.0,0.0,0.0,0.0,0.0,0.0,0.0,0.0,0.0,0.0,0.0,0.0,0.0,0.0,0.0,0.0,0.0,0.0,0.0,0.0,0.0,0.0,0.0,0.0,0.0,0.0,0.0,0.0,0.0,0.0,0.0,0.0,0.0,0.0,0.0,0.0,0.0,0.0,0.0,0.0,0.0,0.0,0.0,0.0,0.0,0.0,0.0,0.0,0.0,0.0,0.0,0.0,0.0,0.0,0.0,0.0,0.0,0.0,0.0,0.0,0.0,0.0,0.0,0.0,0.0,0.0,0.0,0.0,0.0,0.0,0.0,0.0,0.0,0.0,0.0,0.0,0.0,0.0,0.0,0.0,0.0,0.0,0.0,0.0,0.0,0.0,0.0,0.0,0.0,0.0,0.0,0.0,0.0,0.0,0.0,0.0,0.0,0.0,0.0,0.0,0.0,0.0,0.0,0.0,0.0,0.0,0.0,0.0,0.0,0.0,0.0,0.0,0.0,0.0,0.0,0.0,0.0,0.0,0.0,0.0,0.0,0.0,0.0,0.0,0.0,0.0,0.0,0.0,0.0,0.0,-3.6758,0.0,0.0,0.0,0.0,0.0,0.0,0.0,0.0,0.0,0.0,0.0,0.0,0.0,0.0,0.0,0.0,0.0,0.0,0.0,0.0,0.0,0.0,0.0,0.0,-2.4974,-2.5506,-2.5556,-2.5585,-2.5595,-2.5595,0.0,0.0,0.0,0.0,0.0,-2.5551,-2.5965,-2.6178,-2.6162,-2.7478,-2.8325,-2.8778,-2.875,-2.809,-2.6942,0.0,0.0,0.0,0.0,0.0,0.0,0.0,0.0,0.0,0.0,0.0,0.0,0.0,0.0,0.0,0.0,0.0,0.0,0.0,0.0,0.0,0.0,0.0,0.0,0.0,0.0,0.0,0.0,0.0,0.0,0.0,0.0,0.0,0.0,0.0,0.0,0.0,0.0,0.0,0.0,0.0,0.0,0.0,0.0,0.0,0.0,0.0,0.0,0.0,0.0,0.0,0.0,0.0,0.0,0.0,0.0,0.0,0.0,0.0,0.0,0.0,0.0,0.0,0.0,0.0,0.0,0.0,0.0,0.0,0.0,0.0,-4.0137,0.0,0.0,0.0,0.0,0.0,0.0,0.0,0.0,0.0,0.0,0.0,0.0,0.0,0.0,0.0,0.0,0.0,0.0,0.0,0.0,0.0,-2.3141,-2.4084,-2.5105,-2.5762,-2.5803,-2.5951,-2.5987,-2.5814,-2.5823,0.0,0.0,0.0,-2.5662,-2.5823,-2.6539,-2.7075,-2.7376,-2.9258,-3.0707,-3.1723,-3.2602,-3.1875,-2.9851,-2.9396,0.0,0.0,0.0,0.0,0.0,0.0,0.0,0.0,0.0,0.0,0.0,0.0,0.0,0.0,0.0,0.0,0.0,0.0,0.0,0.0,0.0,0.0,0.0,0.0,0.0,0.0,0.0,0.0,0.0,0.0,0.0,0.0,0.0,0.0,0.0,0.0,0.0,0.0,0.0,0.0,0.0,0.0,0.0,0.0,0.0,0.0,0.0,0.0,0.0,0.0,0.0,0.0,0.0,0.0,0.0,0.0,0.0,0.0,0.0,0.0,0.0,0.0,0.0,-4.731,-4.8256,-4.9797,-4.9953,-5.0407,-5.0898,-4.7441,-4.5039,-4.3418,-4.1875,0.0,0.0,0.0,0.0,0.0,0.0,0.0,0.0,0.0,0.0,0.0,0.0,0.0,0.0,0.0,0.0,0.0,0.0,0.0,-2.3152,-2.4025,-2.5615,-2.6629,-2.663,-2.7394,-2.7509,-2.6701,-2.6704,0.0,0.0,-2.5604,-2.595,-2.671,-2.6898,-2.7725,-2.9238,-3.1694,-3.3727,-3.533,-3.6202,-3.6433,-3.6001,-3.3732,-3.2311,-3.1552,0.0,0.0,0.0,0.0,0.0,0.0,0.0,0.0,0.0,0.0,0.0,0.0,0.0,0.0,0.0,0.0,0.0,0.0,0.0,0.0,0.0,0.0,0.0,0.0,0.0,0.0,0.0,0.0,0.0,0.0,0.0,0.0,0.0,0.0,0.0,0.0,0.0,0.0,0.0,0.0,0.0,-3.1736,-3.4106,0.0,0.0,0.0,0.0,0.0,0.0,0.0,0.0,0.0,0.0,0.0,0.0,0.0,-4.5713,-4.7475,-4.8418,-4.9481,-5.0635,-5.1469,-5.236,-5.3359,-5.4101,-5.4511,-5.4648,-5.4824,0.0,-4.7969,-4.6992,0.0,0.0,0.0,0.0,0.0,0.0,0.0,0.0,0.0,0.0,0.0,0.0,0.0,0.0,0.0,0.0,0.0,0.0,0.0,0.0,0.0,-2.6331,-2.7006,-2.7531,-2.7957,-2.8032,-2.7612,-2.7615,-2.7255,-2.6418,-2.6855,-2.7067,-2.6955,-2.8424,-3.0501,-3.3202,-3.5269,-3.6914,-3.8171,-3.9535,-4.0148,-4.0091,-3.9418,-3.7601,-3.4972,-3.412,0.0,0.0,0.0,0.0,0.0,0.0,0.0,0.0,0.0,0.0,0.0,0.0,0.0,0.0,0.0,0.0,0.0,0.0,0.0,0.0,0.0,0.0,0.0,0.0,0.0,0.0,0.0,0.0,0.0,0.0,0.0,0.0,0.0,0.0,0.0,0.0,0.0,0.0,0.0,-3.222,-3.494,-3.6482,-3.7616,-3.7928,0.0,0.0,0.0,0.0,0.0,0.0,0.0,0.0,0.0,-4.8467,-4.9963,-5.118,-5.2036,-5.3055,-5.4028,-5.4962,-5.5411,-5.6071,-5.6933,-5.7324,-5.748,-5.7519,-5.789,-5.6504,-5.3789,-5.1426,-4.9238,-4.7187,0.0,0.0,0.0,0.0,-4.4453,-4.5527,0.0,0.0,0.0,0.0,0.0,0.0,0.0,0.0,0.0,0.0,0.0,0.0,-2.6629,-2.7414,-2.8106,-2.8804,-2.9274,-2.9348,0.0,0.0,-2.842,-2.7378,-2.8177,-2.8424,-2.8012,-3.0979,-3.3997,-3.6965,-3.8643,-3.9925,0.0,-4.2284,-4.2961,-4.2974,-4.3833,-4.2128,-3.8524,-3.7438,-3.5468,0.0,0.0,0.0,0.0,0.0,0.0,0.0,0.0,0.0,0.0,0.0,0.0,0.0,0.0,0.0,0.0,0.0,0.0,0.0,0.0,0.0,0.0,0.0,0.0,0.0,0.0,0.0,0.0,0.0,0.0,0.0,0.0,0.0,0.0,0.0,0.0,0.0,0.0,-3.549,-3.7974,-3.9202,-4.0781,-4.1502,0.0,0.0,0.0,0.0,0.0,0.0,-4.7201,-5.0048,-5.1876,-5.23,-5.4246,-5.5437,-5.5726,-5.6569,-5.7478,-5.8435,-5.8511,-5.9,-5.9844,-5.9844,-5.9844,-5.9844,-5.9844,-5.9355,-5.8301,-5.5273,-5.3027,-5.1387,-5.0078,-4.9824,-5.0137,-4.9473,-4.9785,-5.0547,0.0,0.0,0.0,0.0,0.0,0.0,0.0,0.0,0.0,0.0,0.0,-2.5783,-2.6702,-2.9063,-3.0619,-3.0667,-3.2182,-3.2448,0.0,0.0,-2.994,-2.8305,-2.9066,-2.9908,-3.0691,-3.4836,-3.7834,0.0,0.0,0.0,0.0,0.0,0.0,-4.4705,-4.5512,-4.4487,-4.2022,-4.0327,-3.8135,-3.5664,0.0,0.0,0.0,0.0,0.0,0.0,0.0,0.0,0.0,0.0,0.0,0.0,0.0,0.0,0.0,0.0,0.0,0.0,0.0,0.0,0.0,0.0,0.0,0.0,0.0,0.0,0.0,0.0,0.0,0.0,0.0,0.0,0.0,0.0,0.0,0.0,0.0,0.0,0.0,-4.3316,-4.4516,0.0,0.0,0.0,0.0,-4.6586,-4.8971,-5.0779,-5.1548,-5.3318,-5.503,-5.6648,-5.6883,-5.7409,-5.8294,-5.8493,-5.9106,-6.0183,-6.0241,-6.0738,-6.1562,-6.1562,-6.1562,-6.1562,-6.1562,-6.1074,-6.0137,-5.8379,-5.6601,-5.5039,-5.4941,-5.4433,-5.373,-5.3691,-5.4238,-5.498,0.0,0.0,0.0,-2.0312,-2.0727,-2.1169,-2.1466,-2.2472,-2.3441,-2.4072,-2.5422,-2.6876,0.0,-2.9872,-3.1252,-3.237,-3.3048,-3.3141,-3.2513,0.0,-3.1971,-3.0857,-3.16,-3.2987,-3.4979,-3.758,-3.975,0.0,0.0,0.0,0.0,0.0,0.0,0.0,-4.585,-4.5549,-4.4676,-4.3006,-4.0845,-3.8416,-3.7226,-3.4863,0.0,0.0,0.0,0.0,0.0,0.0,0.0,0.0,0.0,0.0,0.0,0.0,0.0,0.0,0.0,0.0,0.0,0.0,0.0,0.0,0.0,0.0,0.0,0.0,0.0,0.0,0.0,0.0,0.0,0.0,0.0,0.0,0.0,0.0,0.0,0.0,0.0,-4.6235,-4.7815,0.0,-4.9527,-5.0413,-5.1202,-5.176,-5.3626,-5.4876,-5.5164,-5.678,-5.8242,-5.9396,-6.0022,-6.0785,-6.1776,-6.195,-6.229,-6.2736,-6.2867,-6.3063,-6.3359,-6.2793,-6.2539,-6.2519,-6.1933,-6.1523,-6.1191,-6.0586,-5.9336,-5.7812,-5.7812,-5.7617,-5.7344,-5.7344,-5.7539,-5.7812,-2.0312,-2.0312,0.0,-2.0312,-2.0977,-2.1603,-2.19,-2.3165,-2.4317,-2.4957,-2.632,-2.7884,-2.9616,-3.0917,-3.2235,-3.3676,-3.4089,-3.4146,-3.3866,-3.3847,-3.3594,-3.3066,-3.4394,-3.623,-3.8574,-4.026,-4.1818,0.0,0.0,0.0,0.0,0.0,0.0,0.0,0.0,-4.6455,-4.6469,-4.5415,-4.3505,-4.1107,-4.0234,-3.7988,-3.5098,0.0,0.0,0.0,0.0,0.0,0.0,0.0,0.0,0.0,0.0,0.0,0.0,0.0,0.0,0.0,0.0,0.0,0.0,0.0,0.0,0.0,0.0,0.0,0.0,0.0,0.0,0.0,0.0,0.0,0.0,0.0,0.0,0.0,0.0,0.0,-4.7676,-4.9382,-5.1195,-5.2619,-5.3503,-5.4143,-5.4953,-5.6107,-5.7492,-5.8396,-5.8684,-6.0031,-6.105,-6.1627,-6.2213,-6.2866,-6.3594,-6.3757,-6.392,-6.4103,-6.4216,-6.427,-6.4277,-6.3691,-6.3437,-6.3418,-6.2832,-6.2578,-6.2578,-6.2578,-6.1758,-6.0449,-6.0156,-6.0039,-6.0039,-6.0039,-6.0039,-6.0039,-2.0312,-2.0312,-2.0312,-2.035,-2.1015,-2.1833,-2.2708,-2.357,-2.4759,-2.6483,-2.7528,-2.8783,-3.0467,-3.2246,-3.3692,-3.4564,-3.5467,-3.5647,-3.4799,-3.4745,-3.4766,-3.4824,-3.7305,-3.9492,-4.123,-4.2898,0.0,0.0,0.0,0.0,0.0,0.0,0.0,0.0,0.0,-4.7328,-4.7446,-4.7513,-4.6099,-4.3743,-4.2832,-4.0976,-3.8711,0.0,0.0,0.0,0.0,0.0,0.0,0.0,0.0,0.0,0.0,0.0,0.0,0.0,0.0,0.0,0.0,0.0,0.0,0.0,0.0,0.0,0.0,0.0,0.0,0.0,0.0,0.0,0.0,0.0,0.0,0.0,0.0,0.0,-4.551,-4.8359,-5.1079,-5.2809,-5.461,-5.6038,-5.6921,-5.7085,-5.78,-5.9492,-6.0396,-6.1243,-6.2089,-6.2878,-6.332,-6.3339,-6.3339,-6.3438,-6.3671,-6.3763,-6.3934,-6.4169,-6.4255,-6.432,-6.4375,-6.4355,-6.4336,-6.4336,-6.4316,-6.4297,-6.4297,-6.4297,-6.3808,-6.2949,-6.207,-6.1719,-6.1699,-6.1699,-6.1699,-6.1699,-2.0312,-2.0312,-2.0504,-2.1124,-2.1949,-2.2789,-2.362,-2.4475,-2.5436,-2.6552,-2.8023,-2.9641,-3.136,-3.3118,-3.4535,-3.5463,-3.5782,-3.5854,-3.5659,-3.5644,-3.6211,-3.7461,-3.9434,0.0,-4.2973,0.0,0.0,0.0,0.0,0.0,0.0,0.0,0.0,0.0,0.0,-4.8263,-4.8358,-4.8404,-4.7701,-4.6407,-4.4881,-4.3105,-4.1289,0.0,0.0,0.0,0.0,0.0,0.0,0.0,0.0,0.0,0.0,0.0,0.0,0.0,0.0,0.0,0.0,0.0,0.0,0.0,0.0,0.0,0.0,0.0,0.0,0.0,0.0,0.0,0.0,0.0,0.0,0.0,0.0,-5.0061,-5.0082,-5.1924,-5.3923,-5.5657,-5.687,-5.8123,-5.9585,-5.9742,-6.0454,-6.2127,-6.2493,-6.2724,-6.2954,-6.3185,-6.3589,-6.4224,-6.4292,-6.4679,-6.5489,-6.5599,-6.5766,-6.5978,-6.6049,-6.6117,-6.6152,-6.5527,-6.5234,-6.5215,-6.457,-6.4297,-6.4297,-6.4297,-6.416,-6.3867,-6.2988,-6.2265,-6.1699,-6.1699,-6.1699,-6.1699,-2.0337,-2.0634,-2.1053,-2.1543,-2.2643,-2.3581,-2.4039,-2.4839,-2.5841,-2.7043,-2.8103,-2.9685,-3.2134,-3.3333,-3.4462,-3.5721,-3.5878,-3.6068,-3.6472,-3.7538,-3.8594,-3.9648,0.0,0.0,0.0,0.0,0.0,0.0,0.0,0.0,0.0,0.0,0.0,0.0,-4.8757,-4.9216,-4.9286,-4.9362,-4.9114,-4.8571,-4.7186,-4.5371,-4.3437,-4.2969,-4.1719,-4.0137,-3.9629,-3.8887,-3.8047,-3.7168,0.0,0.0,0.0,0.0,0.0,0.0,0.0,0.0,0.0,0.0,0.0,0.0,0.0,0.0,0.0,0.0,0.0,0.0,0.0,0.0,0.0,0.0,0.0,0.0,-5.1043,-5.3407,-5.4872,-5.5599,-5.664,-5.8377,-5.9358,-6.0416,-6.1723,-6.1858,-6.2397,-6.3743,-6.4185,-6.4551,-6.4878,-6.5243,-6.5667,-6.6186,-6.6261,-6.6614,-6.729,-6.7418,-6.7597,-6.7779,-6.7851,-6.7738,-6.7422,-6.6914,-6.6484,-6.6113,-6.5605,-6.539,-6.539,-6.539,-6.5176,0.0,0.0,0.0,0.0,0.0,-6.2246,-6.2187,-2.0539,-2.1248,-2.188,-2.1977,-2.3223,-2.4219,-2.425,-2.4904,-2.6014,-2.7681,-2.8036,-2.937,-3.2607,-3.3083,-3.3829,-3.5417,-3.5675,-3.6162,-3.7142,-3.9645,0.0,-4.1328,-4.3691,0.0,0.0,0.0,0.0,0.0,0.0,0.0,0.0,0.0,0.0,0.0,-4.9702,-5.0177,-5.0258,-5.0304,-5.0285,-5.0139,-4.9353,-4.7598,-4.543,-4.5332,-4.4277,-4.2832,-4.2734,-4.2168,-4.1367,-4.0586,0.0,0.0,0.0,0.0,0.0,0.0,0.0,0.0,0.0,0.0,0.0,0.0,0.0,0.0,0.0,0.0,0.0,0.0,0.0,0.0,0.0,0.0,0.0,0.0,-5.437,-5.6179,-5.9223,-5.9138,-5.9331,-6.0781,-6.1704,-6.2551,-6.3378,-6.3551,-6.3955,-6.482,-6.5686,-6.6494,-6.7205,0.0,0.0,0.0,0.0,-6.8606,-6.8801,-6.8946,-6.9123,-6.9294,-6.9367,-6.9026,-6.834,-6.834,-6.791,-6.7187,-6.7187,-6.7129,-6.7051,-6.7051,-6.6523,-6.5644,-6.4687,-6.4297,-6.4219,-6.3437,-6.3144,-6.3027,-2.1449,-2.2142,-2.298,-2.3668,-2.4072,-2.4477,-2.5066,-2.5335,-2.6051,-2.769,-2.8577,-2.9815,-3.1825,-3.2687,-3.3529,-3.4565,-3.4714,-3.5457,0.0,0.0,-4.1418,0.0,0.0,0.0,0.0,0.0,0.0,0.0,0.0,0.0,0.0,0.0,0.0,-4.9673,-5.0625,-5.1096,-5.1147,-5.1156,-5.0786,-5.0194,-5.0019,-4.9219,-4.8066,-4.7363,-4.6445,-4.5449,-4.4746,-4.3945,-4.3183,-4.3027,-4.2383,-4.1406,-3.9879,0.0,0.0,0.0,0.0,0.0,0.0,0.0,0.0,0.0,0.0,0.0,0.0,0.0,0.0,0.0,0.0,0.0,0.0,0.0,0.0,-5.4857,-5.7665,-5.98,-6.0454,-6.1589,-6.218,-6.1877,-6.257,-6.3416,-6.4282,-6.4974,-6.5743,-6.6551,-6.7417,-6.7975,-6.8148,-6.8321,-6.8424,-6.8475,-6.8598,-6.8738,-6.8892,-6.9069,-6.9221,-6.9314,0.0,0.0,-6.918,-6.918,-6.9082,-6.8926,-6.8926,-6.8555,-6.7949,-6.7949,-6.7422,-6.6484,-6.4902,-6.4297,-6.4277,-6.4101,-6.4057,-6.3919,-2.2925,-2.3377,-2.3837,-2.4222,-2.4659,-2.5054,-2.5402,-2.544,-2.587,-2.7101,-2.8028,-2.9236,-3.0914,-3.1901,-3.2791,-3.3633,-3.4999,0.0,0.0,0.0,0.0,0.0,0.0,0.0,0.0,0.0,0.0,0.0,0.0,0.0,0.0,0.0,0.0,-5.0625,-5.1137,-5.1369,-5.1408,-5.1396,-5.1169,-5.0801,-5.0801,-5.0547,-5.0019,-4.873,-4.7715,-4.6894,-4.6465,-4.5742,-4.5,-4.5,-4.4414,-4.3554,-4.2711,-4.1537,-4.0184,0.0,0.0,0.0,0.0,0.0,0.0,0.0,0.0,0.0,0.0,0.0,0.0,0.0,0.0,-5.0587,-5.2281,0.0,-5.6344,-5.8063,-6.0104,-6.1665,-6.2131,-6.3242,-6.3849,-6.3397,-6.3705,-6.4455,-6.5724,-6.6244,-6.684,-6.7686,-6.8571,-6.9052,-6.9052,-6.9436,-6.9675,-6.9753,-6.9923,-7.0058,-7.0205,-7.0412,-7.0547,-7.0645,-7.0687,-7.0471,-7.0058,-7.0058,-6.9824,-6.9453,-6.9453,-6.9199,-6.8769,-6.8379,-6.7695,-6.6816,-6.5937,-6.5605,-6.5547,-6.5117,-6.4953,-6.4838,-2.437,-2.4573,-2.4598,-2.4566,-2.5125,-2.5571,-2.5492,-2.544,-2.5698,-2.6495,-2.7229,-2.8232,-2.9743,-3.0593,-3.1502,-3.2659,0.0,0.0,0.0,0.0,0.0,0.0,0.0,0.0,0.0,0.0,0.0,0.0,0.0,0.0,0.0,0.0,-5.1454,-5.1573,-5.1807,-5.1907,-5.1884,-5.1718,-5.1641,-5.1641,-5.1465,-5.1406,-5.125,-4.9902,-4.875,-4.7832,-4.7656,-4.7031,-4.6308,-4.6308,-4.582,-4.5215,-4.5055,-4.4039,-4.2715,-4.1779,-4.0964,0.0,0.0,0.0,0.0,0.0,0.0,0.0,0.0,0.0,-5.1318,-5.1818,-5.3704,-5.563,-5.6828,-5.8198,-5.9687,-6.1273,-6.222,-6.3011,-6.3767,-6.4514,-6.4964,-6.4913,-6.5018,-6.5653,-6.6981,-6.7449,-6.793,-6.8662,-6.9508,-6.999,-6.9963,-7.0579,-7.0979,-7.103,-7.1228,-7.1397,-7.1536,-7.1738,-7.1877,-7.2007,-7.1997,-7.163,-7.0957,-7.0957,-7.0605,-6.998,-6.9805,-6.9707,-6.959,-6.8789,-6.7949,-6.7148,-6.7148,-6.7051,-6.6816,-6.6113,-6.5832,-6.5711,-2.5197,-2.5363,-2.5381,-2.5446,-2.5532,-2.557,-2.5437,-2.5455,-2.5765,-2.6506,-2.6747,-2.7181,-2.8077,-2.827,-2.9301,-3.1714,-3.5048,0.0,0.0,0.0,0.0,0.0,0.0,0.0,0.0,0.0,0.0,0.0,0.0,0.0,0.0,-5.1998,-5.2465,-5.2575,-5.3354,-5.3709,-5.3666,-5.2888,-5.2558,-5.248,-5.1719,-5.1406,-5.1387,-5.1191,-5.0137,-4.8652,-4.7871,-4.7031,-4.6308,-4.6308,-4.623,-4.6015,-4.525,-4.4867,-4.4512,-4.3582,0.0,-4.3208,-4.3854,-4.5578,0.0,-4.7373,-4.8759,-5.0317,0.0,0.0,-5.3568,-5.5838,-5.7189,-5.8678,-6.1055,-6.1736,-6.2278,-6.3225,-6.4113,-6.4713,-6.4831,-6.5529,-6.5992,-6.5945,-6.653,-6.6979,-6.7171,-6.8636,-6.9629,-6.9736,-7.0556,-7.0995,-7.087,-7.1017,-7.1106,-7.1178,-7.1358,-7.1545,-7.1675,-7.1829,-7.1926,-7.2007,-7.2005,-7.1953,-7.1855,-7.1855,-7.1816,-7.168,-7.0898,-7.0566,-7.0488,-6.9687,-6.8847,-6.8047,-6.8047,-6.7578,-6.6894,-6.6797,-6.6711,-6.6536,-2.5277,-2.544,-2.5456,-2.5476,-2.5471,-2.5471,-2.5414,-2.5407,-2.5543,-2.5803,-2.6314,-2.6766,-2.7104,-2.8018,-2.9443,-3.1557,-3.448,0.0,-3.9336,0.0,0.0,0.0,0.0,0.0,0.0,0.0,0.0,0.0,0.0,0.0,0.0,-5.224,-5.2662,-5.2732,-5.361,-5.3996,-5.3936,-5.3064,-5.2695,-5.2617,-5.1758,-5.1406,-5.1348,-5.0879,-4.9941,-4.8848,-4.8496,-4.7461,0.0,0.0,-4.6308,-4.623,-4.5875,-4.5765,-4.5574,-4.4631,-4.4663,0.0,-4.5866,0.0,0.0,0.0,-5.1972,-5.3818,-5.4684,-5.6299,-5.7956,-5.9037,-6.0393,-6.1732,-6.2878,-6.3572,-6.4125,0.0,-6.5328,-6.5878,-6.5925,-6.6144,-6.6314,-6.6279,-6.698,-6.7636,-6.8046,-6.8792,-6.9647,-7.0631,-7.104,-7.1233,-7.1166,-7.1205,-7.125,-7.1317,-7.1471,-7.1626,-7.1757,-7.1897,-7.1963,-7.2007,-7.2007,-7.1992,-7.1992,-7.1992,-7.1992,-7.1972,-7.1601,-7.1172,-7.0664,-7.0332,-6.9687,-6.8906,-6.8945,-6.8418,-6.7598,-6.709,-6.6871,-6.6809,-2.5253,-2.537,-2.537,-2.537,-2.5369,-2.5374,-2.5393,-2.5398,-2.539,-2.5303,-2.5842,-2.6333,-2.6564,-2.7901,-2.9555,-3.1542,-3.387,-3.6414,0.0,-4.1602,0.0,0.0,0.0,0.0,0.0,0.0,0.0,0.0,0.0,0.0,-5.1414,-5.2284,-5.2836,-5.311,-5.3969,-5.4359,-5.4301,-5.3436,-5.293,-5.2617,-5.1758,-5.1269,-5.1016,-5.043,-4.9355,-4.8183,-4.8183,-4.7226,0.0,0.0,-4.5586,-4.5586,-4.5579,-4.5743,-4.5808,-4.5133,-4.5988,-4.728,-4.7973,0.0,0.0,-5.2819,-5.4705,-5.6648,-5.7514,-5.9152,-6.0737,-6.1475,-6.268,-6.3767,-6.4325,-6.5028,-6.563,-6.5997,-6.656,-6.6946,-6.6985,-6.6902,-6.675,-6.6489,-6.7039,-6.7701,-6.8413,-6.8955,-6.973,-7.0951,-7.1278,-7.1493,-7.1707,-7.1727,-7.1863,-7.2152,-7.2287,-7.2432,-7.2529,-7.267,-7.272,-7.2713,-7.2478,-7.2363,-7.2344,-7.2109,-7.1992,-7.1992,-7.1992,-7.164,-7.1055,-7.1055,-7.0547,-6.9765,-6.9805,-6.9316,-6.8457,-6.7578,-6.7088,-6.6878,-2.5313,-2.5303,-2.5303,-2.5303,-2.5313,-2.5313,-2.539,-2.5409,-2.539,-2.5303,-2.5322,-2.5659,-2.6505,-2.739,-2.8948,-3.1487,-3.3313,-3.5746,-3.908,-4.0959,0.0,0.0,0.0,0.0,0.0,0.0,0.0,0.0,0.0,0.0,-5.1414,-5.2282,-5.3144,-5.4004,-5.4863,-5.5254,-5.5195,-5.4336,-5.3476,-5.2617,-5.1758,-5.0937,-5.0234,-5.0215,-4.8613,-4.6387,-4.6387,0.0,0.0,0.0,-4.3789,-4.3789,-4.3771,-4.4367,0.0,-4.5012,-4.7281,0.0,0.0,0.0,-5.573,-5.5611,-5.69,-5.8445,-5.9331,-5.9686,-6.0538,-6.3011,-6.3651,-6.43,-6.6008,-6.6456,-6.6854,-6.7773,-6.8,-6.8033,-6.7961,-6.7953,-6.7606,-6.6692,-6.6663,-6.7042,0.0,-6.9405,-7.0367,-7.042,-7.1205,-7.2011,-7.2705,-7.2823,-7.3241,-7.4087,-7.4243,-7.4361,-7.4419,-7.4492,-7.4513,-7.4512,-7.3652,-7.3262,-7.3222,-7.2383,-7.1992,-7.1992,-7.1992,-7.1972,-7.1953,-7.1953,-7.1445,-7.0664,-7.0664,-7.0176,-6.9355,-6.8476,-6.7577,-6.6803,-2.5303,-2.5303,-2.5303,-2.5303,-2.5303,-2.5303,-2.5322,-2.5322,-2.5322,-2.5303,-2.5793,0.0,0.0,0.0,0.0,0.0,-3.2923,-3.4956,-3.6656,-3.9418,0.0,0.0,0.0,0.0,0.0,0.0,0.0,0.0,0.0,0.0,-5.1411,-5.2284,-5.2851,-5.3183,-5.4043,-5.4433,-5.4375,-5.3516,-5.2969,-5.2578,-5.1172,-5.0449,-5.0019,-4.8262,-4.707,-4.6074,0.0,0.0,0.0,0.0,-4.332,0.0,-4.3514,0.0,0.0,-4.7035,0.0,-5.1109,0.0,0.0,-5.6295,-5.737,-5.8472,-5.9534,-6.0384,-6.1079,-6.1792,-6.2732,-6.3418,-6.4076,-6.4753,-6.5423,-6.5991,-6.6361,-6.7358,-6.8109,-6.8134,-6.8086,-6.7956,-6.7634,-6.711,0.0,0.0,0.0,0.0,-7.0497,-7.1877,-7.2793,-7.3044,-7.3588,-7.4061,-7.4392,-7.4435,-7.4497,-7.4575,-7.4597,-7.4591,-7.459,-7.3711,-7.3301,-7.3262,-7.2402,-7.1992,-7.1992,-7.1992,-7.1992,-7.1992,-7.1992,-7.1836,-7.1562,-7.1562,-7.1035,-7.0254,-6.9961,-6.8945,-6.7634,-2.5303,-2.5303,-2.5303,-2.5303,-2.5303,0.0,0.0,0.0,0.0,0.0,0.0,0.0,0.0,0.0,0.0,0.0,0.0,-3.393,-3.5411,0.0,0.0,0.0,0.0,0.0,0.0,0.0,0.0,0.0,0.0,0.0,-5.0487,-5.1042,-5.146,-5.1796,-5.2362,-5.2617,-5.2578,-5.201,-5.16,-5.1249,-5.0134,-4.9333,-4.861,-4.6911,-4.57,0.0,0.0,0.0,0.0,0.0,0.0,0.0,0.0,0.0,0.0,-4.8897,-5.0922,-5.2584,0.0,-5.6052,-5.7776,-5.8806,-5.9717,-6.047,-6.1045,-6.1643,-6.2102,-6.2177,-6.2672,-6.3099,-6.3192,-6.3974,-6.4811,-6.5492,-6.7039,-6.8259,-6.8574,-6.8866,-6.8902,-6.8609,-6.8064,-6.7734,0.0,0.0,0.0,-7.0157,-7.2073,-7.3354,-7.3654,-7.4459,-7.5094,-7.5425,-7.5445,-7.5484,-7.5532,-7.5526,-7.5364,-7.5058,-7.4492,-7.3906,-7.3281,-7.2715,-7.2285,-7.1992,-7.1992,-7.1992,-7.1992,-7.1992,-7.1992,-7.1992,-7.1992,-7.166,-7.1133,-7.0801,-7.0019,-6.8925,-2.5303,-2.5303,-2.5303,0.0,0.0,0.0,0.0,0.0,0.0,0.0,0.0,0.0,0.0,0.0,0.0,0.0,0.0,0.0,-3.5161,0.0,0.0,0.0,0.0,-4.256,-4.4254,-4.5228,-4.6216,0.0,0.0,0.0,-4.8664,-4.8664,-4.9103,-4.9895,-4.9895,-4.9914,-4.9914,-4.9895,-4.9465,-4.874,-4.8649,-4.7647,-4.6206,-4.6069,0.0,0.0,0.0,0.0,0.0,0.0,0.0,0.0,0.0,0.0,0.0,0.0,0.0,-5.4382,-5.6008,-5.8243,-6.01,-6.0007,-6.0658,-6.1297,-6.1258,-6.1357,-6.1401,-6.1343,-6.1362,-6.1393,0.0,0.0,-6.3388,-6.5111,-6.6945,-6.8437,-6.9297,-7.0156,-7.039,0.0,0.0,0.0,0.0,0.0,0.0,-6.9654,0.0,-7.373,-7.4522,-7.546,-7.631,-7.7087,-7.7166,-7.7205,-7.7205,-7.7202,-7.6777,-7.5976,-7.5918,-7.5039,-7.3437,-7.334,-7.2851,-7.2051,-7.2012,-7.1992,-7.1992,-7.1992,-7.1992,-7.1992,-7.1992,-7.1992,-7.1894,-7.1074,-7.0742,-7.0469,0.0,0.0,0.0,0.0,0.0,0.0,0.0,0.0,0.0,0.0,0.0,0.0,0.0,0.0,0.0,0.0,0.0,0.0,0.0,0.0,0.0,0.0,0.0,0.0,-4.1561,-4.2512,0.0,0.0,0.0,0.0,-4.6722,-4.682,-4.6972,0.0,-4.7249,-4.7268,-4.7268,-4.7211,-4.7084,-4.683,0.0,-4.5631,-4.5105,0.0,0.0,0.0,0.0,0.0,0.0,0.0,0.0,0.0,0.0,0.0,-4.9746,0.0,0.0,-5.627,-5.7947,-5.9303,-6.0399,-6.1012,-6.135,-6.1355,-6.07,-6.0574,-6.0254,-5.9006,-5.8754,-5.8585,-5.7999,0.0,0.0,-6.2416,-6.5253,0.0,-6.9258,-7.0176,0.0,0.0,0.0,-7.0365,-7.036,-7.1733,0.0,0.0,-7.3511,-7.4648,-7.5507,-7.6386,-7.6951,-7.7165,-7.7184,-7.7204,-7.7204,-7.7207,-7.709,-7.6855,-7.6211,-7.5664,-7.5195,-7.3887,-7.3183,-7.293,-7.2285,-7.1992,-7.1992,-7.1992,-7.1992,-7.1992,-7.1992,-7.1992,-7.1972,-7.1758,-7.1269,-7.0644,0.0,0.0,0.0,0.0,0.0,0.0,0.0,0.0,0.0,0.0,0.0,0.0,0.0,0.0,0.0,0.0,0.0,0.0,0.0,0.0,0.0,0.0,0.0,0.0,0.0,0.0,0.0,0.0,0.0,0.0,0.0,-4.4055,-4.3929,-4.3983,-4.4392,-4.4587,-4.4612,0.0,0.0,0.0,0.0,0.0,0.0,0.0,0.0,0.0,0.0,0.0,0.0,0.0,0.0,-4.666,-4.9629,-5.1172,-5.2363,-5.4961,0.0,-5.8016,-5.9319,-6.0276,-6.1023,-6.1526,-6.1353,-6.0854,-5.9974,-5.9494,-5.8643,-5.6553,-5.6126,0.0,0.0,0.0,0.0,0.0,0.0,0.0,-6.916,-7.0508,-7.1406,0.0,-7.1836,0.0,-7.236,-7.3292,-7.4032,0.0,-7.4881,-7.5371,-7.5879,-7.6738,-7.7207,-7.7207,-7.7207,-7.7207,-7.7207,-7.7207,-7.7207,-7.7187,-7.6699,-7.6269,-7.5859,-7.4492,-7.3652,-7.3242,0.0,-7.1992,-7.1992,-7.1992,-7.1992,-7.1992,-7.1992,-7.1992,-7.1992,-7.1992,-7.1699,-7.1211,0.0,0.0,0.0,0.0,0.0,0.0,0.0,0.0,0.0,0.0,0.0,0.0,0.0,0.0,0.0,0.0,0.0,0.0,0.0,0.0,0.0,0.0,0.0,0.0,0.0,0.0,0.0,0.0,0.0,0.0,0.0,0.0,0.0,0.0,0.0,0.0,0.0,0.0,0.0,0.0,0.0,0.0,0.0,0.0,0.0,0.0,0.0,0.0,0.0,0.0,-4.8484,-4.8691,-5.2148,-5.373,-5.4863,-5.7461,-5.8769,-5.9531,-6.0348,-6.1126,-6.1709,-6.1694,-6.1046,-6.0143,-5.9167,-5.8211,-5.6805,-5.4186,0.0,0.0,-5.2363,0.0,-5.5898,-5.9336,0.0,-6.6015,-6.8691,-7.0664,-7.2148,-7.3027,-7.332,-7.3808,-7.4687,-7.4883,-7.5254,-7.6015,-7.6074,-7.6074,-7.6074,-7.6797,-7.7207,-7.7207,-7.7207,-7.7207,-7.7207,-7.7207,-7.7207,-7.7207,-7.7207,-7.6738,-7.5879,-7.5,-7.4121,-7.3242,-7.2383,0.0,-7.1992,-7.1992,-7.1992,-7.1992,-7.1992,-7.1992,-7.1992,-7.1992,-7.1992,-7.1894,0.0,0.0,0.0,0.0,0.0,0.0,0.0,-2.6554,-2.7248,-2.8849,-2.9003,0.0,0.0,0.0,0.0,0.0,0.0,0.0,0.0,0.0,0.0,0.0,0.0,0.0,0.0,0.0,0.0,0.0,0.0,0.0,0.0,0.0,0.0,0.0,0.0,0.0,0.0,0.0,0.0,0.0,0.0,0.0,0.0,0.0,0.0,0.0,0.0,0.0,0.0,0.0,-4.9618,-5.1348,-5.4824,-5.6035,-5.664,-5.9219,-6.0078,-6.0371,-6.123,-6.1582,-6.1698,-6.1698,-6.1034,-5.9999,-5.8456,-5.6893,0.0,0.0,0.0,-5.0586,-4.9726,-5.0937,0.0,-5.6699,0.0,0.0,0.0,0.0,-7.125,0.0,0.0,0.0,0.0,0.0,0.0,0.0,0.0,-7.6972,-7.6972,-7.7129,-7.7207,-7.7207,-7.7207,-7.7207,-7.7207,-7.7207,-7.7207,-7.7207,-7.7207,-7.6738,-7.5879,-7.5,-7.4121,-7.3242,-7.2383,0.0,-7.1992,-7.1992,-7.1992,-7.1992,-7.1992,-7.1992,-7.1992,-7.1992,-7.1992,-7.1972,0.0,0.0,0.0,0.0,0.0,0.0,0.0,-2.7808,-2.9029,-2.9868,-3.0776,-3.1134,-3.0616,-3.054,-3.053,0.0,0.0,0.0,0.0,0.0,0.0,0.0,0.0,0.0,0.0,0.0,0.0,0.0,0.0,0.0,0.0,0.0,0.0,0.0,0.0,0.0,0.0,0.0,0.0,0.0,0.0,0.0,0.0,0.0,0.0,0.0,0.0,0.0,0.0,0.0,-4.9418,-5.1835,-5.4954,-5.6521,-5.7634,-5.9785,-6.039,-6.0586,-6.1465,-6.1699,-6.1582,-6.1133,-6.0058,-5.8535,-5.6367,0.0,0.0,0.0,0.0,-4.8711,-4.8301,0.0,0.0,0.0,0.0,0.0,0.0,0.0,0.0,0.0,0.0,0.0,0.0,0.0,0.0,0.0,0.0,-7.7207,-7.7207,-7.7207,-7.7207,-7.7207,-7.7207,-7.7207,-7.7207,-7.7207,-7.7207,-7.7187,-7.6738,-7.6308,-7.5859,-7.4531,-7.3691,-7.3242,-7.2383,0.0,-7.1992,-7.1992,-7.1992,-7.1992,-7.1992,-7.1992,-7.1992,-7.1992,-7.1992,-7.1992,0.0,0.0,0.0,0.0,0.0,0.0,0.0,-2.9014,-3.066,-3.0862,-3.2313,-3.2791,-3.1365,-3.1018,-3.082,0.0,0.0,0.0,0.0,0.0,0.0,0.0,0.0,0.0,0.0,0.0,0.0,0.0,0.0,0.0,0.0,0.0,0.0,0.0,0.0,0.0,0.0,0.0,0.0,0.0,0.0,0.0,0.0,0.0,0.0,0.0,0.0,0.0,0.0,0.0,-4.83,-5.0762,-5.3128,-5.554,-5.7838,-5.9391,-6.0116,-6.0547,-6.123,-6.1562,-6.1484,-6.0625,-5.914,-5.7226,-5.4609,-5.2519,0.0,0.0,0.0,-4.7324,-4.7324,0.0,0.0,0.0,0.0,0.0,0.0,0.0,0.0,0.0,0.0,0.0,0.0,0.0,0.0,0.0,0.0,0.0,-7.7207,-7.7207,-7.7207,-7.7207,-7.7207,-7.7207,-7.7207,-7.7207,-7.7109,-7.6914,-7.623,-7.5703,-7.5293,-7.3926,-7.3203,-7.2988,-7.2305,0.0,0.0,-7.1992,-7.1992,-7.1992,-7.1992,-7.1992,-7.1992,-7.1992,-7.1992,-7.1992,0.0,0.0,0.0,0.0,0.0,0.0,0.0,-2.9427,-3.0912,-3.1765,-3.276,-3.3331,-3.3155,-3.2381,-3.1551,0.0,0.0,0.0,0.0,0.0,0.0,0.0,0.0,0.0,0.0,0.0,0.0,0.0,0.0,0.0,0.0,0.0,0.0,0.0,0.0,0.0,0.0,0.0,0.0,0.0,0.0,0.0,0.0,0.0,0.0,0.0,0.0,0.0,0.0,0.0,0.0,-4.7772,-4.8875,-5.2625,-5.6809,-5.7758,0.0,0.0,-6.0508,-6.1094,-6.1484,-6.0625,-5.914,-5.7226,-5.4609,0.0,0.0,0.0,-4.6973,-4.6426,-4.6426,-4.7207,0.0,0.0,0.0,0.0,0.0,0.0,0.0,0.0,0.0,0.0,0.0,0.0,0.0,0.0,0.0,0.0,-7.7207,-7.7207,-7.7207,-7.7207,-7.7207,-7.7207,-7.7207,-7.7207,-7.6797,-7.6015,-7.5937,-7.5078,-7.3535,-7.3379,-7.2871,-7.2129,-7.2031,0.0,0.0,-7.1992,-7.1992,-7.1992,-7.1992,-7.1992,-7.1992,-7.1992,-7.1992,-7.1992,0.0,0.0,0.0,0.0,0.0,0.0,-2.7862,-2.9485,-3.0938,-3.1868,-3.3271,-3.3788,-3.2723,-3.2742,-3.2483,-3.1622,0.0,0.0,0.0,0.0,0.0,0.0,0.0,0.0,0.0,0.0,0.0,0.0,0.0,0.0,0.0,0.0,0.0,0.0,0.0,0.0,0.0,0.0,0.0,0.0,0.0,0.0,0.0,0.0,0.0,0.0,0.0,0.0,0.0,0.0,0.0,0.0,-4.6003,-4.8685,0.0,0.0,-5.7074,-5.8409,-5.996,-6.0644,-6.0723,-5.9883,-5.8398,-5.6308,-5.3144,0.0,0.0,-4.7187,-4.6543,-4.6308,-4.6308,-4.7012,-4.8281,-5.0332,-5.2832,0.0,0.0,0.0,0.0,0.0,0.0,0.0,0.0,0.0,0.0,0.0,0.0,0.0,-7.7207,-7.7207,-7.7207,-7.7207,-7.7207,-7.6953,-7.6426,-7.6426,-7.5976,-7.5117,-7.459,-7.3965,-7.3281,-7.2754,-7.2324,-7.1992,-7.1992,0.0,0.0,-7.1992,-7.1992,-7.1992,-7.1992,-7.1992,-7.1992,-7.1992,-7.1992,-7.1992,0.0,0.0,0.0,0.0,0.0,-2.6824,-2.7508,-2.9317,-3.0857,-3.1548,-3.3207,-3.3857,-3.2611,-3.2819,-3.2792,-3.2182,-3.1336,0.0,0.0,0.0,0.0,0.0,0.0,0.0,0.0,0.0,0.0,0.0,0.0,0.0,0.0,0.0,0.0,0.0,0.0,0.0,0.0,0.0,0.0,0.0,0.0,0.0,0.0,0.0,0.0,0.0,0.0,0.0,0.0,0.0,0.0,0.0,0.0,0.0,0.0,0.0,-5.4573,-5.6221,-5.8602,-5.943,-5.9431,-5.8612,-5.7304,-5.5292,0.0,0.0,-4.8417,-4.666,-4.6308,-4.6308,-4.6308,-4.6796,-4.7792,-4.9531,-5.1738,-5.4453,-5.7949,0.0,0.0,0.0,0.0,0.0,0.0,0.0,0.0,0.0,0.0,0.0,0.0,-7.6816,-7.6816,-7.6816,-7.6816,-7.6406,-7.5527,-7.5527,-7.5078,-7.4219,-7.3594,-7.3164,-7.289,-7.2285,-7.1992,-7.1992,-7.1992,0.0,0.0,-7.1992,-7.1992,-7.1992,-7.1992,-7.1992,-7.1992,-7.1992,-7.1992,-7.1953,0.0,0.0,0.0,0.0,0.0,0.0,-2.6696,-2.8924,-3.0643,-3.0779,-3.2331,-3.3418,-3.3393,-3.2674,-3.2207,-3.2203,-3.1401,0.0,0.0,0.0,0.0,0.0,0.0,0.0,0.0,0.0,0.0,0.0,0.0,0.0,0.0,0.0,0.0,0.0,0.0,0.0,0.0,0.0,0.0,0.0,0.0,0.0,-4.0489,0.0,0.0,0.0,0.0,0.0,0.0,0.0,0.0,0.0,0.0,0.0,0.0,0.0,-5.1785,-5.4219,-5.6043,-5.7163,-5.7629,-5.6747,-5.5911,-5.4408,0.0,-4.9486,-4.8412,-4.6653,-4.6301,-4.6301,-4.6301,-4.6301,-4.6871,-4.8633,-5.0332,-5.2637,0.0,0.0,0.0,0.0,0.0,0.0,0.0,0.0,0.0,0.0,0.0,0.0,0.0,-7.5918,-7.5918,-7.5918,-7.5918,-7.5508,-7.4629,-7.4609,-7.418,-7.3301,-7.3301,-7.2851,-7.2012,-7.1992,-7.1992,0.0,0.0,0.0,0.0,-7.1992,-7.1992,-7.1992,-7.1992,-7.1992,-7.1992,-7.1992,-7.1992,-7.1875,0.0,0.0,0.0,0.0,0.0,0.0,0.0,-2.7446,-2.8242,-2.893,-3.0545,-3.14,-3.0859,-3.1601,-3.1914,-3.1367,-3.1054,0.0,0.0,0.0,0.0,0.0,0.0,0.0,0.0,0.0,-3.6716,-3.8181,-3.8183,0.0,0.0,0.0,0.0,0.0,0.0,0.0,0.0,0.0,0.0,0.0,0.0,-4.0573,-4.0431,0.0,0.0,0.0,0.0,0.0,0.0,0.0,0.0,0.0,0.0,0.0,0.0,-4.4098,-4.7175,0.0,-5.3104,-5.4403,-5.4865,-5.404,-5.3643,-5.2702,-4.9859,-4.8594,-4.7696,-4.6544,-4.6309,-4.6309,-4.6309,-4.6309,-4.6876,-4.8619,-5.031,0.0,0.0,0.0,0.0,0.0,0.0,0.0,0.0,0.0,0.0,0.0,0.0,0.0,0.0,-7.5019,-7.5019,-7.5019,-7.5019,-7.459,-7.3711,-7.3711,-7.3262,-7.2402,-7.2402,-7.2265,-7.1992,-7.1992,-7.1992,0.0,0.0,0.0,0.0,-7.1992,-7.1992,-7.1992,-7.1992,-7.1992,-7.1992,-7.1992,-7.1992,-7.1875,0.0,0.0,0.0,0.0,0.0,0.0,0.0,-2.6524,-2.6986,-2.7639,-2.8941,-2.9747,-2.9586,-3.0527,-3.1094,-3.0918,-3.0897,0.0,0.0,0.0,0.0,0.0,0.0,0.0,0.0,-3.5839,-3.6855,-3.8594,-3.8594,-3.9219,-4.0391,-4.0389,0.0,0.0,0.0,0.0,0.0,0.0,0.0,0.0,-3.988,-4.0365,-3.9988,0.0,0.0,0.0,0.0,0.0,0.0,0.0,0.0,0.0,0.0,0.0,0.0,0.0,-4.3098,-4.6247,0.0,-5.1132,-5.1697,-5.1201,-5.1343,-5.0927,-4.8382,-4.744,-4.6862,-4.5987,-4.5812,-4.5909,-4.6241,-4.6573,-4.7256,-4.8665,-5.0578,0.0,0.0,0.0,0.0,0.0,0.0,0.0,0.0,0.0,0.0,0.0,0.0,0.0,0.0,-7.4101,-7.3965,-7.3633,-7.3945,-7.3691,-7.2812,-7.2812,-7.2539,-7.1992,-7.1992,-7.1992,-7.1992,-7.1992,-7.1992,0.0,0.0,0.0,0.0,-7.1992,-7.1992,-7.1992,-7.1992,-7.1992,-7.1992,-7.1992,-7.1797,-7.1387,0.0,0.0,0.0,0.0,0.0,0.0,0.0,-2.6094,-2.666,-2.6786,-2.7556,-2.8415,-2.9235,-2.9488,-2.9922,-3.0742,0.0,0.0,0.0,0.0,0.0,0.0,0.0,0.0,0.0,-3.5543,-3.6855,-3.8594,-3.8594,-3.9492,-4.1191,-4.1182,-4.0759,0.0,0.0,0.0,0.0,0.0,0.0,0.0,-3.9677,-3.9873,0.0,0.0,0.0,0.0,0.0,0.0,0.0,0.0,0.0,0.0,0.0,0.0,0.0,0.0,0.0,0.0,0.0,-4.7456,-4.8308,-4.8319,-4.8983,-4.9011,-4.6658,-4.6108,0.0,-4.5067,-4.4953,-4.5246,-4.6066,-4.6963,-4.79,-4.8841,0.0,0.0,0.0,0.0,0.0,0.0,0.0,0.0,0.0,0.0,0.0,0.0,0.0,0.0,0.0,-7.3203,-7.2832,-7.2031,-7.2793,-7.2812,-7.2012,-7.1992,-7.1992,-7.1992,-7.1992,-7.1992,-7.1992,-7.1992,-7.1992,0.0,0.0,0.0,0.0,-7.1992,-7.1992,-7.1992,-7.1992,-7.1992,-7.1992,-7.1933,-7.1406,-7.0566,0.0,0.0,0.0,0.0,0.0,0.0,0.0,0.0,0.0,0.0,-2.6584,-2.7235,-2.7479,-2.8711,-2.9622,0.0,0.0,0.0,0.0,0.0,0.0,0.0,0.0,0.0,0.0,-3.5545,-3.6821,-3.852,-3.8568,-3.9469,-4.1129,-4.1126,-4.1001,-4.0756,-3.9204,0.0,0.0,0.0,0.0,0.0,-3.8161,-3.8469,0.0,0.0,0.0,0.0,-3.6315,-3.6488,0.0,0.0,0.0,0.0,0.0,0.0,0.0,0.0,-3.7921,-3.8984,-4.0764,0.0,-4.6313,-4.5759,-4.6298,-4.6687,0.0,-4.4741,0.0,0.0,0.0,-4.507,-4.5265,-4.6554,-4.8099,0.0,0.0,0.0,0.0,0.0,0.0,0.0,0.0,0.0,0.0,0.0,0.0,0.0,0.0,0.0,0.0,-7.2305,-7.2207,-7.2012,-7.2207,-7.2207,-7.1992,-7.1992,-7.1992,-7.1992,-7.1992,-7.1992,-7.1992,-7.1992,-7.1992,0.0,0.0,0.0,-7.1992,-7.1992,-7.1992,-7.1992,-7.1992,-7.1992,-7.1914,-7.125,-7.0879,-7.0488,0.0,0.0,0.0,0.0,0.0,0.0,0.0,0.0,0.0,0.0,0.0,-2.6378,-2.6812,-2.8072,0.0,0.0,0.0,0.0,0.0,0.0,0.0,0.0,0.0,0.0,-3.4048,-3.4905,-3.6391,-3.8502,-3.8536,-3.9408,-4.1058,-4.1058,-4.1046,-4.0978,-3.9208,-3.7383,0.0,0.0,0.0,-3.6776,-3.7642,0.0,0.0,0.0,0.0,0.0,-3.5661,-3.5795,0.0,-3.6161,-3.6469,-3.6776,0.0,0.0,0.0,0.0,-3.6771,-3.7654,-3.8595,-4.11,-4.3563,-4.399,-4.4802,-4.5287,-4.4479,0.0,0.0,0.0,0.0,0.0,-4.598,0.0,0.0,0.0,0.0,0.0,0.0,0.0,0.0,0.0,0.0,0.0,0.0,0.0,0.0,0.0,0.0,0.0,0.0,-7.1992,-7.1992,-7.1992,-7.1992,-7.1992,-7.1992,-7.1992,-7.1992,-7.1992,-7.1992,-7.1992,-7.1992,-7.1992,-7.1992,0.0,0.0,0.0,-7.1992,-7.1992,-7.1992,-7.1992,-7.1992,-7.1758,-7.1347,-7.0879,-7.0215,-6.9414,0.0,0.0,0.0,0.0,0.0,0.0,0.0,0.0,0.0,0.0,0.0,0.0,0.0,0.0,0.0,0.0,0.0,0.0,0.0,0.0,0.0,0.0,0.0,-3.2389,-3.3239,-3.4121,-3.5846,-3.8443,-3.8463,-3.9342,-4.0974,-4.0981,-4.0843,-4.0516,-3.8967,-3.7287,0.0,0.0,0.0,-3.6584,-3.7315,0.0,0.0,0.0,0.0,0.0,0.0,0.0,0.0,-3.5315,-3.5391,-3.5493,-3.5493,0.0,0.0,0.0,0.0,0.0,-3.7899,-3.934,-4.1013,-4.2934,-4.4122,-4.4651,0.0,0.0,0.0,0.0,0.0,0.0,0.0,0.0,0.0,0.0,0.0,0.0,0.0,0.0,0.0,0.0,0.0,0.0,0.0,0.0,0.0,0.0,0.0,0.0,-7.1992,-7.1992,-7.1992,-7.1992,-7.1992,-7.1992,-7.1992,-7.1992,-7.1992,-7.1992,-7.1992,-7.1992,-7.1992,-7.1992,-7.1992,-7.1992,0.0,0.0,-7.1992,-7.1992,-7.1914,-7.1797,-7.1797,-7.1289,-7.0508,-7.0371,-6.9414,-6.8183,0.0,0.0,0.0,0.0,0.0,0.0,0.0,0.0,0.0,0.0,0.0,0.0,0.0,0.0,0.0,0.0,0.0,0.0,0.0,0.0,0.0,0.0,-3.1452,-3.2302,-3.3111,-3.399,-3.5678,-3.8249,-3.8296,-3.9216,-4.0906,-4.0929,-4.0135,-3.8694,-3.8363,-3.724,-3.5604,-3.5663,-3.5688,-3.5699,0.0,0.0,0.0,0.0,0.0,0.0,0.0,0.0,0.0,-3.4391,-3.4891,-3.5493,-3.5493,0.0,0.0,0.0,0.0,0.0,-3.7762,-3.8965,-4.0364,-4.2867,-4.4181,-4.4861,0.0,0.0,0.0,0.0,0.0,0.0,0.0,0.0,0.0,0.0,0.0,0.0,0.0,0.0,0.0,0.0,0.0,0.0,0.0,0.0,0.0,0.0,0.0,0.0,-7.1992,-7.1992,-7.1992,-7.1992,-7.1992,-7.1992,-7.1992,-7.1992,-7.1992,-7.1992,-7.1992,-7.1992,-7.1992,-7.1992,-7.1992,-7.1992,0.0,-7.1992,-7.1992,-7.1992,-7.1562,-7.0898,-7.0898,-7.039,-6.959,-6.8867,-6.8418,-6.8086,0.0,0.0,0.0,0.0,0.0,0.0,0.0,0.0,0.0,0.0,0.0,0.0,0.0,0.0,0.0,0.0,0.0,0.0,0.0,0.0,0.0,-3.1177,-3.1574,-3.2193,-3.3073,-3.4371,-3.6084,-3.8194,-3.8692,-3.9575,-4.0776,-4.0303,-3.94,-3.8175,-3.766,-3.6742,-3.5547,-3.5509,-3.5501,-3.5493,0.0,0.0,0.0,0.0,0.0,0.0,0.0,0.0,0.0,0.0,-3.4468,-3.4872,-3.5353,0.0,0.0,0.0,0.0,0.0,-3.7718,-3.9237,-4.082,-4.3002,-4.4589,-4.5612,0.0,0.0,0.0,0.0,0.0,0.0,0.0,0.0,0.0,0.0,0.0,0.0,0.0,0.0,0.0,0.0,0.0,0.0,0.0,0.0,0.0,0.0,0.0,0.0,-7.2001,-7.1998,-7.2003,-7.2007,-7.2009,-7.199,-7.1992,-7.1992,-7.1992,-7.1992,-7.1992,-7.1992,-7.1992,-7.1992,-7.1992,-7.1972,0.0,-7.1308,-7.1269,-7.0781,-7.0371,-7.0058,-7.0058,-6.9531,-6.8691,-6.7812,-6.75,-6.7441,0.0,0.0,0.0,0.0,0.0,0.0,0.0,0.0,0.0,0.0,0.0,0.0,0.0,0.0,0.0,0.0,0.0,0.0,0.0,0.0,-3.0839,-3.1664,-3.1892,-3.2509,-3.3635,-3.4932,-3.6516,-3.8459,-3.9116,-3.9779,-4.0372,-3.9715,-3.8833,-3.7783,-3.7102,-3.6325,-3.5502,-3.5495,-3.5488,-3.5493,0.0,0.0,0.0,0.0,0.0,0.0,0.0,0.0,0.0,0.0,0.0,0.0,0.0,0.0,0.0,-3.5493,-3.5495,-3.5894,-3.7706,-3.9514,-4.1315,-4.3128,0.0,0.0,0.0,0.0,0.0,0.0,0.0,0.0,0.0,0.0,0.0,0.0,0.0,0.0,0.0,0.0,0.0,0.0,0.0,0.0,0.0,0.0,0.0,0.0,0.0,0.0,-7.2008,-7.1982,-7.1976,-7.1978,-7.1983,-7.1881,-7.1677,-7.1699,-7.1797,-7.1992,-7.1992,-7.1992,-7.1992,-7.1797,-7.1699,-7.164,-7.0762,-7.039,-7.0332,-6.9687,-6.9316,-6.9199,-6.9199,-6.8652,-6.7812,-6.7148,-6.6894,-6.6894,0.0,0.0,0.0,0.0,0.0,0.0,0.0,0.0,0.0,0.0,0.0,0.0,0.0,0.0,0.0,0.0,0.0,0.0,0.0,0.0,-3.0794,-3.165,-3.2415,-3.3603,-3.5276,-3.5463,-3.6733,-3.9215,-3.9278,-3.9378,-3.9483,-3.9425,-3.8537,-3.6972,-3.6858,-3.6318,-3.5502,-3.5502,-3.5495,-3.5493,-3.5493,0.0,0.0,0.0,0.0,0.0,0.0,0.0,0.0,0.0,0.0,0.0,0.0,0.0,-3.5493,-3.5493,-3.5495,-3.5894,-3.7706,-3.948,-4.1236,-4.3069,0.0,0.0,0.0,0.0,0.0,0.0,0.0,0.0,0.0,0.0,0.0,0.0,0.0,0.0,0.0,0.0,0.0,0.0,0.0,0.0,0.0,0.0,0.0,0.0,0.0,0.0,-7.1994,-7.1944,-7.1905,-7.1916,-7.1915,-7.1514,-7.0709,-7.0757,-7.1191,-7.1992,-7.1992,-7.1992,-7.1972,-7.1152,-7.0781,-7.0742,-6.9863,-6.9492,-6.9492,-6.9433,-6.8965,-6.8281,-6.8281,-6.7754,-6.6992,-6.6914,-6.6894,-6.6894,0.0,0.0,0.0,0.0,0.0,0.0,0.0,0.0,0.0,0.0,0.0,0.0,0.0,0.0,0.0,0.0,0.0,0.0,0.0,0.0,-3.0221,-3.1634,-3.248,-3.3718,-3.5455,-3.6526,-3.7526,-3.8488,-3.9032,-3.9339,-3.9387,-3.8324,-3.7518,-3.6875,-3.6361,-3.5925,-3.5623,-3.5581,-3.557,-3.5558,-3.5558,-3.5558,0.0,0.0,0.0,0.0,0.0,0.0,0.0,0.0,-3.2471,-3.3544,-3.4039,-3.4789,-3.5509,-3.5509,-3.5534,-3.5958,-3.7725,-3.9475,0.0,0.0,0.0,0.0,0.0,0.0,0.0,0.0,0.0,0.0,0.0,0.0,0.0,0.0,0.0,0.0,0.0,0.0,0.0,0.0,0.0,0.0,0.0,0.0,0.0,0.0,0.0,0.0,0.0,-7.0318,-7.0269,-7.023,-7.022,-7.0082,-6.9784,-6.9855,-7.0052,-7.0371,-7.0371,-7.0371,-7.0371,-7.0097,-6.9941,-6.9902,-6.9023,-6.8652,-6.8613,-6.8066,-6.7676,-6.7383,-6.7383,-6.7187,-6.6894,-6.6894,-6.6894,-6.6894,0.0,0.0,0.0,0.0,0.0,0.0,0.0,0.0,0.0,0.0,0.0,0.0,0.0,0.0,0.0,0.0,0.0,0.0,0.0,-2.8813,-2.9756,-3.1237,-3.2083,-3.3199,-3.4661,-3.6334,-3.7469,-3.8007,-3.8609,-3.8832,-3.8612,-3.7467,-3.6813,-3.6522,-3.5979,-3.5718,0.0,-3.5689,-3.5649,-3.5629,-3.5629,-3.5629,0.0,0.0,0.0,0.0,0.0,0.0,0.0,0.0,-3.1899,-3.2752,-3.3583,-3.4424,-3.5219,-3.5784,-3.5963,-3.6443,-3.847,-4.008,-4.1842,0.0,0.0,0.0,0.0,0.0,0.0,0.0,0.0,0.0,0.0,0.0,0.0,0.0,0.0,0.0,0.0,0.0,0.0,0.0,0.0,0.0,0.0,0.0,0.0,0.0,0.0,0.0,0.0,-6.9323,-6.9245,-6.9204,-6.9204,-6.9099,-6.8882,-6.8951,-6.8859,-6.8612,-6.8613,-6.8887,-6.9394,-6.918,-6.9082,-6.9043,-6.8164,-6.7793,-6.7734,-6.7148,-6.6894,-6.6894,-6.6894,-6.6894,-6.6894,-6.6894,-6.6894,-6.6894,0.0,0.0,0.0,0.0,0.0,0.0,0.0,0.0,0.0,0.0,0.0,0.0,0.0,0.0,0.0,0.0,0.0,0.0,-2.6601,-2.814,-2.9467,-3.034,-3.1218,-3.2064,-3.2872,-3.4603,-3.6295,-3.7988,-3.8059,-3.7699,-3.6978,-3.6988,-3.6556,-3.5801,-3.5807,0.0,0.0,-3.5799,-3.5754,-3.5708,-3.5708,-3.5708,-3.5514,0.0,0.0,0.0,0.0,0.0,0.0,0.0,-3.1081,-3.1929,-3.2752,-3.36,-3.465,-3.64,-3.6917,-3.7491,-4.01,-4.1457,0.0,0.0,0.0,0.0,0.0,0.0,0.0,0.0,0.0,0.0,0.0,0.0,0.0,0.0,0.0,0.0,0.0,0.0,0.0,0.0,0.0,0.0,0.0,0.0,0.0,0.0,0.0,0.0,0.0,-6.9236,-6.9184,-6.9189,-6.9189,-6.8786,-6.7998,-6.8046,-6.7696,-6.6904,-6.6893,-6.7773,-6.9355,-6.8555,-6.8183,-6.8144,-6.7265,-6.6894,-6.6894,-6.6894,-6.6894,-6.6894,-6.6894,-6.6894,-6.6894,-6.6894,-6.6894,-6.6894,0.0,0.0,0.0,0.0,0.0,0.0,0.0,0.0,0.0,0.0,0.0,0.0,0.0,0.0,0.0,0.0,0.0,0.0,-2.6551,-2.708,-2.7995,-2.941,-3.0314,-3.1179,-3.2045,-3.3122,-3.4822,-3.7153,-3.6619,-3.6287,-3.6142,-3.5574,-3.5521,-3.5878,-3.588,0.0,0.0,0.0,-3.5857,-3.585,-3.585,-3.585,-3.5655,0.0,0.0,0.0,0.0,0.0,0.0,0.0,0.0,0.0,-3.2721,-3.3604,-3.4646,-3.6434,-3.7434,-3.8384,-4.0353,0.0,0.0,0.0,0.0,0.0,0.0,0.0,0.0,0.0,0.0,0.0,0.0,0.0,0.0,0.0,0.0,0.0,0.0,0.0,0.0,0.0,0.0,0.0,0.0,0.0,0.0,0.0,0.0,0.0,0.0,-6.75,-6.7432,-6.7451,-6.7439,-6.7334,-6.7102,-6.7149,-6.7097,-6.6907,-6.6892,-6.7168,-6.7637,-6.7383,-6.7285,-6.7265,-6.7012,-6.6894,-6.6894,-6.6894,-6.6894,-6.6894,-6.6894,-6.6894,-6.6894,-6.6894,-6.6894,-6.6894,0.0,0.0,0.0,0.0,0.0,0.0,0.0,0.0,0.0,0.0,0.0,0.0,0.0,0.0,0.0,0.0,0.0,0.0,0.0,0.0,-2.7215,-2.8563,-2.9429,-3.0448,-3.1679,-3.2179,-3.3205,-3.4776,-3.4654,-3.4681,-3.4793,-3.4665,-3.4878,-3.5435,0.0,-3.5754,0.0,0.0,-3.5222,-3.4939,-3.5271,-3.5427,-3.5271,0.0,0.0,0.0,0.0,0.0,0.0,0.0,0.0,0.0,-3.2617,-3.3376,-3.4311,-3.6813,-3.8197,-3.9435,-4.1844,0.0,0.0,0.0,0.0,0.0,0.0,0.0,0.0,0.0,0.0,0.0,0.0,0.0,0.0,0.0,0.0,0.0,0.0,0.0,0.0,0.0,0.0,0.0,0.0,0.0,0.0,0.0,0.0,0.0,0.0,-6.6756,-6.6739,-6.6702,-6.6702,-6.6712,-6.6751,-6.678,-6.683,-6.6893,-6.689,-6.6894,-6.6894,-6.6894,-6.6894,-6.6894,-6.6894,-6.6894,-6.6894,-6.6894,-6.6894,-6.6894,-6.6894,-6.6894,-6.6894,-6.689,-6.6908,-6.6908,0.0,0.0,-2.5303,-2.5303,0.0,0.0,0.0,0.0,0.0,0.0,0.0,-2.5258,0.0,0.0,0.0,-2.5069,-2.5087,-2.5096,0.0,0.0,-2.6897,-2.7852,-2.8756,-2.9967,-3.1545,-3.1583,-3.1576,-3.1573,-3.2529,-3.3091,-3.331,-3.4113,-3.4603,-3.4845,0.0,-3.5445,0.0,0.0,-3.4111,-3.3476,-3.4256,-3.4588,-3.4491,-3.3612,0.0,0.0,0.0,0.0,0.0,0.0,0.0,0.0,-3.2381,-3.2974,-3.3781,-3.7161,-3.8949,-4.0536,0.0,0.0,0.0,0.0,0.0,0.0,0.0,0.0,0.0,0.0,0.0,0.0,0.0,0.0,0.0,0.0,0.0,0.0,0.0,0.0,0.0,0.0,0.0,0.0,0.0,0.0,0.0,0.0,0.0,0.0,0.0,-6.6803,-6.677,-6.672,-6.672,-6.6751,-6.68,-6.68,-6.6834,-6.6902,-6.689,-6.6894,-6.6894,-6.6894,-6.6894,-6.6894,-6.6894,-6.6894,-6.6894,-6.6894,-6.6894,-6.6894,-6.6894,-6.6894,-6.6893,-6.6891,-6.6893,-6.6887,0.0,0.0,-2.5303,-2.5303,0.0,0.0,0.0,0.0,-2.5331,-2.5299,-2.5214,-2.5106,-2.5063,-2.4947,0.0,-2.494,-2.4929,-2.4987,-2.5107,0.0,-2.6222,-2.7832,-2.9333,-3.0314,-3.0679,-3.0679,-3.0671,-3.0687,-3.1622,-3.2471,0.0,0.0,0.0,-3.5696,0.0,-3.4882,0.0,0.0,-3.3573,-3.3417,-3.3592,-3.3671,-3.3572,-3.2702,-3.2384,0.0,0.0,0.0,0.0,0.0,0.0,0.0,-3.1642,-3.2497,-3.3518,-3.564,-3.8352,-4.1104,0.0,0.0,0.0,0.0,0.0,0.0,0.0,0.0,0.0,0.0,0.0,0.0,0.0,0.0,0.0,0.0,0.0,0.0,0.0,0.0,0.0,0.0,0.0,0.0,0.0,0.0,0.0,0.0,0.0,0.0,-6.6836,-6.6874,-6.6869,-6.6856,-6.6867,-6.6859,-6.6876,-6.6876,-6.6883,0.0,-6.6894,-6.6894,-6.6894,-6.6894,-6.6894,-6.6894,-6.6894,-6.6894,-6.6894,-6.6894,-6.6894,-6.6894,-6.6901,-6.6911,-6.6887,-6.6839,-6.6824,-6.68,0.0,0.0,0.0,0.0,0.0,0.0,0.0,0.0,-2.5283,-2.5267,-2.5132,-2.5025,-2.4921,-2.4842,0.0,0.0,-2.4879,-2.4968,-2.5084,-2.516,-2.6011,-2.7813,-2.9506,-3.0398,-3.0398,-3.0398,-3.039,-3.0394,-3.1351,0.0,0.0,0.0,0.0,-3.5367,0.0,-3.4473,0.0,0.0,-3.2578,-3.2246,-3.2656,-3.2578,-3.2148,-3.1694,-3.151,-3.1348,-3.0405,0.0,0.0,0.0,0.0,0.0,0.0,0.0,-3.2896,-3.503,-3.7531,-4.0179,0.0,0.0,0.0,0.0,0.0,0.0,0.0,0.0,0.0,0.0,0.0,0.0,0.0,0.0,0.0,0.0,0.0,0.0,0.0,0.0,0.0,0.0,0.0,0.0,0.0,0.0,0.0,0.0,0.0,-6.5176,-6.5625,-6.5664,-6.5664,-6.5661,-6.5661,-6.5658,-6.5654,-6.5654,-6.5658,-6.5664,-6.5664,-6.5664,-6.5683,-6.6523,-6.6894,-6.6894,-6.6894,-6.6894,-6.6894,-6.6894,-6.6893,-6.6901,-6.6856,-6.6842,-6.6842,-6.6775,-6.6722,-6.6696,0.0,0.0,0.0,0.0,0.0,0.0,0.0,0.0,0.0,-2.5199,-2.5063,-2.4936,-2.4813,-2.4802,-2.4806,0.0,0.0,0.0,-2.5084,-2.5305,-2.6175,-2.7832,-2.9236,-3.0044,-3.0179,-3.0044,-3.0044,-3.0179,0.0,0.0,0.0,0.0,0.0,-3.5131,0.0,0.0,0.0,-3.2441,-3.1465,-3.0742,-3.1465,-3.1328,-3.0684,-3.0838,-3.0755,-3.0486,-2.9841,-2.9945,-3.0391,-3.0452,0.0,0.0,0.0,0.0,-3.2207,-3.4309,-3.6364,-3.8673,0.0,0.0,0.0,0.0,0.0,0.0,0.0,0.0,0.0,0.0,0.0,0.0,0.0,0.0,0.0,0.0,0.0,0.0,0.0,0.0,0.0,0.0,0.0,0.0,0.0,0.0,0.0,0.0,0.0,-6.414,-6.4297,-6.4297,-6.4297,-6.4297,-6.4297,-6.4297,-6.4297,-6.4297,-6.4297,-6.4297,-6.4297,-6.4297,-6.4355,-6.5781,-6.6523,-6.668,-6.6836,-6.6894,-6.6894,-6.6894,-6.6881,-6.6876,-6.6828,-6.679,-6.678,-6.6696,-6.6607,-6.6553,0.0,0.0,0.0,0.0,0.0,0.0,0.0,0.0,0.0,0.0,-2.4993,-2.4884,-2.4806,-2.4806,-2.4806,-2.4806,-2.4907,-2.5019,-2.5103,0.0,0.0,-2.7852,-2.8102,-2.8563,-2.9256,-2.8582,-2.8582,-2.9275,0.0,0.0,0.0,0.0,0.0,-3.6916,0.0,0.0,0.0,0.0,-3.0566,-2.9785,-2.9902,-2.9883,-2.9844,-3.0545,-3.0337,-2.9741,-3.0327,-3.0079,-2.9571,-3.0209,-3.0414,0.0,0.0,0.0,0.0,-3.2116,0.0,0.0,0.0,0.0,0.0,0.0,0.0,0.0,0.0,0.0,0.0,0.0,0.0,0.0,0.0,0.0,0.0,0.0,0.0,0.0,0.0,0.0,0.0,0.0,0.0,0.0,0.0,0.0,0.0,0.0,-6.3164,-6.3496,-6.4258,-6.4297,-6.4297,-6.4297,-6.4297,-6.4297,-6.4297,-6.4297,-6.4297,-6.4297,-6.4297,-6.4297,-6.4316,-6.4531,-6.5058,-6.582,-6.6562,-6.6894,-6.6894,-6.6898,-6.687,-6.681,-6.6809,-6.6761,-6.6696,-6.6569,-6.648,-6.6406,0.0,0.0,0.0,0.0,0.0,0.0,0.0,0.0,0.0,0.0,0.0,-2.4828,-2.4806,-2.4832,-2.4875,-2.4917,-2.5,-2.5103,-2.5209,-2.609,0.0,0.0,-2.764,-2.8063,-2.8409,-2.8082,-2.8063,0.0,0.0,0.0,0.0,-3.6615,-3.7962,0.0,0.0,0.0,0.0,0.0,0.0,-3.1016,-3.0527,-3.0332,-3.0371,-3.0722,-3.0599,-3.0267,-3.0637,-3.0477,-3.0133,-3.0424,-3.0481,-3.0458,-3.0406,0.0,0.0,0.0,0.0,0.0,0.0,0.0,0.0,0.0,0.0,0.0,0.0,0.0,0.0,0.0,0.0,0.0,0.0,0.0,0.0,0.0,0.0,0.0,0.0,0.0,0.0,0.0,0.0,0.0,0.0,0.0,0.0,0.0,-6.2265,-6.2441,-6.2812,-6.2832,-6.2832,-6.2832,-6.2832,-6.2832,-6.2832,-6.2832,-6.2832,-6.2832,-6.2832,-6.2832,-6.2851,-6.3359,-6.4043,-6.4883,-6.5273,-6.5448,-6.5436,-6.5445,-6.5402,-6.5396,-6.5834,-6.5952,-6.5828,-6.572,-6.5601,-6.5412,0.0,0.0,0.0,0.0,0.0,0.0,0.0,0.0,0.0,0.0,0.0,-2.4782,-2.4791,0.0,0.0,0.0,-2.5099,-2.519,-2.5292,0.0,0.0,0.0,0.0,-2.7332,-2.7563,-2.7351,0.0,0.0,0.0,0.0,-3.3151,-3.7104,-3.8891,0.0,-3.7743,0.0,0.0,0.0,0.0,-3.2168,-3.1719,-3.1543,-3.1582,-3.2031,-3.1892,-3.1487,-3.1688,-3.1451,0.0,0.0,0.0,0.0,0.0,0.0,0.0,0.0,0.0,0.0,0.0,0.0,0.0,0.0,0.0,0.0,0.0,0.0,0.0,0.0,0.0,0.0,0.0,0.0,0.0,0.0,0.0,0.0,0.0,0.0,0.0,0.0,0.0,0.0,0.0,0.0,0.0,0.0,-6.1699,-6.1699,-6.1699,-6.1699,-6.1699,-6.1699,-6.1699,-6.1699,-6.1699,-6.1699,-6.1699,-6.1699,-6.1699,-6.1699,-6.1716,-6.2361,-6.3025,-6.3669,-6.4119,-6.4306,-6.4297,-6.4271,-6.4237,-6.4228,-6.4811,-6.493,-6.4795,-6.4657,-6.454,-6.4337,0.0,0.0,0.0,0.0,0.0,0.0,0.0,0.0,0.0,0.0,0.0,-2.4735,-2.4791,-2.4926,-2.5025,-2.5101,-2.5217,-2.5292,-2.5303,0.0,0.0,0.0,0.0,0.0,0.0,0.0,0.0,0.0,0.0,0.0,-3.3068,-3.5833,-3.7996,-3.9587,-4.0457,-3.9483,-3.7129,0.0,0.0,-3.2266,-3.2988,-3.3262,-3.3457,-3.5117,-3.4706,-3.3353,-3.4125,0.0,0.0,0.0,0.0,0.0,0.0,-3.0439,0.0,0.0,0.0,0.0,0.0,0.0,0.0,0.0,0.0,0.0,0.0,0.0,0.0,0.0,0.0,0.0,0.0,0.0,0.0,0.0,0.0,0.0,0.0,0.0,0.0,0.0,0.0,0.0,0.0,0.0,0.0,0.0,-6.1699,-6.1699,-6.1699,-6.1699,-6.1699,-6.1699,-6.1699,-6.1699,-6.1699,-6.1699,-6.1699,-6.1699,-6.1699,-6.1695,-6.1705,-6.1744,-6.1783,-6.1939,-6.3579,-6.4301,-6.4297,-6.4235,-6.4179,-6.4085,-6.4007,-6.3903,-6.3747,-6.3629,-6.3522,-6.3453,0.0,0.0,0.0,0.0,0.0,0.0,0.0,0.0,0.0,0.0,0.0,0.0,0.0,-2.5013,-2.5122,-2.5217,-2.5262,0.0,0.0,0.0,0.0,0.0,0.0,0.0,0.0,0.0,0.0,0.0,0.0,-2.9989,-3.1545,-3.5253,-3.7356,-3.8054,-3.955,-3.9712,-3.876,-3.6484,0.0,0.0,-3.457,-3.5234,0.0,-3.7422,-3.7637,-3.7538,0.0,0.0,0.0,0.0,0.0,0.0,-3.1806,-3.1321,-3.1171,-3.0579,0.0,0.0,0.0,0.0,0.0,0.0,0.0,0.0,0.0,0.0,0.0,0.0,0.0,0.0,0.0,0.0,0.0,0.0,0.0,0.0,0.0,0.0,0.0,0.0,0.0,0.0,0.0,0.0,0.0,0.0,0.0,-6.1704,-6.1704,-6.1692,-6.1695,-6.1695,-6.1698,-6.1699,-6.1699,-6.1699,-6.1697,-6.1704,-6.1704,-6.1694,-6.1696,-6.166,-6.1603,-6.1606,-6.2192,-6.2455,-6.2483,-6.2374,-6.226,-6.2144,-6.2585,-6.2663,-6.2551,-6.2606,-6.2555,-6.2411,0.0,0.0,0.0,-2.6527,0.0,-2.5404,-2.5004,-2.4846,-2.4888,-2.5123,0.0,0.0,0.0,0.0,-2.5516,-2.5351,-2.5332,-2.5322,-2.5322,0.0,0.0,0.0,0.0,0.0,0.0,0.0,0.0,0.0,0.0,0.0,0.0,-3.3537,-3.5471,-3.5916,-3.7948,-3.8902,0.0,0.0,0.0,-3.7285,0.0,0.0,-3.9531,0.0,-4.0488,0.0,0.0,0.0,0.0,0.0,0.0,0.0,-3.3335,-3.2259,-3.1645,-3.1047,-3.1514,0.0,0.0,0.0,0.0,0.0,0.0,0.0,0.0,0.0,0.0,0.0,0.0,0.0,0.0,0.0,0.0,0.0,0.0,0.0,0.0,0.0,0.0,0.0,0.0,0.0,0.0,0.0,0.0,0.0,0.0,0.0,-6.1673,-6.1673,-6.1676,-6.167,-6.169,-6.1695,-6.1695,-6.1695,-6.1707,-6.1701,-6.1679,-6.1648,-6.1634,-6.1588,-6.1518,-6.1433,-6.1361,-6.1342,-6.1357,-6.1203,-6.1021,-6.0866,-6.1293,-6.142,-6.1371,-6.1461,-6.1505,-6.1467,-2.919,-2.9017,-2.8491,-2.6872,-2.6491,-2.6128,-2.5221,-2.496,-2.5181,-2.6038,0.0,0.0,0.0,0.0,0.0,-2.5543,-2.5456,-2.5437,-2.5437,-2.5418,0.0,0.0,0.0,0.0,0.0,0.0,0.0,0.0,0.0,0.0,0.0,0.0,-3.2317,-3.3304,-3.5891,-3.7083,-3.7206,0.0,-3.8123,-3.7598,0.0,-4.125,-4.1484,0.0,0.0,0.0,-4.2554,-4.2014,0.0,-3.9262,0.0,0.0,0.0,-3.3233,-3.1788,-3.1834,-3.2445,0.0,0.0,0.0,0.0,0.0,0.0,0.0,0.0,0.0,0.0,0.0,0.0,0.0,0.0,0.0,0.0,0.0,0.0,0.0,0.0,0.0,0.0,0.0,0.0,0.0,0.0,0.0,0.0,0.0,-6.1607,-6.1578,-6.1581,-6.16,-6.1597,-6.1595,-6.1666,-6.1696,-6.1696,-6.1696,-6.1696,-6.1696,-6.1631,-6.1568,-6.1487,-6.1491,-6.1421,-6.1303,-6.1213,-6.1145,-6.107,-6.0867,-6.0663,-6.0488,-6.028,-6.0236,-6.0293,-6.0293,-6.0414,-6.0604,-3.0071,-2.9509,-2.8921,-2.8453,-2.7832,-2.7311,-2.6986,-2.6892,-2.6912,0.0,0.0,0.0,-2.7704,-2.7651,-2.7489,-2.7305,-2.6706,-2.6339,-2.6331,-2.5749,-2.5418,-2.5461,-2.6316,-2.6757,-2.6764,0.0,0.0,0.0,0.0,0.0,0.0,0.0,0.0,0.0,-3.2623,-3.3516,-3.3765,-3.7155,0.0,0.0,-4.0644,-4.2305,0.0,0.0,0.0,0.0,0.0,-4.5975,-4.5468,0.0,-4.2635,-4.1403,0.0,0.0,-3.3538,-3.2985,-3.3017,-3.3483,-3.462,0.0,0.0,0.0,0.0,0.0,0.0,0.0,0.0,0.0,0.0,0.0,0.0,0.0,0.0,0.0,0.0,0.0,0.0,0.0,0.0,0.0,0.0,0.0,0.0,0.0,0.0,0.0,-6.1476,-6.144,-6.1402,-6.1369,-6.1433,-6.1528,-6.1545,-6.1567,-6.1637,-6.1627,-6.1607,-6.1558,-6.1546,-6.1472,-6.1363,-6.1361,-6.1287,-6.1152,-6.0983,-6.0839,-6.0723,-6.057,-6.0372,-6.0208,-6.0049,-6.0007,-6.0026,-6.0169,-6.0332,-6.0552,-3.0379,-2.9982,-2.9644,-2.9644,-2.9228,-2.8874,-2.8837,-2.8763,-2.8854,0.0,0.0,0.0,-2.996,-3.0085,-2.9736,-2.8653,-2.8092,-2.7492,-2.6792,-2.6258,-2.5853,-2.5551,-2.6728,-2.7382,-2.7388,0.0,0.0,0.0,0.0,0.0,0.0,0.0,0.0,0.0,-3.0281,-3.1267,-3.1831,-3.5438,0.0,0.0,-4.0918,0.0,0.0,-4.6363,-4.7673,0.0,0.0,0.0,-4.7782,-4.6357,-4.4793,0.0,0.0,-3.7405,-3.5862,-3.5108,-3.4892,0.0,-3.5994,0.0,0.0,0.0,0.0,0.0,0.0,0.0,0.0,0.0,0.0,0.0,0.0,0.0,0.0,0.0,0.0,0.0,0.0,0.0,0.0,0.0,0.0,0.0,0.0,-6.1607,-6.1509,-6.1414,-6.135,-6.1279,-6.1233,-6.1229,-6.1255,-6.1337,-6.135,-6.1389,-6.1433,-6.1433,-6.1414,-6.1361,-6.1347,-6.1298,-6.1217,-6.1203,-6.1136,-6.1021,-6.0856,-6.0714,-6.0604,-6.0441,-6.0227,-5.9994,-5.9853,-5.982,-5.9918,-6.0038,-6.0266,-6.0525,0.0,-3.0679,-3.0679,-3.0679,-3.0756,-3.0782,-3.0686,-3.0784,-3.1124,0.0,-3.2678,-3.3256,-3.3284,-3.3499,-3.2618,-3.01,-2.9694,-2.8916,-2.7343,-2.7065,-2.6637,-2.5931,-2.7473,-2.834,-2.8335,-2.9201,-2.9601,0.0,0.0,0.0,0.0,0.0,0.0,-2.6933,-2.8672,-2.9882,-3.0779,-3.3424,0.0,-3.746,-4.1094,-4.3652,0.0,0.0,-4.8449,-4.9227,-4.9211,-4.9231,-4.9119,-4.8137,-4.6163,0.0,0.0,-4.0213,-3.8716,-3.789,-3.7624,0.0,-3.86,-3.8912,0.0,0.0,-4.0836,0.0,-4.2383,-4.4414,0.0,0.0,0.0,0.0,0.0,0.0,0.0,0.0,0.0,0.0,0.0,0.0,0.0,0.0,0.0,0.0,-6.1467,-6.1479,-6.1421,-6.1289,-6.1197,-6.1152,-6.1061,-6.1079,-6.1058,-6.1059,-6.1113,-6.1131,-6.1131,-6.1148,-6.1148,-6.1131,-6.1113,-6.1059,-6.1061,-6.1002,-6.0939,-6.0888,-6.0823,-6.0729,-6.0604,-6.0414,-6.0188,-5.9899,-5.9734,-5.9767,-5.995,-5.9994,-6.0237,-6.0525,-3.2391,-3.2408,-3.2401,-3.2401,-3.2987,-3.3223,-3.2519,-3.358,-3.4285,-3.3761,-3.5053,-3.5779,-3.5152,-3.5781,-3.5505,-3.3644,-3.2208,-3.0975,-2.9994,-2.8677,-2.7868,-2.7706,-2.8691,-2.9259,-2.9251,-3.0107,-3.0206,-2.9508,0.0,0.0,0.0,0.0,0.0,-2.6037,-2.778,-2.8642,-2.9018,-3.2264,0.0,-3.6665,-4.1503,0.0,-4.7285,-4.9023,-5.0595,-5.1869,-5.1851,-5.2281,-5.2552,-5.0986,-4.9642,-4.8086,0.0,-4.3354,-4.2273,-4.0785,-4.033,-4.0398,-4.0616,-4.1163,-4.1696,-4.1872,0.0,0.0,-4.3418,-4.4389,0.0,0.0,0.0,0.0,0.0,0.0,0.0,0.0,0.0,0.0,0.0,0.0,0.0,0.0,0.0,0.0,-6.0565,-6.1032,-6.1313,-6.1242,-6.106,-6.0938,-6.085,-6.0872,-6.0834,-6.0776,-6.0776,-6.0779,-6.0721,-6.0822,-6.086,-6.0798,-6.0882,-6.092,-6.085,-6.0914,-6.0891,-6.0823,-6.0753,-6.071,-6.066,-6.0533,-6.0351,-6.014,-6.0038,-6.0068,-6.014,-6.0227,-6.0406,-6.0604,-3.2766,-3.2827,-3.2981,-3.3423,-3.4249,-3.4841,-3.4793,-3.5916,-3.6599,-3.6152,-3.7607,-3.8703,-3.8749,-3.9155,-3.8617,-3.6561,-3.5194,-3.3755,-3.2103,-3.0431,-2.9323,-2.8912,-2.9316,-2.9547,-2.9547,-3.0362,-3.0591,-3.0155,0.0,0.0,0.0,-2.6654,-2.6275,-2.637,-2.8123,-2.9132,-2.9744,0.0,-3.5545,-3.8166,-4.1194,0.0,-4.7137,-4.8855,-5.0762,-5.2543,-5.2504,-5.3038,-5.3552,-5.2288,-5.1298,0.0,-4.7606,-4.6234,-4.526,0.0,-4.3053,-4.2951,-4.2552,-4.2749,-4.3043,-4.3047,0.0,0.0,0.0,-4.4366,-4.4875,0.0,0.0,0.0,0.0,0.0,0.0,0.0,0.0,0.0,0.0,0.0,0.0,0.0,0.0,0.0,-5.9621,-5.9892,-5.9968,-5.9766,-6.0029,-6.0146,-6.0027,-6.0342,-6.0527,-6.0437,-6.043,-6.0384,-6.0346,-6.0411,-6.0456,-6.0437,-6.054,-6.0647,-6.0704,-6.0777,-6.08,-6.08,-6.0757,-6.0753,-6.0734,-6.068,-6.061,-6.052,-6.034,-6.0321,-6.0437,-6.0508,-6.0628,-6.0789,-3.3131,-3.3231,-3.3511,-3.4236,-3.524,-3.6147,-3.6635,-3.7851,-3.8781,-3.8954,-4.05,-4.1797,-4.2328,-4.2686,-4.1925,-3.9497,-3.8346,-3.6762,-3.4445,-3.2577,-3.1266,-3.0616,-3.0421,-3.0253,-3.0081,-3.0716,-3.0964,-3.0804,0.0,0.0,0.0,-2.7488,-2.7145,-2.7228,0.0,0.0,0.0,0.0,0.0,-3.9836,0.0,-4.347,-4.6961,-4.8818,-5.085,-5.2768,-5.3052,-5.3588,-5.4047,-5.3077,-5.2347,-5.1492,-4.9645,-4.8626,0.0,0.0,0.0,0.0,0.0,0.0,-4.4707,0.0,0.0,-4.4453,0.0,0.0,0.0,-4.4136,0.0,0.0,0.0,0.0,0.0,0.0,0.0,0.0,0.0,0.0,0.0,0.0,0.0,0.0,0.0,-5.8402,-5.8358,-5.8062,-5.8742,-5.9158,-5.9125,-5.9626,-5.993,-5.9912,-5.9887,-5.9791,-5.9758,-5.9842,-5.9937,-6.0011,-6.0179,-6.036,-6.0559,-6.066,-6.0753,-6.08,-6.08,-6.08,-6.08,-6.08,-6.0846,-6.0891,-6.0603,-6.0608,-6.0773,-6.0795,-6.0882,-6.1041,-3.4785,-3.4936,-3.5066,-3.5229,-3.6608,-3.7497,-3.6807,-3.9365,-4.1662,0.0,-4.4039,0.0,0.0,0.0,0.0,0.0,0.0,0.0,-3.802,-3.5611,-3.4226,-3.4121,-3.3379,-3.2617,-3.1831,-3.1906,-3.1574,-3.0798,-2.9825,0.0,0.0,-2.8093,-2.8048,-2.8153,-3.0683,0.0,0.0,0.0,-3.7872,0.0,-4.1211,-4.4478,0.0,-5.1136,-5.2686,-5.3761,-5.5314,-5.5928,-5.5769,0.0,-5.3715,-5.3279,0.0,-4.9988,-4.9705,-4.8747,0.0,0.0,0.0,0.0,0.0,0.0,-4.7674,0.0,0.0,0.0,-4.5907,-4.5034,0.0,0.0,0.0,0.0,0.0,0.0,0.0,0.0,0.0,0.0,0.0,0.0,0.0,0.0,0.0,-5.6665,-5.7293,-5.7091,-5.77,-5.8276,-5.8726,-5.8565,-5.8584,-5.8934,-5.8874,-5.8775,-5.8572,-5.9026,-5.9234,-5.9306,-5.9874,-6.0217,-6.034,-6.0591,-6.0753,-6.08,-6.08,-6.08,-6.08,-6.08,-6.0869,-6.0976,-6.0877,-6.0922,-6.1041,-6.104,-6.1113,-6.1184,-3.5019,-3.5176,-3.5324,-3.5345,-3.6825,-3.7877,-3.751,-3.9954,-4.2521,0.0,0.0,0.0,0.0,0.0,0.0,0.0,0.0,-4.372,0.0,0.0,-3.7452,-3.6973,-3.5156,-3.3984,-3.3629,-3.2619,-3.1916,-3.1543,-3.0174,-2.9318,0.0,0.0,-2.9224,-2.9841,-3.2881,0.0,-3.5573,0.0,0.0,0.0,0.0,0.0,0.0,-5.0359,-5.2111,-5.4334,-5.5645,-5.6207,-5.6131,0.0,-5.4339,0.0,0.0,0.0,0.0,-4.9856,0.0,0.0,0.0,0.0,0.0,0.0,0.0,0.0,-4.7597,0.0,-4.6051,0.0,0.0,0.0,0.0,0.0,0.0,0.0,0.0,0.0,0.0,0.0,0.0,0.0,0.0,0.0,0.0,0.0,0.0,0.0,-5.5498,-5.6044,-5.5969,-5.6912,-5.746,-5.7524,-5.7851,-5.8102,-5.8113,-5.8503,-5.8809,-5.9102,-5.9609,-6.0019,-6.0237,-6.0514,-6.0704,-6.08,-6.08,-6.08,-6.08,-6.08,-6.0869,-6.0997,-6.1001,-6.1097,-6.1233,-6.1306,-6.1371,-6.1441,-3.5073,0.0,-3.5308,-3.532,-3.681,-3.8334,-3.9246,-4.1197,-4.3435,-4.5748,0.0,0.0,-4.8929,-5.0104,0.0,0.0,-4.8525,-4.7459,0.0,0.0,-4.1103,-4.0039,-3.7734,-3.6269,-3.5779,-3.4051,-3.306,-3.281,-3.1317,-3.0451,0.0,0.0,-3.0894,-3.1639,0.0,-3.6973,-3.8061,0.0,0.0,-4.4726,-4.6027,-4.8161,-5.0551,-5.0574,-5.2338,-5.4921,-5.5705,-5.6117,-5.6154,-5.5413,-5.4755,0.0,-5.3278,0.0,-5.1966,0.0,0.0,0.0,-5.0295,0.0,0.0,0.0,0.0,0.0,0.0,0.0,0.0,0.0,0.0,0.0,0.0,0.0,0.0,0.0,0.0,0.0,0.0,0.0,0.0,0.0,0.0,0.0,0.0,0.0,0.0,0.0,0.0,-5.386,-5.3721,-5.5383,-5.6282,-5.6309,-5.7036,-5.7492,-5.769,-5.8113,-5.8521,-5.8926,-5.947,-5.9874,-6.0227,-6.048,-6.068,-6.08,-6.08,-6.08,-6.08,-6.08,-6.0869,-6.0976,-6.106,-6.1186,-6.1308,-6.1447,-6.153,-6.1606,-3.5277,-3.5304,0.0,0.0,-3.6829,-3.9119,-4.2425,-4.3712,-4.4938,0.0,0.0,0.0,0.0,0.0,0.0,0.0,0.0,-5.0451,-4.8743,0.0,-4.5321,-4.3613,-4.1894,-4.0195,-3.8516,-3.6767,-3.5467,-3.461,-3.3719,-3.2842,0.0,0.0,0.0,0.0,-3.6668,-3.8934,-4.0442,-4.2757,-4.4608,-4.5994,-4.6629,-4.8783,-5.1804,0.0,-5.456,-5.5602,-5.5903,0.0,0.0,-5.5333,-5.5073,0.0,0.0,0.0,0.0,0.0,0.0,0.0,0.0,0.0,0.0,-5.23,0.0,0.0,0.0,0.0,-4.6289,0.0,0.0,0.0,0.0,-4.5481,-4.5183,-4.6008,0.0,0.0,0.0,0.0,0.0,0.0,0.0,0.0,0.0,0.0,0.0,0.0,0.0,0.0,-5.2978,-5.4136,-5.5044,-5.5638,-5.6415,-5.6933,-5.7239,-5.7831,-5.8369,-5.8828,-5.9416,-5.9874,-6.0227,-6.048,-6.068,-6.08,-6.08,-6.08,-6.08,-6.08,-6.0846,-6.0933,-6.106,-6.1189,-6.1318,-6.1445,-6.1549,-6.1588,0.0,0.0,0.0,0.0,0.0,-3.9408,-4.3419,-4.481,-4.6427,0.0,0.0,0.0,0.0,-5.5337,-5.6076,0.0,0.0,-5.4025,-5.2352,-5.0122,0.0,-4.7187,-4.4941,-4.3164,-4.1992,-3.9745,-3.7867,-3.6417,-3.4974,-3.3805,0.0,0.0,0.0,0.0,0.0,-3.9602,0.0,0.0,0.0,0.0,0.0,-5.1174,-5.2395,0.0,-5.4192,-5.5231,-5.5474,-5.5711,0.0,-5.5761,-5.5345,-5.4841,-5.4582,-5.4097,-5.3618,-5.3618,-5.361,-5.3582,0.0,0.0,-5.3234,-5.325,0.0,0.0,0.0,0.0,0.0,0.0,0.0,-4.7053,-4.6991,-4.5763,-4.4851,-4.5094,-4.4128,0.0,0.0,0.0,0.0,0.0,0.0,0.0,0.0,0.0,0.0,0.0,-4.8747,0.0,0.0,-5.1878,-5.35,-5.4878,-5.584,-5.6831,-5.7831,-5.8419,-5.8915,-5.9354,-5.9855,-6.0236,-6.0463,-6.0641,-6.0777,-6.0869,-6.0823,-6.08,-6.08,-6.08,-6.0846,-6.0891,-6.096,-6.108,-6.1259,-6.1437,-6.1547,-6.1607,-3.8136,0.0,0.0,0.0,0.0,0.0,0.0,0.0,0.0,0.0,-5.2919,0.0,-5.5891,0.0,-5.8045,0.0,-5.747,-5.6731,-5.5045,-5.3386,0.0,-5.0312,-4.834,-4.6738,-4.5566,-4.3027,-4.0859,-3.9119,-3.7382,-3.6108,0.0,0.0,0.0,0.0,0.0,0.0,0.0,0.0,-4.7843,0.0,0.0,-5.2367,0.0,0.0,-5.3992,-5.4933,0.0,-5.5666,-5.6271,-5.6348,-5.6283,-5.612,-5.6117,-5.573,-5.5285,-5.5288,-5.5274,-5.5277,-5.5223,-5.5059,0.0,-5.4569,-5.3349,0.0,-5.1484,0.0,-4.9215,0.0,0.0,-4.7756,-4.7348,-4.6302,-4.5376,-4.4954,-4.4129,-4.3281,0.0,-4.2722,0.0,0.0,0.0,0.0,0.0,0.0,-4.643,-4.6207,0.0,0.0,0.0,0.0,-5.2979,-5.4538,-5.5833,-5.7241,-5.8651,-5.9112,-5.952,-5.9883,-6.0265,-6.0537,-6.0712,-6.0834,-6.0894,-6.0894,-6.0869,-6.0823,-6.08,-6.08,-6.0823,-6.0869,-6.0875,-6.0981,-6.1117,-6.1363,-6.15,-6.1568,0.0,0.0,0.0,0.0,-3.983,0.0,0.0,0.0,-4.9582,0.0,-5.485,-5.6844,-5.7817,-5.8699,-5.9245,-5.9324,-5.9285,-5.8557,-5.6894,-5.6719,0.0,0.0,-5.207,-5.0801,-4.9121,-4.6562,-4.4355,-4.2539,-4.085,-3.9556,-3.8634,0.0,0.0,0.0,-3.9493,0.0,-4.3315,-4.6318,-4.8384,-4.9793,-5.1266,-5.2472,-5.3341,-5.3481,-5.4036,-5.4761,-5.5028,-5.5874,-5.6906,-5.7077,-5.7737,-5.8491,-5.849,-5.8489,-5.849,-5.8491,-5.8491,-5.8471,-5.8331,-5.7834,-5.7153,-5.6317,-5.5042,0.0,0.0,0.0,-5.0088,0.0,0.0,-4.8445,-4.737,-4.7086,-4.667,-4.561,-4.4652,-4.3465,0.0,0.0,0.0,0.0,0.0,0.0,0.0,0.0,-4.472,-4.5134,-4.6332,0.0,0.0,0.0,-5.3322,-5.4515,-5.6407,-5.8097,-5.9551,-5.9836,-6.0118,-6.0458,-6.0648,-6.0808,-6.0925,-6.0983,-6.0963,-6.092,-6.0894,-6.0846,-6.08,-6.08,-6.08,-6.08,-6.0869,-6.0894,-6.0922,-6.1203,-6.1376,-6.149,-4.2225,-4.285,-4.3703,0.0,-4.4762,-4.5366,0.0,0.0,0.0,0.0,-5.6608,-5.8024,-5.9558,-6.0516,-6.1033,-6.1052,-6.0466,0.0,0.0,0.0,0.0,-5.6582,-5.5117,-5.3496,-5.1758,-4.9844,-4.7383,-4.4336,-4.2594,0.0,-3.9453,0.0,0.0,0.0,0.0,0.0,-4.3297,-4.6318,-4.9121,-5.1611,-5.2641,-5.3318,-5.3757,0.0,-5.4463,-5.539,-5.5516,-5.5958,-5.6572,-5.741,-5.7958,-5.828,-5.8346,-5.8349,-5.8349,-5.8346,-5.8346,-5.8346,-5.8303,-5.8257,-5.8143,-5.7907,-5.7242,-5.6329,0.0,0.0,0.0,0.0,0.0,-5.0797,-4.972,-4.8393,-4.7114,-4.6073,-4.4516,-4.329,0.0,0.0,0.0,0.0,0.0,0.0,0.0,-4.3793,-4.3576,-4.3469,-4.4265,0.0,0.0,0.0,0.0,-5.5451,-5.6854,-5.8513,-6.0517,-6.0699,-6.0885,-6.1077,-6.1182,-6.1239,-6.1269,-6.1181,-6.1097,-6.1041,-6.0938,-6.0846,-6.08,-6.08,-6.08,-6.08,-6.0823,-6.0869,-6.0916,-6.1097,-6.1213,-6.1274,-4.4167,0.0,0.0,-4.8224,0.0,0.0,-4.9683,0.0,0.0,-5.666,-5.7857,0.0,-6.0783,-6.1401,-6.1699,-6.1699,-6.125,0.0,-6.043,0.0,0.0,-5.8476,-5.7539,-5.6191,-5.4433,-5.2734,0.0,-4.6699,-4.4589,0.0,-4.0329,0.0,0.0,0.0,0.0,-4.1434,0.0,-4.7753,-5.0589,-5.2659,-5.387,-5.4502,0.0,-5.5128,-5.5664,-5.6338,-5.6846,-5.7187,-5.7539,-5.8238,-5.884,-5.9307,-5.9373,-5.9419,-5.9441,-5.9441,-5.9444,-5.9488,-5.9485,-5.9551,-5.9553,-5.9166,-5.8848,-5.8284,-5.7019,-5.6039,-5.5122,0.0,-5.3068,-5.1875,-5.0428,-4.9238,-4.7908,-4.6137,-4.4636,-4.3568,0.0,0.0,0.0,0.0,-4.3156,0.0,-4.3257,-4.3005,-4.2761,-4.26,-4.3651,0.0,0.0,0.0,0.0,-5.5255,-5.7153,-5.8935,-6.0629,-6.1085,-6.1376,-6.1487,-6.1519,-6.1519,-6.147,-6.1376,-6.1248,-6.1079,-6.1001,-6.0894,-6.08,-6.08,-6.08,-6.08,-6.08,-6.0823,-6.0869,-6.0941,-6.1041,-6.1115,0.0,0.0,0.0,0.0,0.0,0.0,0.0,-5.3264,0.0,-5.7809,0.0,-5.9952,-6.1534,-6.1694,-6.1699,-6.1699,0.0,-6.1386,-6.0624,-6.0566,-6.0253,-5.957,-5.9413,-5.8534,-5.6796,-5.5058,-5.248,-4.9062,-4.6444,-4.3882,-4.14,0.0,0.0,0.0,0.0,0.0,0.0,-4.9822,-5.2291,-5.327,-5.4963,-5.5813,-5.6095,-5.6834,-5.7256,-5.7525,-5.8443,-5.8863,-5.8959,-5.9259,-5.9971,-6.071,-6.0777,-6.0846,-6.0891,-6.0891,-6.0939,-6.1002,-6.0999,-6.1041,-6.0925,-6.0152,-6.0016,-5.9587,-5.7846,-5.6807,-5.5922,-5.4844,-5.3766,-5.2469,-5.0715,-4.9939,0.0,0.0,0.0,0.0,0.0,0.0,0.0,0.0,0.0,0.0,0.0,-4.2344,-4.2111,-4.2189,-4.3684,0.0,0.0,0.0,0.0,-5.445,-5.7213,-5.9204,-6.0302,-6.1171,-6.1652,-6.1709,-6.1709,-6.1671,-6.16,-6.1539,-6.1363,-6.1094,-6.1041,-6.092,-6.08,-6.08,-6.08,-6.08,-6.08,-6.08,-6.08,-6.08,-6.0875,-6.0982,0.0,0.0,0.0,0.0,0.0,-5.5597,-5.5584,-5.5906,-5.7047,-5.9607,-6.0096,-6.0584,-6.1581,-6.1699,-6.1699,-6.1699,-6.1699,0.0,0.0,0.0,0.0,-6.126,-6.0577,-5.9367,-5.7633,-5.5876,-5.3302,-4.9885,-4.7334,-4.5094,-4.3183,0.0,0.0,0.0,0.0,0.0,-4.7467,-5.1021,0.0,-5.4054,-5.5742,-5.6886,-5.7613,-5.7767,-5.8286,-5.896,-5.9194,-5.9095,-5.9045,-6.0028,-6.052,-6.071,-6.0777,-6.0846,-6.0891,-6.0897,-6.0941,-6.1002,-6.0982,-6.1061,-6.106,-6.0846,-6.0828,-6.0422,-5.8626,-5.8046,-5.7386,-5.5673,-5.4995,-5.4305,-5.3091,0.0,0.0,0.0,0.0,0.0,0.0,0.0,0.0,0.0,0.0,-4.2785,0.0,-4.2028,-4.1569,-4.1628,0.0,0.0,0.0,0.0,0.0,0.0,-5.6538,0.0,0.0,0.0,-6.1697,-6.1698,-6.1698,-6.169,-6.1691,-6.1564,-6.1382,-6.1184,-6.1041,-6.092,-6.08,-6.08,-6.08,-6.08,-6.08,-6.08,-6.08,-6.08,-6.0804,-6.0827,0.0,0.0,0.0,0.0,0.0,0.0,0.0,-5.8488,0.0,-6.0236,-6.0398,-6.073,-6.1592,-6.1709,-6.1709,-6.1709,-6.1709,-6.1701,-6.1701,-6.1673,-6.1654,-6.1654,-6.1261,-6.0426,-5.912,-5.7393,-5.4826,-5.1401,-4.8398,-4.5591,-4.2972,-4.0785,-4.0169,0.0,0.0,-4.6152,0.0,0.0,0.0,-5.5272,-5.7444,-5.8584,-5.9036,-5.9497,-5.9912,-6.0287,-6.0321,-6.0224,-6.0171,-6.0619,-6.0742,-6.0742,-6.0827,-6.0911,-6.0935,-6.0941,-6.1041,-6.1155,-6.1099,-6.1155,-6.1174,-6.1039,-6.102,-6.0672,-5.9295,-5.8572,-5.7809,-5.64,-5.5508,-5.4543,-5.3017,-5.096,0.0,0.0,0.0,0.0,0.0,0.0,-4.4876,0.0,0.0,0.0,0.0,0.0,0.0,0.0,0.0,0.0,0.0,0.0,0.0,0.0,0.0,0.0,0.0,0.0,0.0,-6.1709,-6.1699,-6.1709,-6.1696,-6.1558,-6.1396,-6.12,-6.106,-6.092,-6.08,-6.08,-6.08,-6.08,-6.08,-6.08,-6.08,-6.08,-6.08,-6.08,0.0,-5.6031,0.0,0.0,-5.7252,0.0,-6.0191,-6.0803,-6.0942,-6.0683,-6.0672,-6.0926,-6.1595,-6.1673,-6.1673,-6.1673,-6.1673,-6.1667,-6.1667,-6.1606,-6.1568,-6.1539,-6.1554,-6.1129,-6.0229,-5.853,-5.6053,-5.2806,-4.9398,-4.6176,-4.3156,-4.1415,-4.1142,-4.227,0.0,0.0,0.0,0.0,-5.5624,-5.6797,-5.9041,-6.0051,-6.0298,-6.0991,-6.1256,-6.1266,-6.1283,-6.1286,-6.1265,-6.11,-6.0945,-6.088,-6.0916,-6.0957,-6.102,-6.1021,-6.1136,-6.1261,-6.121,-6.1227,-6.121,-6.1039,-6.0976,-6.0685,-5.9515,-5.8673,-5.781,-5.6682,-5.5652,-5.4438,-5.2715,-5.1252,0.0,0.0,0.0,0.0,0.0,0.0,0.0,0.0,0.0,0.0,-4.3181,0.0,0.0,0.0,0.0,0.0,-4.4576,0.0,0.0,0.0,0.0,-5.6725,-5.7788,0.0,-6.0817,-6.169,-6.1699,-6.1697,-6.1679,-6.1548,-6.1381,-6.1164,-6.1041,-6.092,-6.08,-6.08,-6.08,-6.08,-6.08,-6.08,-6.08,-6.08,-6.08,-6.08,0.0,0.0,0.0,0.0,0.0,0.0,-6.1175,-6.2499,-6.299,-6.1666,-6.1491,-6.1526,-6.1604,-6.1604,-6.1604,-6.1604,-6.1604,-6.1584,-6.1523,-6.1511,-6.1467,-6.133,-6.1317,-6.09,-5.9956,-5.8289,-5.6132,0.0,-5.0145,-4.7563,-4.5721,-4.4033,-4.4138,-4.584,-4.8531,0.0,0.0,-5.4946,-5.7021,-5.8635,-5.9658,-6.0554,-6.127,-6.1422,-6.1475,-6.1486,-6.1542,-6.1555,-6.1544,-6.1471,-6.1292,-6.1059,-6.1022,-6.1041,-6.108,-6.108,-6.1155,-6.1191,-6.1137,-6.1099,-6.1099,-6.0935,-6.0911,-6.0487,-5.8803,-5.8312,-5.7704,-5.5964,-5.539,-5.4863,-5.3829,-5.2935,-5.1794,0.0,0.0,0.0,0.0,0.0,-4.6122,-4.5457,0.0,0.0,0.0,-4.236,0.0,0.0,0.0,0.0,0.0,0.0,0.0,-5.0183,0.0,-5.6113,-5.7785,-5.9474,-6.0787,-6.1694,-6.1698,-6.167,-6.1616,-6.1537,-6.1361,-6.1113,-6.1041,-6.092,-6.08,-6.08,-6.08,-6.08,-6.08,-6.08,-6.08,-6.08,-6.08,-6.08,0.0,0.0,0.0,0.0,0.0,0.0,0.0,-6.3241,-6.3461,-6.2873,-6.2853,-6.2691,-6.2187,-6.2128,-6.1934,-6.141,-6.1352,-6.1352,-6.1332,-6.1283,-6.1248,-6.1178,-6.1164,-6.0995,-6.0631,-5.945,-5.7608,0.0,-5.2745,-5.0245,-4.7646,-4.7021,-4.7377,-4.8643,0.0,-5.2976,-5.4169,-5.6703,-5.8461,-5.9657,-6.054,-6.1065,-6.1348,-6.1412,-6.1461,-6.1517,-6.1576,-6.1603,-6.1601,-6.1568,-6.1442,-6.1279,-6.1203,-6.1171,-6.1155,-6.1099,-6.1117,-6.1137,-6.1061,-6.1041,-6.1021,-6.0872,-6.0846,-6.0381,-5.8592,-5.8136,-5.7588,-5.5868,-5.5432,-5.5115,-5.4218,-5.3383,-5.2447,-5.1238,0.0,0.0,0.0,0.0,0.0,-4.6283,0.0,-4.4741,0.0,0.0,0.0,0.0,0.0,-4.3522,-4.3607,-4.6912,0.0,-4.9299,0.0,-5.5262,-5.7005,-5.8721,-6.0284,-6.1698,-6.1653,-6.1595,-6.1546,-6.1433,-6.1225,-6.0981,-6.0918,-6.085,-6.08,-6.08,-6.08,-6.08,-6.08,-6.08,-6.08,-6.08,-6.08,-6.08,-6.2113,0.0,-6.282,0.0,-6.2913,-6.3241,-6.3816,-6.4143,-6.4289,-6.427,-6.4315,-6.3961,-6.2932,-6.2603,-6.2215,-6.1613,-6.1322,-6.115,-6.115,-6.1095,-6.1059,-6.1041,-6.1022,0.0,-6.1001,-6.0152,-5.8742,-5.6786,-5.5122,-5.2887,-5.016,-5.0277,-5.0789,-5.1737,-5.4008,-5.5443,-5.6319,-5.8311,-5.9663,-6.0507,-6.1104,-6.1318,-6.1302,-6.1375,-6.1447,-6.1515,-6.1584,-6.1612,-6.1635,-6.1626,-6.1541,-6.1433,-6.1361,-6.1287,-6.1208,-6.1137,-6.108,-6.1061,-6.1001,-6.096,-6.0918,-6.0781,-6.071,-6.0175,-5.8432,-5.7972,-5.7475,-5.5849,-5.5551,-5.5378,-5.4756,-5.3763,-5.2864,-5.2245,0.0,0.0,0.0,-4.8029,0.0,-4.6858,-4.6106,-4.5259,-4.4374,0.0,0.0,0.0,0.0,-4.4219,-4.4337,-4.7147,0.0,0.0,0.0,0.0,-5.6836,-5.8339,-5.9939,-6.1633,-6.1583,-6.1537,-6.1428,-6.1271,-6.108,-6.0911,-6.0823,-6.08,-6.08,-6.08,-6.08,-6.08,-6.08,-6.08,-6.08,-6.08,-6.08,-6.08,-6.3593,-6.3593,-6.3568,-6.3488,-6.4193,-6.4757,-6.4699,-6.5436,-6.5936,-6.5878,-6.5859,-6.5283,-6.3767,-6.2878,-6.2394,-6.2394,-6.1601,-6.108,-6.1002,-6.1002,-6.0981,0.0,0.0,-6.0869,-6.08,-5.9954,-5.9136,-5.8374,0.0,-5.518,-5.3627,-5.3838,-5.4391,-5.5319,-5.6933,-5.8063,-5.8807,-5.964,-6.0478,-6.1283,-6.1217,-6.1252,-6.1302,-6.1366,-6.1441,-6.1507,-6.1588,-6.1635,-6.1698,-6.1709,-6.1646,-6.1567,-6.1433,-6.1342,-6.1271,-6.1136,-6.1041,-6.0982,-6.0935,-6.0846,-6.0777,-6.0629,-6.0441,-5.9854,-5.8192,-5.781,-5.7385,-5.5896,-5.564,-5.5684,-5.5684,-5.4318,-5.3203,-5.3183,0.0,0.0,0.0,-4.8644,0.0,-4.699,-4.6124,-4.5259,-4.4374,0.0,0.0,0.0,0.0,-4.5854,-4.6072,0.0,0.0,-5.1215,-5.2985,0.0,-5.7654,-5.8552,-5.9846,-6.1497,-6.1498,-6.1437,-6.1302,-6.1022,-6.0897,-6.0911,-6.0823,-6.08,-6.08,-6.08,-6.08,-6.08,-6.08,-6.08,-6.08,-6.08,-6.08,-6.08,-6.4421,-6.486,-6.5202,-6.5089,-6.5295,-6.5436,-6.5257,-6.549,-6.5638,-6.5561,-6.5599,-6.5444,-6.4948,-6.4311,-6.3669,0.0,-6.2763,-6.2378,0.0,-6.1758,-6.1466,-6.0843,-6.0823,-6.0823,-6.08,-6.0531,-6.0022,-5.93,0.0,0.0,0.0,-5.6751,-5.6981,-5.7879,-5.8984,-5.9598,-5.989,-6.067,-6.1173,-6.1436,-6.1409,-6.1392,-6.1383,-6.145,-6.1483,-6.1504,-6.158,-6.16,-6.1614,-6.1579,-6.1481,-6.1352,-6.1174,-6.1142,-6.1131,-6.0963,-6.0877,-6.085,-6.0729,-6.068,-6.061,-6.0379,-6.0198,-5.9726,-5.86,-5.7606,-5.6652,-5.5643,-5.5596,-5.5703,-5.5703,-5.4818,-5.3895,-5.3299,-5.226,0.0,-4.9606,0.0,-4.7798,-4.7009,-4.6124,-4.572,-4.6047,-4.6086,0.0,0.0,0.0,0.0,0.0,0.0,0.0,0.0,-5.4027,0.0,-5.7615,-5.8994,-6.0244,-6.1361,-6.1322,-6.1213,-6.1022,-6.0939,-6.0891,-6.0823,-6.0823,-6.08,-6.08,-6.08,-6.08,-6.08,-6.08,-6.08,-6.08,-6.08,-6.08,-6.08,-6.5199,-6.5628,-6.5917,-6.582,-6.5762,-6.5656,-6.5509,-6.5397,-6.5351,-6.5302,-6.5302,-6.5356,-6.5386,-6.5092,0.0,-6.3828,-6.3468,-6.3089,-6.257,-6.2551,-6.2166,-6.132,-6.1281,-6.1127,-6.08,-6.08,0.0,-6.0145,-5.992,-5.9808,-5.9775,-5.8949,-5.9069,-5.995,-6.0518,-6.0752,-6.078,-6.1289,-6.1484,-6.1461,-6.1459,-6.1416,-6.1372,-6.1414,-6.144,-6.1464,-6.1518,-6.1518,-6.1504,-6.1393,-6.1245,-6.1059,-6.0788,-6.0685,-6.0676,-6.0685,-6.0652,-6.0641,-6.0514,-6.0433,-6.0351,-6.011,-5.9874,-5.9375,-5.8226,-5.7165,-5.6255,-5.5555,-5.5551,-5.5703,-5.5703,-5.503,-5.4203,-5.3337,-5.2472,-5.1318,-4.9644,-4.8644,-4.7913,-4.7413,0.0,0.0,0.0,-4.7355,-4.7567,0.0,0.0,0.0,0.0,0.0,-5.1353,-5.2037,-5.4769,-5.6792,-5.7951,-5.9296,-6.0371,-6.1194,-6.1117,-6.1022,-6.0897,-6.0872,-6.0846,-6.08,-6.08,-6.08,-6.08,-6.08,-6.08,-6.08,-6.08,-6.08,-6.08,-6.08,-6.08,-6.08,-6.5859,-6.5878,-6.5859,0.0,-6.5656,-6.5517,-6.5365,-6.5254,-6.5125,-6.5044,-6.5031,-6.5052,-6.5131,-6.5283,-6.5129,-6.4581,0.0,0.0,-6.3372,-6.3397,-6.3031,-6.2204,-6.2127,-6.1704,-6.0916,-6.0819,-6.0823,-6.0911,-6.021,-6.036,-6.1268,-6.0444,-6.0572,-6.147,-6.147,-6.1471,-6.1471,-6.1466,-6.1427,-6.1354,-6.1342,-6.1319,-6.1252,-6.1252,-6.1291,-6.1344,-6.1358,-6.1364,-6.1323,-6.1112,-6.0924,-6.0687,-6.0271,-6.0075,-6.0034,-6.0357,-6.0384,-6.0349,-6.0265,-6.0169,-6.0038,-5.9809,-5.9505,-5.8877,-5.7315,-5.6708,-5.6297,-5.5607,-5.5589,-5.5703,-5.5703,-5.5088,-5.428,-5.3356,-5.2529,-5.1395,-4.9644,-4.8702,-4.8163,0.0,0.0,0.0,-4.8202,-4.8336,-4.8394,0.0,0.0,0.0,0.0,0.0,-5.197,-5.3619,-5.5339,-5.7044,-5.8673,-5.9547,-6.0306,-6.0982,-6.0916,-6.0891,-6.0891,-6.0823,-6.08,-6.08,-6.08,-6.08,-6.08,-6.08,-6.08,-6.08,-6.08,-6.08,-6.08,-6.08,-6.08,-6.08,0.0,0.0,-6.5763,-6.5609,-6.5503,-6.5323,-6.4973,-6.475,-6.4513,-6.4364,-6.4383,-6.4426,-6.4464,-6.4723,-6.4909,-6.4813,-6.5044,-6.4936,-6.4264,-6.4276,-6.3916,-6.3051,-6.2416,-6.1993,-6.18,-6.1127,-6.0823,-6.0911,-6.0788,-6.0848,-6.1079,-6.0917,-6.0984,-6.1186,-6.1186,-6.1182,-6.1192,-6.1093,-6.1019,-6.1011,-6.0851,-6.0813,-6.0848,-6.0848,-6.0813,-6.0799,-6.0915,-6.0903,-6.0848,-6.0682,-6.0474,-6.0215,-5.9836,-5.9601,-5.9505,-5.9809,-5.9918,-5.9918,-5.9758,-5.9744,-5.9711,-5.9344,-5.9159,-5.8839,-5.7885,-5.7432,-5.7073,-5.6427,-5.5988,-5.5703,-5.5703,-5.553,-5.4934,-5.3433,-5.3029,-5.2068,-4.9721,-4.9221,-4.8856,0.0,-4.8529,-4.9144,-4.999,-5.0644,-5.1279,0.0,0.0,-5.2395,-5.2607,-5.386,-5.4805,-5.5322,-5.6965,-5.8394,-5.9514,-6.0266,-6.0723,-6.085,-6.0846,-6.0823,-6.0823,-6.08,-6.08,-6.08,-6.08,-6.08,-6.08,-6.08,-6.08,-6.08,-6.08,-6.08,-6.08,-6.08,-6.08,-6.08,-6.535,-6.5435,-6.549,-6.543,-6.5307,-6.5067,-6.47,-6.4432,-6.4189,-6.3991,-6.3929,-6.3939,-6.3963,-6.4251,-6.4483,-6.4595,-6.5182,-6.5351,-6.4939,-6.4964,-6.4607,-6.3744,-6.338,-6.2829,-6.206,-6.1627,-6.1228,-6.0846,-6.0894,-6.0918,-6.0959,-6.0982,-6.1002,-6.1003,-6.0983,-6.0925,-6.0866,-6.0764,-6.0638,-6.0516,-6.0426,-6.0359,-6.0315,-6.0315,-6.0339,-6.0383,-6.0441,-6.0449,-6.0393,-6.0226,-5.9965,-5.9649,-5.9342,-5.9083,-5.8945,-5.9082,-5.9253,-5.9434,-5.929,-5.929,-5.9197,-5.8828,-5.8806,-5.866,-5.7977,-5.7884,-5.7813,-5.726,-5.6669,-5.6278,-5.6299,-5.5972,-5.5145,-5.3472,-5.3203,-5.2318,-4.976,-4.9394,-4.9375,-4.9298,-4.9702,-5.0471,-5.1722,-5.2241,-5.2702,-5.3164,-5.3203,0.0,-5.378,-5.5011,-5.5726,-5.5808,-5.783,-5.916,-5.9663,-6.049,-6.0869,-6.0846,-6.0888,-6.0888,-6.0846,-6.0846,-6.0823,-6.08,-6.08,-6.08,-6.08,-6.08,-6.08,-6.08,-6.08,-6.08,-6.08,-6.08,-6.08,-6.08,-6.5041,-6.5099,-6.5146,-6.5175,-6.5034,-6.4822,-6.4462,-6.4184,-6.3903,-6.371,-6.3602,-6.3538,-6.3572,-6.3774,-6.3986,-6.4069,-6.4612,-6.5066,-6.5283,-6.5405,-6.5091,-6.4364,-6.4411,-6.3756,-6.2343,-6.2131,-6.1618,-6.0734,-6.0734,-6.08,-6.0846,-6.0846,-6.085,-6.0856,-6.0746,-6.0618,-6.0488,-6.0393,-6.0215,-5.9979,-5.993,-5.9859,-5.9735,-5.9735,-5.9779,-5.99,-5.9916,-5.9935,-5.9905,-5.9706,-5.9397,-5.9083,-5.8806,-5.8619,-5.8443,-5.8375,-5.8553,-5.8865,-5.8905,-5.8806,-5.8642,-5.8363,-5.8468,-5.8553,-5.7991,-5.8213,-5.8394,-5.8033,-5.7506,-5.7098,-5.7011,-5.6395,-5.5338,-5.3664,-5.3299,-5.2395,-5.0106,0.0,-5.0048,-5.0779,-5.1106,-5.1818,-5.326,-5.351,-5.3587,-5.3587,-5.3587,-5.3953,-5.4818,-5.5645,-5.6145,-5.6261,-5.8377,-5.9569,-5.9685,-6.0503,-6.0911,-6.0911,-6.0976,-6.0955,-6.0911,-6.0911,-6.0869,-6.08,-6.08,-6.08,-6.08,-6.08,-6.08,-6.08,-6.08,-6.08,-6.08,-6.08,-6.08,-6.08,-6.4368,-6.4631,-6.4822,-6.4647,-6.459,-6.4469,-6.4045,-6.3743,-6.3416,-6.3165,-6.3099,-6.3099,-6.308,-6.3317,-6.3546,-6.358,-6.3798,-6.4212,-6.4848,-6.5052,-6.5124,-6.5054,-6.4417,-6.397,-6.3781,-6.2395,-6.1322,-6.0552,-6.0552,-6.0578,-6.0655,-6.0655,-6.0629,-6.0559,-6.0387,-6.0208,-6.0004,-5.9706,-5.9502,-5.938,-5.9122,-5.9008,-5.8969,-5.8969,-5.8969,-5.9008,-5.9121,-5.9178,-5.914,-5.9006,-5.8887,-5.8721,-5.8449,-5.8338,-5.8223,-5.8088,-5.8133,-5.8205,-5.8418,-5.8418,-5.8268,-5.8223,-5.8381,-5.8558,-5.8598,-5.8555,-5.8546,-5.8721,-5.8343,-5.7789,-5.7126,-5.6876,-5.6242,-5.4568,-5.3683,-5.2799,-5.1683,0.0,-5.1568,-5.1702,-5.301,-5.401,-5.426,-5.4914,-5.5299,-5.5299,-5.5299,-5.5684,-5.6569,-5.7434,-5.8204,-5.8896,-5.93,-5.9858,-6.0589,-6.0811,-6.0911,-6.0911,-6.0976,-6.0955,-6.0911,-6.0911,-6.0869,-6.08,-6.08,-6.08,-6.08,-6.08,-6.08,-6.08,-6.08,-6.08,-6.08,-6.08,-6.08,-6.08,-6.3922,-6.4094,-6.419,-6.4181,-6.4102,-6.3984,-6.3715,-6.3445,-6.321,-6.3021,-6.2953,-6.2904,-6.2904,-6.3051,-6.3194,-6.3252,-6.341,-6.3661,-6.4027,-6.4407,-6.465,-6.4668,-6.4503,-6.4063,-6.3326,-6.2086,-6.1056,-6.0266,-6.0323,-6.0332,-6.0387,-6.0387,-6.0304,-6.0169,-6.0,-5.9758,-5.9467,-5.9253,-5.9044,-5.8865,-5.8702,-5.8619,-5.8596,-5.8596,-5.8638,-5.8661,-5.8702,-5.8743,-5.8702,-5.8661,-5.8596,-5.8505,-5.84,-5.8356,-5.8356,-5.8294,-5.8115,-5.8042,-5.8152,-5.8152,-5.8106,-5.8197,-5.8331,-5.8529,-5.8865,-5.8952,-5.9105,-5.9501,-5.9144,-5.8654,-5.8393,-5.7607,-5.6588,-5.5338,-5.4453,-5.3606,-5.2722,-5.2606,-5.2779,-5.3241,-5.401,-5.4664,-5.5107,-5.5472,-5.5876,-5.6357,-5.6395,-5.678,-5.7646,-5.8492,-5.9127,-5.9492,-5.9954,-6.0396,-6.08,-6.0891,-6.0955,-6.0955,-6.102,-6.102,-6.0955,-6.0955,-6.0911,-6.08,-6.08,-6.08,-6.08,-6.08,-6.08,-6.08,-6.08,-6.08,-6.08,-6.08,-6.08,-6.08,-6.3486,-6.3603,-6.3649,-6.3723,-6.3686,-6.3571,-6.3424,-6.3258,-6.3117,-6.2953,-6.2855,-6.2805,-6.2805,-6.2904,-6.2953,-6.2953,-6.3147,-6.326,-6.326,-6.3661,-6.3986,-6.4069,-6.4426,-6.3969,-6.2648,-6.1743,-6.0961,-6.0178,-6.0083,-6.0,-6.0061,-6.0061,-5.995,-5.9758,-5.9643,-5.9363,-5.9005,-5.8905,-5.8661,-5.8425,-5.8381,-5.8356,-5.8305,-5.8305,-5.8312,-5.8381,-5.8381,-5.8381,-5.8425,-5.8425,-5.8443,-5.8437,-5.848,-5.8529,-5.8577,-5.8638,-5.8406,-5.8205,-5.8179,-5.8179,-5.8179,-5.8286,-5.8437,-5.859,-5.8945,-5.9253,-5.9609,-6.0091,-5.9843,-5.9524,-5.9508,-5.8454,-5.7223,-5.6165,0.0,-5.4472,-5.3626,-5.351,-5.376,-5.4414,-5.4838,-5.5318,-5.5934,-5.6184,-5.6569,-5.7242,-5.73,-5.7684,-5.8531,-5.9165,-5.9588,-5.98,-6.0454,-6.08,-6.08,-6.0933,-6.0997,-6.0997,-6.106,-6.106,-6.0997,-6.0997,-6.0933,-6.08,-6.08,-6.08,-6.08,-6.08,-6.08,-6.08,-6.08,-6.08,-6.08,-6.08,-6.08,-6.08,-6.2879,-6.3272,-6.3364,-6.3284,-6.3345,-6.3314,-6.3094,-6.3027,-6.2953,-6.2805,-6.2823,-6.2805,-6.2805,-6.2805,-6.2805,-6.2805,-6.2805,-6.2855,-6.2855,-6.3002,-6.3299,-6.3705,-6.3878,-6.3532,-6.2616,-6.1812,-6.1068,-6.0454,-5.974,-5.9453,-5.9537,-5.9537,-5.947,-5.9327,-5.9215,-5.9005,-5.8698,-5.8449,-5.8294,-5.8197,-5.8088,-5.8042,-5.8042,-5.8042,-5.8042,-5.8042,-5.8042,-5.8133,-5.8242,-5.8242,-5.8356,-5.8511,-5.8614,-5.8702,-5.8788,-5.8945,-5.8945,-5.8884,-5.8698,-5.8656,-5.8656,-5.8656,-5.8758,-5.8921,-5.9044,-5.9399,-5.9777,-6.0121,-6.0349,-6.0284,-5.9623,-5.9396,-5.8781,-5.7165,0.0,0.0,-5.4511,-5.4395,-5.4434,-5.4491,-5.5857,-5.6838,-5.6896,-5.7627,-5.8146,-5.8204,-5.8204,-5.8569,-5.9377,-5.9473,-5.9877,-6.0685,-6.0762,-6.08,-6.08,-6.0933,-6.0997,-6.0997,-6.106,-6.106,-6.0997,-6.0997,-6.0933,-6.08,-6.08,-6.08,-6.08,-6.08,-6.08,-6.08,-6.08,-6.08,-6.08,-6.08,-6.08,-6.08,-6.1979,-6.2205,-6.2425,-6.2879,-6.2989,-6.2989,-6.2897,-6.2892,-6.2855,-6.2823,-6.2805,-6.2805,-6.2805,-6.2805,-6.2805,-6.2805,-6.2805,-6.2805,-6.2805,-6.2855,-6.3051,-6.3519,-6.3565,-6.3201,-6.2451,-6.1632,-6.0874,-6.0136,-5.9377,-5.9025,-5.9083,-5.9083,-5.9044,-5.8924,-5.8784,-5.8577,-5.8356,-5.8268,-5.8179,-5.8088,-5.7997,-5.7997,-5.7997,-5.7997,-5.7997,-5.7997,-5.7997,-5.8106,-5.8197,-5.8249,-5.8492,-5.8825,-5.8926,-5.9178,-5.9432,-5.9643,-5.9677,-5.9662,-5.9575,-5.9234,-5.8924,-5.9042,-5.912,-5.9196,-5.9399,-5.9643,-5.9874,-6.0179,-6.0406,-6.0508,-6.0334,-5.9858,-5.93,-5.8646,0.0,-5.7203,-5.6896,-5.6857,-5.6857,-5.6857,-5.7415,-5.7819,-5.7819,-5.8107,-5.8511,-5.9011,-5.905,-5.9415,-6.0262,-6.03,-6.0454,-6.0781,-6.08,-6.08,-6.08,-6.0891,-6.0933,-6.0933,-6.0999,-6.0999,-6.0933,-6.0933,-6.0888,-6.08,-6.08,-6.08,-6.08,-6.08,-6.08,-6.08,-6.08,-6.08,-6.08,-6.08,-6.08,-6.08,-6.1062,-6.1404,-6.1757,-6.2352,-6.2608,-6.2805,-6.2805,-6.2805,-6.2805,-6.2805,-6.2805,-6.2805,-6.2805,-6.2805,-6.2805,-6.2805,-6.2805,-6.2805,-6.2805,-6.2805,-6.2904,-6.3194,-6.3194,-6.2965,-6.2438,-6.1429,-6.0633,-6.0122,-5.9115,-5.8642,-5.8642,-5.8642,-5.8638,-5.8529,-5.8443,-5.8312,-5.8152,-5.8152,-5.8088,-5.7997,-5.7997,-5.7997,-5.7997,-5.7997,-5.7997,-5.7997,-5.7997,-5.8133,-5.8312,-5.8381,-5.8766,-5.9197,-5.929,-5.9605,-5.9981,-6.011,-6.014,-6.014,-6.014,-5.9791,-5.9416,-5.9524,-5.9524,-5.9594,-5.9809,-5.9906,-6.0042,-6.034,-6.0487,-6.0629,-6.0777,-6.03,-5.9819,-5.955,-5.905,-5.8588,-5.8338,-5.83,-5.83,-5.83,-5.8531,-5.8684,-5.8684,-5.8915,-5.9319,-5.9877,-5.9915,-6.0165,-6.0762,-6.08,-6.08,-6.08,-6.08,-6.08,-6.08,-6.0869,-6.0911,-6.0911,-6.0976,-6.0955,-6.0911,-6.0911,-6.0869,-6.08,-6.08,-6.08,-6.08,-6.08,-6.08,-6.08,-6.08,-6.08,-6.08,-6.08,-6.08,-6.08,-6.0236,-6.1019,-6.1592,-6.1592,-6.2228,-6.2805,-6.2805,-6.2805,-6.2805,-6.2805,-6.2805,-6.2805,-6.2805,-6.2805,-6.2805,-6.2805,-6.2805,-6.2805,-6.2805,-6.2805,-6.2805,-6.2805,-6.2805,-6.2805,-6.2805,-6.1227,-6.0449,-6.0609,-5.8989,-5.8242,-5.8393,-5.8393,-5.8349,-5.8197,-5.8197,-5.8133,-5.7997,-5.7997,-5.7997,-5.7997,-5.7997,-5.7997,-5.7997,-5.7997,-5.7997,-5.7997,-5.7997,-5.8205,-5.8511,-5.8656,-5.9044,-5.9556,-5.9725,-6.0042,-6.0293,-6.0293,-6.0293,-6.0293,-6.0293,-6.0293,-6.0265,-6.0129,-6.0099,-6.0129,-6.0198,-6.0237,-6.0368,-6.0559,-6.0635,-6.071,-6.08,-6.08,-6.0512,-5.9646,-5.9511,-5.9242,-5.8434,-5.8319,-5.8319,-5.8319,-5.9031,-5.9511,-5.9511,-6.0281,-6.08,-6.08,-6.08,-6.08,-6.08,-6.08,-6.08,-6.08,-6.08,-6.08,-6.08,-6.0869,-6.0911,-6.0911,-6.0955,-6.0955,-6.0911,-6.0911,-6.0846,-6.08,-6.08,-6.08,-6.08,-6.08,-6.08,-6.08,-6.08,-6.08,-6.08,-6.08,-6.08,-6.08,-5.941,-5.9769,-6.0107,-6.0682,-6.0943,-6.1304,-6.1898,-6.1972,-6.2155,-6.275,-6.2805,-6.2805,-6.2805,-6.2805,-6.2805,-6.2805,-6.2805,-6.2805,-6.2805,-6.2805,-6.2805,-6.2805,-6.2805,-6.2548,-6.1961,-6.0933,-6.0126,-5.9622,-5.8557,-5.8088,-5.8106,-5.8106,-5.8106,-5.8042,-5.8042,-5.8042,-5.7997,-5.7997,-5.7997,-5.7997,-5.7997,-5.7997,-5.7997,-5.7997,-5.7997,-5.7997,-5.8106,-5.8312,-5.8553,-5.8887,-5.9307,-5.9791,-6.0265,-6.0494,-6.0591,-6.0641,-6.0641,-6.0641,-6.0641,-6.0641,-6.0616,-6.0425,-6.037,-6.0398,-6.048,-6.0506,-6.0559,-6.0635,-6.0655,-6.0655,-6.0729,-6.0704,-6.0559,-6.0309,-6.0301,-6.0248,-6.0018,-6.0027,-6.005,-6.005,-6.0262,-6.0416,-6.0416,-6.0646,-6.08,-6.08,-6.08,-6.08,-6.08,-6.08,-6.08,-6.08,-6.08,-6.08,-6.08,-6.0823,-6.0823,-6.0823,-6.0846,-6.0846,-6.0823,-6.0823,-6.0823,-6.08,-6.08,-6.08,-6.08,-6.08,-6.08,-6.08,-6.08,-6.08,-6.08,-6.08,-6.08,-6.08,-5.8639,-5.9007,-5.9356,-5.9828,-6.0176,-6.0554,-6.1043,-6.1147,-6.1286,-6.1775,-6.1856,-6.1851,-6.1851,-6.2144,-6.2328,-6.2328,-6.2328,-6.2199,-6.1887,-6.1851,-6.1851,-6.1851,-6.1851,-6.1777,-6.1594,-6.0511,-5.9703,-5.9208,-5.84,-5.7997,-5.7997,-5.7997,-5.7997,-5.7997,-5.7997,-5.7997,-5.7997,-5.7997,-5.7997,-5.7997,-5.7997,-5.7997,-5.7997,-5.7997,-5.8042,-5.8088,-5.8223,-5.8425,-5.8743,-5.9102,-5.959,-6.0169,-6.0591,-6.0734,-6.0753,-6.08,-6.08,-6.08,-6.08,-6.08,-6.0757,-6.0629,-6.0604,-6.0629,-6.0655,-6.0655,-6.0655,-6.061,-6.0604,-6.0533,-6.0514,-6.0487,-6.0433,-6.0433,-6.0514,-6.0565,-6.0635,-6.0729,-6.0777,-6.08,-6.08,-6.08,-6.08,-6.08,-6.08,-6.08,-6.08,-6.08,-6.08,-6.08,-6.08,-6.08,-6.08,-6.08,-6.08,-6.08,-6.08,-6.08,-6.08,-6.08,-6.08,-6.08,-6.08,-6.08,-6.08,-6.08,-6.08,-6.08,-6.08,-6.08,-6.08,-6.08,-6.08,-6.08,-6.08,-6.08,-5.7997,-5.8603,-5.9108,-5.9108,-5.9688,-6.0241,-6.0296,-6.0261,-6.034,-6.0395,-6.0396,-6.0382,-6.0382,-6.1043,-6.1484,-6.1484,-6.1484,-6.1172,-6.0456,-6.0401,-6.0401,-6.0401,-6.0346,-6.0639,-6.1374,-5.996,-5.9171,-5.9116,-5.8364,-5.7997,-5.7997,-5.7997,-5.7997,-5.7997,-5.7997,-5.7997,-5.7997,-5.7997,-5.7997,-5.7997,-5.7997,-5.7997,-5.7997,-5.7997,-5.8088,-5.8197,-5.8275,-5.8619,-5.9063,-5.9363,-5.9937,-6.0552,-6.0753,-6.08,-6.08,-6.08,-6.08,-6.08,-6.08,-6.08,-6.0757,-6.0729,-6.071,-6.0734,-6.0685,-6.066,-6.0635,-6.0506,-6.0453,-6.0379,-6.0198,-6.015,-6.015,-6.015,-6.0227,-6.034,-6.0533,-6.0655,-6.071,-6.08,-6.08,-6.08,-6.08,-6.08,-6.08,-6.08,-6.08,-6.08,-6.08,-6.08,-6.08,-6.08,-6.08,-6.08,-6.08,-6.08,-6.08,-6.08,-6.08,-6.08,-6.08,-6.08,-6.08,-6.08,-6.08,-6.08,-6.08,-6.08,-6.08,-6.08,-6.08,-6.08,-6.08,-6.08,-6.08,-6.08,-5.7997,-5.8125,-5.8281,-5.8281,-5.8391,-5.8731,-5.9348,-5.9448,-5.9706,-6.0323,-6.0406,-6.0416,-6.0416,-6.057,-6.0658,-6.0658,-6.0658,-6.0584,-6.0419,-6.0401,-6.0401,-6.0401,-5.9813,-5.9557,-5.9722,-5.9391,-5.8896,-5.8253,-5.8088,-5.7997,-5.7997,-5.7997,-5.7997,-5.7997,-5.7997,-5.7997,-5.7997,-5.7997,-5.7997,-5.7997,-5.7997,-5.7997,-5.7997,-5.7997,-5.8088,-5.8242,-5.8529,-5.8825,-5.9159,-5.9868,-6.034,-6.066,-6.0777,-6.08,-6.08,-6.08,-6.08,-6.08,-6.08,-6.0757,-6.0729,-6.0655,-6.0514,-6.0422,-6.0533,-6.046,-6.0368,-6.0284,-6.011,-5.9937,-5.9887,-5.9758,-5.9692,-5.9777,-5.9988,-6.0217,-6.034,-6.0565,-6.071,-6.08,-6.08,-6.08,-6.08,-6.08,-6.08,-6.08,-6.08,-6.08,-6.08,-6.08,-6.08,-6.08,-6.08,-6.08,-6.08,-6.08,-6.08,-6.08,-6.08,-6.08,-6.08,-6.08,-6.08,-6.08,-6.08,-6.08,-6.08,-6.08,-6.08,-6.08,-6.08,-6.08,-6.08,-6.08,-6.08,-6.08,-5.7997,-5.7997,-5.7997,-5.7997,-5.7997,-5.8125,-5.8538,-5.864,-5.8787,-5.92,-5.9256,-5.9256,-5.9256,-5.9585,-5.9832,-5.9832,-5.9832,-5.9667,-5.9281,-5.9263,-5.9263,-5.9263,-5.8859,-5.8639,-5.8639,-5.8639,-5.8419,-5.7997,-5.7997,-5.7997,-5.7997,-5.7997,-5.7997,-5.7997,-5.7997,-5.7997,-5.7997,-5.7997,-5.7997,-5.7997,-5.7997,-5.7997,-5.7997,-5.8088,-5.8179,-5.84,-5.8743,-5.9215,-5.9725,-6.0256,-6.0565,-6.071,-6.0777,-6.08,-6.08,-6.08,-6.0777,-6.0734,-6.0734,-6.066,-6.0559,-6.0433,-6.0256,-6.015,-6.0198,-6.0121,-6.0011,-5.9809,-5.9643,-5.9505,-5.9325,-5.9234,-5.9234,-5.9399,-5.9609,-5.9874,-6.0208,-6.046,-6.0635,-6.08,-6.08,-6.08,-6.08,-6.08,-6.08,-6.08,-6.08,-6.08,-6.08,-6.08,-6.08,-6.08,-6.08,-6.08,-6.08,-6.08,-6.08,-6.08,-6.08,-6.08,-6.08,-6.08,-6.08,-6.08,-6.08,-6.08,-6.08,-6.08,-6.08,-6.08,-6.08,-6.08,-6.08,-6.08,-6.08,-6.08,-5.7997,-5.7997,-5.7997,-5.7997,-5.7997,-5.7997,-5.7997,-5.7997,-5.7997,-5.7997,-5.7997,-5.7997,-5.7997,-5.8602,-5.9006,-5.9006,-5.9006,-5.8712,-5.8033,-5.7997,-5.7997,-5.7997,-5.7997,-5.7997,-5.7997,-5.7997,-5.7997,-5.7997,-5.7997,-5.7997,-5.7997,-5.7997,-5.7997,-5.7997,-5.7997,-5.7997,-5.7997,-5.7997,-5.7997,-5.7997,-5.7997,-5.7997,-5.7997,-5.8152,-5.8356,-5.8596,-5.9005,-5.9624,-6.0275,-6.0533,-6.068,-6.0729,-6.0777,-6.08,-6.0777,-6.0777,-6.0729,-6.066,-6.0635,-6.0514,-6.0351,-6.014,-5.9937,-5.9772,-5.9739,-5.9692,-5.959,-5.9271,-5.9178,-5.9101,-5.8806,-5.8766,-5.8806,-5.9044,-5.9215,-5.9575,-6.011,-6.0351,-6.0559,-6.0777,-6.08,-6.08,-6.08,-6.08,-6.08,-6.08,-6.08,-6.08,-6.08,-6.08,-6.08,-6.08,-6.08,-6.08,-6.08,-6.08,-6.08,-6.08,-6.08,-6.08,-6.08,-6.08,-6.08,-6.08,-6.08,-6.08,-6.08,-6.08,-6.08,-6.08,-6.08,-6.08,-6.08,-6.08,-6.08,-6.08,-5.7997,-5.7997,-5.7997,-5.7997,-5.7997,-5.7997,-5.7997,-5.7997,-5.7997,-5.7997,-5.7997,-5.7997,-5.7997,-5.8107,-5.8162,-5.8162,-5.8162,-5.8125,-5.7997,-5.7997,-5.7997,-5.7997,-5.7997,-5.7997,-5.7997,-5.7997,-5.7997,-5.7997,-5.7997,-5.7997,-5.7997,-5.7997,-5.7997,-5.7997,-5.7997,-5.7997,-5.7997,-5.7997,-5.7997,-5.7997,-5.7997,-5.7997,-5.7997,-5.8152,-5.8418,-5.8739,-5.914,-5.9796,-6.048,-6.0655,-6.0734,-6.08,-6.08,-6.0777,-6.071,-6.071,-6.061,-6.0506,-6.0387,-6.016,-5.995,-5.9809,-5.9505,-5.9159,-5.8986,-5.9102,-5.9121,-5.8908,-5.8725,-5.8577,-5.8553,-5.8486,-5.8548,-5.8899,-5.912,-5.9489,-6.0038,-6.0342,-6.0559,-6.0777,-6.08,-6.08,-6.08,-6.08,-6.08,-6.08,-6.08,-6.08,-6.08,-6.08,-6.08,-6.08,-6.08,-6.08,-6.08,-6.08,-6.08,-6.08,-6.08,-6.08,-6.08,-6.08,-6.08,-6.08,-6.08,-6.08,-6.08,-6.08,-6.08,-6.08,-6.08,-6.08,-6.08,-6.08,-6.08,-6.08,-5.7997,-5.7997,-5.7997,-5.7997,-5.7997,-5.7997,-5.7997,-5.7997,-5.7997,-5.7997,-5.7997,-5.7997,-5.7997,-5.7997,-5.7997,-5.7997,-5.7997,-5.7997,-5.7997,-5.7997,-5.7997,-5.7997,-5.7997,-5.7997,-5.7997,-5.7997,-5.7997,-5.7997,-5.7997,-5.7997,-5.7997,-5.7997,-5.7997,-5.7997,-5.7997,-5.7997,-5.7997,-5.7997,-5.7997,-5.7997,-5.7997,-5.8042,-5.8133,-5.8312,-5.8596,-5.9005,-5.9624,-6.0179,-6.061,-6.0685,-6.071,-6.0734,-6.0655,-6.0629,-6.0559,-6.0441,-6.0284,-6.0121,-6.0061,-5.9791,-5.954,-5.9399,-5.9121,-5.8825,-5.8577,-5.8619,-5.8661,-5.8492,-5.8425,-5.8418,-5.8356,-5.84,-5.8572,-5.8902,-5.9178,-5.954,-6.008,-6.0351,-6.0559,-6.0777,-6.08,-6.08,-6.08,-6.08,-6.08,-6.08,-6.08,-6.08,-6.08,-6.08,-6.08,-6.08,-6.08,-6.08,-6.08,-6.08,-6.08,-6.08,-6.08,-6.08,-6.08,-6.08,-6.08,-6.08,-6.08,-6.08,-6.08,-6.08,-6.08,-6.08,-6.08,-6.08,-6.08,-6.08,-6.08,-6.08]}]]